<?xml version="1.0" encoding="UTF-8" standalone="no" ?>
<gpx xmlns="http://www.topografix.com/GPX/1/1" xmlns:xsi="http://www.w3.org/2001/XMLSchema-instance" xsi:schemaLocation="http://www.topografix.com/GPX/1/1 http://www.topografix.com/GPX/1/1/gpx.xsd" version="1.1" creator="VisuGPX - https://www.visugpx.com">
  <metadata>
    <name>Vaux de Cernay 13 mai 2012</name>
    <desc><![CDATA[Rando Vaux de Cernay]]></desc>
  </metadata>
  <trk>
    <name><![CDATA[Tracé actuel: 13 MAI 2012 10:53]]></name>
    <trkseg>
      <trkpt lat="48.67924" lon="1.96606">
        <ele>70.79</ele>
        <time>2012-05-13T08:53:56Z</time>
      </trkpt>
      <trkpt lat="48.67924" lon="1.96605">
        <ele>74.16</ele>
        <time>2012-05-13T08:53:57Z</time>
      </trkpt>
      <trkpt lat="48.67924" lon="1.96605">
        <ele>77.52</ele>
        <time>2012-05-13T08:54:00Z</time>
      </trkpt>
      <trkpt lat="48.67924" lon="1.96605">
        <ele>81.37</ele>
        <time>2012-05-13T08:54:03Z</time>
      </trkpt>
      <trkpt lat="48.67923" lon="1.96604">
        <ele>84.73</ele>
        <time>2012-05-13T08:54:07Z</time>
      </trkpt>
      <trkpt lat="48.67923" lon="1.96606">
        <ele>88.1</ele>
        <time>2012-05-13T08:54:11Z</time>
      </trkpt>
      <trkpt lat="48.67922" lon="1.96609">
        <ele>91.46</ele>
        <time>2012-05-13T08:54:16Z</time>
      </trkpt>
      <trkpt lat="48.67922" lon="1.96608">
        <ele>94.83</ele>
        <time>2012-05-13T08:54:22Z</time>
      </trkpt>
      <trkpt lat="48.67922" lon="1.96609">
        <ele>98.19</ele>
        <time>2012-05-13T08:54:29Z</time>
      </trkpt>
      <trkpt lat="48.67921" lon="1.96611">
        <ele>101.56</ele>
        <time>2012-05-13T08:54:38Z</time>
      </trkpt>
      <trkpt lat="48.67921" lon="1.96611">
        <ele>102.52</ele>
        <time>2012-05-13T08:54:40Z</time>
      </trkpt>
      <trkpt lat="48.67921" lon="1.96611">
        <ele>106.36</ele>
        <time>2012-05-13T08:54:54Z</time>
      </trkpt>
      <trkpt lat="48.67948" lon="1.96581">
        <ele>-24.86</ele>
        <time>2012-05-13T09:10:44Z</time>
      </trkpt>
      <trkpt lat="48.67947" lon="1.96581">
        <ele>-24.38</ele>
        <time>2012-05-13T09:10:45Z</time>
      </trkpt>
      <trkpt lat="48.67944" lon="1.96572">
        <ele>-23.9</ele>
        <time>2012-05-13T09:11:00Z</time>
      </trkpt>
      <trkpt lat="48.67934" lon="1.96559">
        <ele>-22.93</ele>
        <time>2012-05-13T09:11:13Z</time>
      </trkpt>
      <trkpt lat="48.67927" lon="1.96551">
        <ele>-22.45</ele>
        <time>2012-05-13T09:11:25Z</time>
      </trkpt>
      <trkpt lat="48.67933" lon="1.96538">
        <ele>-24.38</ele>
        <time>2012-05-13T09:11:40Z</time>
      </trkpt>
      <trkpt lat="48.67933" lon="1.96523">
        <ele>-24.38</ele>
        <time>2012-05-13T09:11:53Z</time>
      </trkpt>
      <trkpt lat="48.67925" lon="1.9651">
        <ele>-25.34</ele>
        <time>2012-05-13T09:12:05Z</time>
      </trkpt>
      <trkpt lat="48.6792" lon="1.96505">
        <ele>-24.86</ele>
        <time>2012-05-13T09:12:16Z</time>
      </trkpt>
      <trkpt lat="48.67919" lon="1.96505">
        <ele>-23.9</ele>
        <time>2012-05-13T09:12:18Z</time>
      </trkpt>
      <trkpt lat="48.67913" lon="1.96504">
        <ele>-23.41</ele>
        <time>2012-05-13T09:12:26Z</time>
      </trkpt>
      <trkpt lat="48.67907" lon="1.96507">
        <ele>-22.93</ele>
        <time>2012-05-13T09:12:33Z</time>
      </trkpt>
      <trkpt lat="48.67886" lon="1.96509">
        <ele>-21.97</ele>
        <time>2012-05-13T09:12:49Z</time>
      </trkpt>
      <trkpt lat="48.67879" lon="1.96505">
        <ele>-20.53</ele>
        <time>2012-05-13T09:13:00Z</time>
      </trkpt>
      <trkpt lat="48.67873" lon="1.96494">
        <ele>-19.09</ele>
        <time>2012-05-13T09:13:13Z</time>
      </trkpt>
      <trkpt lat="48.67869" lon="1.96491">
        <ele>-18.61</ele>
        <time>2012-05-13T09:13:18Z</time>
      </trkpt>
      <trkpt lat="48.6787" lon="1.96484">
        <ele>-17.17</ele>
        <time>2012-05-13T09:13:21Z</time>
      </trkpt>
      <trkpt lat="48.67867" lon="1.96478">
        <ele>-16.69</ele>
        <time>2012-05-13T09:13:31Z</time>
      </trkpt>
      <trkpt lat="48.67863" lon="1.96477">
        <ele>-16.21</ele>
        <time>2012-05-13T09:13:42Z</time>
      </trkpt>
      <trkpt lat="48.67861" lon="1.96478">
        <ele>-15.72</ele>
        <time>2012-05-13T09:13:56Z</time>
      </trkpt>
      <trkpt lat="48.67861" lon="1.96478">
        <ele>-14.28</ele>
        <time>2012-05-13T09:14:17Z</time>
      </trkpt>
      <trkpt lat="48.67861" lon="1.96478">
        <ele>-14.28</ele>
        <time>2012-05-13T09:14:31Z</time>
      </trkpt>
      <trkpt lat="48.67861" lon="1.96478">
        <ele>-11.4</ele>
        <time>2012-05-13T09:14:45Z</time>
      </trkpt>
      <trkpt lat="48.67847" lon="1.96479">
        <ele>-9.48</ele>
        <time>2012-05-13T09:14:58Z</time>
      </trkpt>
      <trkpt lat="48.67841" lon="1.96472">
        <ele>-9</ele>
        <time>2012-05-13T09:15:09Z</time>
      </trkpt>
      <trkpt lat="48.67838" lon="1.96475">
        <ele>-7.55</ele>
        <time>2012-05-13T09:15:25Z</time>
      </trkpt>
      <trkpt lat="48.67836" lon="1.96476">
        <ele>-5.15</ele>
        <time>2012-05-13T09:15:38Z</time>
      </trkpt>
      <trkpt lat="48.67827" lon="1.96477">
        <ele>-5.15</ele>
        <time>2012-05-13T09:15:53Z</time>
      </trkpt>
      <trkpt lat="48.67799" lon="1.96472">
        <ele>-4.19</ele>
        <time>2012-05-13T09:16:05Z</time>
      </trkpt>
      <trkpt lat="48.6779" lon="1.96461">
        <ele>-3.71</ele>
        <time>2012-05-13T09:16:20Z</time>
      </trkpt>
      <trkpt lat="48.67787" lon="1.96455">
        <ele>-2.27</ele>
        <time>2012-05-13T09:16:36Z</time>
      </trkpt>
      <trkpt lat="48.67779" lon="1.96441">
        <ele>-1.79</ele>
        <time>2012-05-13T09:16:49Z</time>
      </trkpt>
      <trkpt lat="48.67773" lon="1.9644">
        <ele>0.62</ele>
        <time>2012-05-13T09:16:56Z</time>
      </trkpt>
      <trkpt lat="48.67759" lon="1.96428">
        <ele>1.58</ele>
        <time>2012-05-13T09:17:07Z</time>
      </trkpt>
      <trkpt lat="48.6774" lon="1.964">
        <ele>3.02</ele>
        <time>2012-05-13T09:17:20Z</time>
      </trkpt>
      <trkpt lat="48.67732" lon="1.96383">
        <ele>3.02</ele>
        <time>2012-05-13T09:17:32Z</time>
      </trkpt>
      <trkpt lat="48.67728" lon="1.96377">
        <ele>3.5</ele>
        <time>2012-05-13T09:17:42Z</time>
      </trkpt>
      <trkpt lat="48.67707" lon="1.96375">
        <ele>4.46</ele>
        <time>2012-05-13T09:17:56Z</time>
      </trkpt>
      <trkpt lat="48.67706" lon="1.9637">
        <ele>4.94</ele>
        <time>2012-05-13T09:18:02Z</time>
      </trkpt>
      <trkpt lat="48.67707" lon="1.96345">
        <ele>5.91</ele>
        <time>2012-05-13T09:18:16Z</time>
      </trkpt>
      <trkpt lat="48.67708" lon="1.9633">
        <ele>7.83</ele>
        <time>2012-05-13T09:18:28Z</time>
      </trkpt>
      <trkpt lat="48.67708" lon="1.96327">
        <ele>9.27</ele>
        <time>2012-05-13T09:18:33Z</time>
      </trkpt>
      <trkpt lat="48.67696" lon="1.96293">
        <ele>10.71</ele>
        <time>2012-05-13T09:18:46Z</time>
      </trkpt>
      <trkpt lat="48.67689" lon="1.96281">
        <ele>12.15</ele>
        <time>2012-05-13T09:18:57Z</time>
      </trkpt>
      <trkpt lat="48.67677" lon="1.96266">
        <ele>13.12</ele>
        <time>2012-05-13T09:19:08Z</time>
      </trkpt>
      <trkpt lat="48.67666" lon="1.96248">
        <ele>11.19</ele>
        <time>2012-05-13T09:19:21Z</time>
      </trkpt>
      <trkpt lat="48.67658" lon="1.96219">
        <ele>9.75</ele>
        <time>2012-05-13T09:19:34Z</time>
      </trkpt>
      <trkpt lat="48.6766" lon="1.96209">
        <ele>13.12</ele>
        <time>2012-05-13T09:19:43Z</time>
      </trkpt>
      <trkpt lat="48.67664" lon="1.96203">
        <ele>10.23</ele>
        <time>2012-05-13T09:19:46Z</time>
      </trkpt>
      <trkpt lat="48.67665" lon="1.96201">
        <ele>10.23</ele>
        <time>2012-05-13T09:19:47Z</time>
      </trkpt>
      <trkpt lat="48.67675" lon="1.96187">
        <ele>12.15</ele>
        <time>2012-05-13T09:20:01Z</time>
      </trkpt>
      <trkpt lat="48.67682" lon="1.96179">
        <ele>14.56</ele>
        <time>2012-05-13T09:20:10Z</time>
      </trkpt>
      <trkpt lat="48.67681" lon="1.96151">
        <ele>15.04</ele>
        <time>2012-05-13T09:20:25Z</time>
      </trkpt>
      <trkpt lat="48.6768" lon="1.96133">
        <ele>15.52</ele>
        <time>2012-05-13T09:20:38Z</time>
      </trkpt>
      <trkpt lat="48.67683" lon="1.96117">
        <ele>15.52</ele>
        <time>2012-05-13T09:20:51Z</time>
      </trkpt>
      <trkpt lat="48.67684" lon="1.96089">
        <ele>16</ele>
        <time>2012-05-13T09:21:07Z</time>
      </trkpt>
      <trkpt lat="48.67685" lon="1.96069">
        <ele>16.96</ele>
        <time>2012-05-13T09:21:20Z</time>
      </trkpt>
      <trkpt lat="48.67685" lon="1.96066">
        <ele>16.48</ele>
        <time>2012-05-13T09:21:22Z</time>
      </trkpt>
      <trkpt lat="48.67685" lon="1.96057">
        <ele>16.96</ele>
        <time>2012-05-13T09:21:27Z</time>
      </trkpt>
      <trkpt lat="48.67684" lon="1.96034">
        <ele>17.92</ele>
        <time>2012-05-13T09:21:40Z</time>
      </trkpt>
      <trkpt lat="48.67684" lon="1.96004">
        <ele>18.4</ele>
        <time>2012-05-13T09:21:57Z</time>
      </trkpt>
      <trkpt lat="48.67689" lon="1.95981">
        <ele>18.4</ele>
        <time>2012-05-13T09:22:10Z</time>
      </trkpt>
      <trkpt lat="48.6769" lon="1.95952">
        <ele>18.4</ele>
        <time>2012-05-13T09:22:24Z</time>
      </trkpt>
      <trkpt lat="48.67692" lon="1.95941">
        <ele>19.36</ele>
        <time>2012-05-13T09:22:30Z</time>
      </trkpt>
      <trkpt lat="48.67692" lon="1.95937">
        <ele>19.84</ele>
        <time>2012-05-13T09:22:32Z</time>
      </trkpt>
      <trkpt lat="48.67697" lon="1.9591">
        <ele>19.84</ele>
        <time>2012-05-13T09:22:48Z</time>
      </trkpt>
      <trkpt lat="48.67702" lon="1.959">
        <ele>20.32</ele>
        <time>2012-05-13T09:22:54Z</time>
      </trkpt>
      <trkpt lat="48.67704" lon="1.95895">
        <ele>20.32</ele>
        <time>2012-05-13T09:22:57Z</time>
      </trkpt>
      <trkpt lat="48.67712" lon="1.9587">
        <ele>21.29</ele>
        <time>2012-05-13T09:23:11Z</time>
      </trkpt>
      <trkpt lat="48.67717" lon="1.95864">
        <ele>21.77</ele>
        <time>2012-05-13T09:23:17Z</time>
      </trkpt>
      <trkpt lat="48.67721" lon="1.95857">
        <ele>21.77</ele>
        <time>2012-05-13T09:23:22Z</time>
      </trkpt>
      <trkpt lat="48.67731" lon="1.9584">
        <ele>22.73</ele>
        <time>2012-05-13T09:23:35Z</time>
      </trkpt>
      <trkpt lat="48.67737" lon="1.95822">
        <ele>22.25</ele>
        <time>2012-05-13T09:23:48Z</time>
      </trkpt>
      <trkpt lat="48.67742" lon="1.95806">
        <ele>22.25</ele>
        <time>2012-05-13T09:23:59Z</time>
      </trkpt>
      <trkpt lat="48.67748" lon="1.95783">
        <ele>24.65</ele>
        <time>2012-05-13T09:24:12Z</time>
      </trkpt>
      <trkpt lat="48.67749" lon="1.95765">
        <ele>24.65</ele>
        <time>2012-05-13T09:24:27Z</time>
      </trkpt>
      <trkpt lat="48.67755" lon="1.95753">
        <ele>25.13</ele>
        <time>2012-05-13T09:24:38Z</time>
      </trkpt>
      <trkpt lat="48.67766" lon="1.95736">
        <ele>25.61</ele>
        <time>2012-05-13T09:24:51Z</time>
      </trkpt>
      <trkpt lat="48.67775" lon="1.95722">
        <ele>25.61</ele>
        <time>2012-05-13T09:25:04Z</time>
      </trkpt>
      <trkpt lat="48.67782" lon="1.95703">
        <ele>26.09</ele>
        <time>2012-05-13T09:25:16Z</time>
      </trkpt>
      <trkpt lat="48.67794" lon="1.95685">
        <ele>26.57</ele>
        <time>2012-05-13T09:25:28Z</time>
      </trkpt>
      <trkpt lat="48.67801" lon="1.95674">
        <ele>27.05</ele>
        <time>2012-05-13T09:25:37Z</time>
      </trkpt>
      <trkpt lat="48.67808" lon="1.95663">
        <ele>27.53</ele>
        <time>2012-05-13T09:25:49Z</time>
      </trkpt>
      <trkpt lat="48.67814" lon="1.95651">
        <ele>28.5</ele>
        <time>2012-05-13T09:26:00Z</time>
      </trkpt>
      <trkpt lat="48.6782" lon="1.95642">
        <ele>28.5</ele>
        <time>2012-05-13T09:26:10Z</time>
      </trkpt>
      <trkpt lat="48.67828" lon="1.95631">
        <ele>28.98</ele>
        <time>2012-05-13T09:26:21Z</time>
      </trkpt>
      <trkpt lat="48.6783" lon="1.95626">
        <ele>29.46</ele>
        <time>2012-05-13T09:26:24Z</time>
      </trkpt>
      <trkpt lat="48.67838" lon="1.95613">
        <ele>30.42</ele>
        <time>2012-05-13T09:26:37Z</time>
      </trkpt>
      <trkpt lat="48.67846" lon="1.95598">
        <ele>30.42</ele>
        <time>2012-05-13T09:26:50Z</time>
      </trkpt>
      <trkpt lat="48.67849" lon="1.95586">
        <ele>30.42</ele>
        <time>2012-05-13T09:27:02Z</time>
      </trkpt>
      <trkpt lat="48.6785" lon="1.9557">
        <ele>31.86</ele>
        <time>2012-05-13T09:27:14Z</time>
      </trkpt>
      <trkpt lat="48.67856" lon="1.95551">
        <ele>32.82</ele>
        <time>2012-05-13T09:27:25Z</time>
      </trkpt>
      <trkpt lat="48.67858" lon="1.9554">
        <ele>32.82</ele>
        <time>2012-05-13T09:27:32Z</time>
      </trkpt>
      <trkpt lat="48.67862" lon="1.95512">
        <ele>33.78</ele>
        <time>2012-05-13T09:27:47Z</time>
      </trkpt>
      <trkpt lat="48.67862" lon="1.95483">
        <ele>34.74</ele>
        <time>2012-05-13T09:28:02Z</time>
      </trkpt>
      <trkpt lat="48.6786" lon="1.95458">
        <ele>35.23</ele>
        <time>2012-05-13T09:28:16Z</time>
      </trkpt>
      <trkpt lat="48.67865" lon="1.95442">
        <ele>35.71</ele>
        <time>2012-05-13T09:28:29Z</time>
      </trkpt>
      <trkpt lat="48.67869" lon="1.95424">
        <ele>36.19</ele>
        <time>2012-05-13T09:28:40Z</time>
      </trkpt>
      <trkpt lat="48.67876" lon="1.95404">
        <ele>37.15</ele>
        <time>2012-05-13T09:28:53Z</time>
      </trkpt>
      <trkpt lat="48.67886" lon="1.95377">
        <ele>37.63</ele>
        <time>2012-05-13T09:29:08Z</time>
      </trkpt>
      <trkpt lat="48.6789" lon="1.95366">
        <ele>38.59</ele>
        <time>2012-05-13T09:29:20Z</time>
      </trkpt>
      <trkpt lat="48.67896" lon="1.95347">
        <ele>39.07</ele>
        <time>2012-05-13T09:29:32Z</time>
      </trkpt>
      <trkpt lat="48.67905" lon="1.95321">
        <ele>40.03</ele>
        <time>2012-05-13T09:29:47Z</time>
      </trkpt>
      <trkpt lat="48.67913" lon="1.95305">
        <ele>39.07</ele>
        <time>2012-05-13T09:30:00Z</time>
      </trkpt>
      <trkpt lat="48.67922" lon="1.95287">
        <ele>39.07</ele>
        <time>2012-05-13T09:30:13Z</time>
      </trkpt>
      <trkpt lat="48.67932" lon="1.95262">
        <ele>39.55</ele>
        <time>2012-05-13T09:30:27Z</time>
      </trkpt>
      <trkpt lat="48.67936" lon="1.95242">
        <ele>39.55</ele>
        <time>2012-05-13T09:30:40Z</time>
      </trkpt>
      <trkpt lat="48.67936" lon="1.95238">
        <ele>39.55</ele>
        <time>2012-05-13T09:30:43Z</time>
      </trkpt>
      <trkpt lat="48.67934" lon="1.95219">
        <ele>40.51</ele>
        <time>2012-05-13T09:30:56Z</time>
      </trkpt>
      <trkpt lat="48.67937" lon="1.95198">
        <ele>40.99</ele>
        <time>2012-05-13T09:31:10Z</time>
      </trkpt>
      <trkpt lat="48.67945" lon="1.95177">
        <ele>41.95</ele>
        <time>2012-05-13T09:31:24Z</time>
      </trkpt>
      <trkpt lat="48.67944" lon="1.95157">
        <ele>42.44</ele>
        <time>2012-05-13T09:31:39Z</time>
      </trkpt>
      <trkpt lat="48.67944" lon="1.95141">
        <ele>41.95</ele>
        <time>2012-05-13T09:31:53Z</time>
      </trkpt>
      <trkpt lat="48.67951" lon="1.95119">
        <ele>43.4</ele>
        <time>2012-05-13T09:32:07Z</time>
      </trkpt>
      <trkpt lat="48.67954" lon="1.95101">
        <ele>43.88</ele>
        <time>2012-05-13T09:32:22Z</time>
      </trkpt>
      <trkpt lat="48.67961" lon="1.95092">
        <ele>44.36</ele>
        <time>2012-05-13T09:32:34Z</time>
      </trkpt>
      <trkpt lat="48.67968" lon="1.95076">
        <ele>44.36</ele>
        <time>2012-05-13T09:32:50Z</time>
      </trkpt>
      <trkpt lat="48.67975" lon="1.95053">
        <ele>45.8</ele>
        <time>2012-05-13T09:33:05Z</time>
      </trkpt>
      <trkpt lat="48.67982" lon="1.95029">
        <ele>47.24</ele>
        <time>2012-05-13T09:33:19Z</time>
      </trkpt>
      <trkpt lat="48.67994" lon="1.95018">
        <ele>47.24</ele>
        <time>2012-05-13T09:33:33Z</time>
      </trkpt>
      <trkpt lat="48.68004" lon="1.95008">
        <ele>46.28</ele>
        <time>2012-05-13T09:33:45Z</time>
      </trkpt>
      <trkpt lat="48.68025" lon="1.94991">
        <ele>46.76</ele>
        <time>2012-05-13T09:33:59Z</time>
      </trkpt>
      <trkpt lat="48.68035" lon="1.94982">
        <ele>47.24</ele>
        <time>2012-05-13T09:34:13Z</time>
      </trkpt>
      <trkpt lat="48.68046" lon="1.94971">
        <ele>47.24</ele>
        <time>2012-05-13T09:34:27Z</time>
      </trkpt>
      <trkpt lat="48.6806" lon="1.9496">
        <ele>48.68</ele>
        <time>2012-05-13T09:34:41Z</time>
      </trkpt>
      <trkpt lat="48.68065" lon="1.94953">
        <ele>48.68</ele>
        <time>2012-05-13T09:34:46Z</time>
      </trkpt>
      <trkpt lat="48.68069" lon="1.94948">
        <ele>49.65</ele>
        <time>2012-05-13T09:34:52Z</time>
      </trkpt>
      <trkpt lat="48.68078" lon="1.94936">
        <ele>50.61</ele>
        <time>2012-05-13T09:35:05Z</time>
      </trkpt>
      <trkpt lat="48.68084" lon="1.94923">
        <ele>51.09</ele>
        <time>2012-05-13T09:35:18Z</time>
      </trkpt>
      <trkpt lat="48.68085" lon="1.94905">
        <ele>51.09</ele>
        <time>2012-05-13T09:35:31Z</time>
      </trkpt>
      <trkpt lat="48.68082" lon="1.94879">
        <ele>51.09</ele>
        <time>2012-05-13T09:35:47Z</time>
      </trkpt>
      <trkpt lat="48.68084" lon="1.9485">
        <ele>51.57</ele>
        <time>2012-05-13T09:36:01Z</time>
      </trkpt>
      <trkpt lat="48.68093" lon="1.94832">
        <ele>53.01</ele>
        <time>2012-05-13T09:36:13Z</time>
      </trkpt>
      <trkpt lat="48.68099" lon="1.94817">
        <ele>53.49</ele>
        <time>2012-05-13T09:36:32Z</time>
      </trkpt>
      <trkpt lat="48.68105" lon="1.94804">
        <ele>56.37</ele>
        <time>2012-05-13T09:36:47Z</time>
      </trkpt>
      <trkpt lat="48.68114" lon="1.94782">
        <ele>57.82</ele>
        <time>2012-05-13T09:37:03Z</time>
      </trkpt>
      <trkpt lat="48.68118" lon="1.9477">
        <ele>60.22</ele>
        <time>2012-05-13T09:37:18Z</time>
      </trkpt>
      <trkpt lat="48.68122" lon="1.94744">
        <ele>62.62</ele>
        <time>2012-05-13T09:37:32Z</time>
      </trkpt>
      <trkpt lat="48.68129" lon="1.94729">
        <ele>63.1</ele>
        <time>2012-05-13T09:37:42Z</time>
      </trkpt>
      <trkpt lat="48.68138" lon="1.94702">
        <ele>63.58</ele>
        <time>2012-05-13T09:37:56Z</time>
      </trkpt>
      <trkpt lat="48.68137" lon="1.94676">
        <ele>63.58</ele>
        <time>2012-05-13T09:38:08Z</time>
      </trkpt>
      <trkpt lat="48.68135" lon="1.94649">
        <ele>63.58</ele>
        <time>2012-05-13T09:38:23Z</time>
      </trkpt>
      <trkpt lat="48.68131" lon="1.94624">
        <ele>63.1</ele>
        <time>2012-05-13T09:38:37Z</time>
      </trkpt>
      <trkpt lat="48.68133" lon="1.94614">
        <ele>62.62</ele>
        <time>2012-05-13T09:38:46Z</time>
      </trkpt>
      <trkpt lat="48.68133" lon="1.94596">
        <ele>61.18</ele>
        <time>2012-05-13T09:38:59Z</time>
      </trkpt>
      <trkpt lat="48.68131" lon="1.94583">
        <ele>61.18</ele>
        <time>2012-05-13T09:39:06Z</time>
      </trkpt>
      <trkpt lat="48.68131" lon="1.94564">
        <ele>60.7</ele>
        <time>2012-05-13T09:39:20Z</time>
      </trkpt>
      <trkpt lat="48.68135" lon="1.94539">
        <ele>60.22</ele>
        <time>2012-05-13T09:39:33Z</time>
      </trkpt>
      <trkpt lat="48.68142" lon="1.94518">
        <ele>60.22</ele>
        <time>2012-05-13T09:39:49Z</time>
      </trkpt>
      <trkpt lat="48.68143" lon="1.94495">
        <ele>60.22</ele>
        <time>2012-05-13T09:40:02Z</time>
      </trkpt>
      <trkpt lat="48.68151" lon="1.9448">
        <ele>60.22</ele>
        <time>2012-05-13T09:40:14Z</time>
      </trkpt>
      <trkpt lat="48.68159" lon="1.94473">
        <ele>60.7</ele>
        <time>2012-05-13T09:40:27Z</time>
      </trkpt>
      <trkpt lat="48.68171" lon="1.9446">
        <ele>61.18</ele>
        <time>2012-05-13T09:40:42Z</time>
      </trkpt>
      <trkpt lat="48.68185" lon="1.94456">
        <ele>61.18</ele>
        <time>2012-05-13T09:40:54Z</time>
      </trkpt>
      <trkpt lat="48.68197" lon="1.9445">
        <ele>61.18</ele>
        <time>2012-05-13T09:41:09Z</time>
      </trkpt>
      <trkpt lat="48.68208" lon="1.94448">
        <ele>61.66</ele>
        <time>2012-05-13T09:41:20Z</time>
      </trkpt>
      <trkpt lat="48.6822" lon="1.94444">
        <ele>63.1</ele>
        <time>2012-05-13T09:41:34Z</time>
      </trkpt>
      <trkpt lat="48.6823" lon="1.94432">
        <ele>63.1</ele>
        <time>2012-05-13T09:41:48Z</time>
      </trkpt>
      <trkpt lat="48.68242" lon="1.94412">
        <ele>64.07</ele>
        <time>2012-05-13T09:42:03Z</time>
      </trkpt>
      <trkpt lat="48.68247" lon="1.94401">
        <ele>63.58</ele>
        <time>2012-05-13T09:42:13Z</time>
      </trkpt>
      <trkpt lat="48.68255" lon="1.94375">
        <ele>63.58</ele>
        <time>2012-05-13T09:42:29Z</time>
      </trkpt>
      <trkpt lat="48.68263" lon="1.94351">
        <ele>64.55</ele>
        <time>2012-05-13T09:42:43Z</time>
      </trkpt>
      <trkpt lat="48.6826" lon="1.94339">
        <ele>64.07</ele>
        <time>2012-05-13T09:42:48Z</time>
      </trkpt>
      <trkpt lat="48.68267" lon="1.94318">
        <ele>65.03</ele>
        <time>2012-05-13T09:43:03Z</time>
      </trkpt>
      <trkpt lat="48.68279" lon="1.9429">
        <ele>65.51</ele>
        <time>2012-05-13T09:43:17Z</time>
      </trkpt>
      <trkpt lat="48.68285" lon="1.94276">
        <ele>65.99</ele>
        <time>2012-05-13T09:43:28Z</time>
      </trkpt>
      <trkpt lat="48.68286" lon="1.94256">
        <ele>65.51</ele>
        <time>2012-05-13T09:43:42Z</time>
      </trkpt>
      <trkpt lat="48.68289" lon="1.94233">
        <ele>65.99</ele>
        <time>2012-05-13T09:43:57Z</time>
      </trkpt>
      <trkpt lat="48.68297" lon="1.94217">
        <ele>66.95</ele>
        <time>2012-05-13T09:44:12Z</time>
      </trkpt>
      <trkpt lat="48.683" lon="1.94206">
        <ele>67.43</ele>
        <time>2012-05-13T09:44:22Z</time>
      </trkpt>
      <trkpt lat="48.68307" lon="1.94189">
        <ele>68.39</ele>
        <time>2012-05-13T09:44:34Z</time>
      </trkpt>
      <trkpt lat="48.68316" lon="1.94166">
        <ele>68.87</ele>
        <time>2012-05-13T09:44:48Z</time>
      </trkpt>
      <trkpt lat="48.68321" lon="1.94147">
        <ele>68.87</ele>
        <time>2012-05-13T09:45:01Z</time>
      </trkpt>
      <trkpt lat="48.68325" lon="1.94125">
        <ele>69.35</ele>
        <time>2012-05-13T09:45:13Z</time>
      </trkpt>
      <trkpt lat="48.68327" lon="1.94101">
        <ele>69.83</ele>
        <time>2012-05-13T09:45:28Z</time>
      </trkpt>
      <trkpt lat="48.68335" lon="1.94075">
        <ele>70.31</ele>
        <time>2012-05-13T09:45:46Z</time>
      </trkpt>
      <trkpt lat="48.68344" lon="1.94044">
        <ele>70.31</ele>
        <time>2012-05-13T09:46:00Z</time>
      </trkpt>
      <trkpt lat="48.68348" lon="1.94028">
        <ele>69.83</ele>
        <time>2012-05-13T09:46:10Z</time>
      </trkpt>
      <trkpt lat="48.6835" lon="1.94023">
        <ele>70.31</ele>
        <time>2012-05-13T09:46:13Z</time>
      </trkpt>
      <trkpt lat="48.68359" lon="1.94002">
        <ele>70.79</ele>
        <time>2012-05-13T09:46:27Z</time>
      </trkpt>
      <trkpt lat="48.68365" lon="1.93992">
        <ele>70.31</ele>
        <time>2012-05-13T09:46:36Z</time>
      </trkpt>
      <trkpt lat="48.68369" lon="1.93987">
        <ele>70.79</ele>
        <time>2012-05-13T09:46:41Z</time>
      </trkpt>
      <trkpt lat="48.68373" lon="1.93984">
        <ele>70.79</ele>
        <time>2012-05-13T09:46:45Z</time>
      </trkpt>
      <trkpt lat="48.68383" lon="1.93963">
        <ele>71.76</ele>
        <time>2012-05-13T09:46:58Z</time>
      </trkpt>
      <trkpt lat="48.68386" lon="1.9396">
        <ele>71.76</ele>
        <time>2012-05-13T09:47:01Z</time>
      </trkpt>
      <trkpt lat="48.68395" lon="1.93951">
        <ele>71.76</ele>
        <time>2012-05-13T09:47:09Z</time>
      </trkpt>
      <trkpt lat="48.68414" lon="1.93937">
        <ele>72.72</ele>
        <time>2012-05-13T09:47:27Z</time>
      </trkpt>
      <trkpt lat="48.6842" lon="1.93926">
        <ele>73.68</ele>
        <time>2012-05-13T09:47:43Z</time>
      </trkpt>
      <trkpt lat="48.6842" lon="1.93926">
        <ele>74.64</ele>
        <time>2012-05-13T09:48:03Z</time>
      </trkpt>
      <trkpt lat="48.68421" lon="1.93926">
        <ele>75.12</ele>
        <time>2012-05-13T09:48:20Z</time>
      </trkpt>
      <trkpt lat="48.68422" lon="1.93924">
        <ele>75.12</ele>
        <time>2012-05-13T09:48:22Z</time>
      </trkpt>
      <trkpt lat="48.68424" lon="1.93922">
        <ele>75.12</ele>
        <time>2012-05-13T09:48:25Z</time>
      </trkpt>
      <trkpt lat="48.68429" lon="1.93907">
        <ele>74.64</ele>
        <time>2012-05-13T09:48:34Z</time>
      </trkpt>
      <trkpt lat="48.68436" lon="1.93889">
        <ele>75.12</ele>
        <time>2012-05-13T09:48:47Z</time>
      </trkpt>
      <trkpt lat="48.68442" lon="1.9388">
        <ele>75.12</ele>
        <time>2012-05-13T09:48:54Z</time>
      </trkpt>
      <trkpt lat="48.68445" lon="1.93873">
        <ele>76.08</ele>
        <time>2012-05-13T09:48:59Z</time>
      </trkpt>
      <trkpt lat="48.68459" lon="1.93854">
        <ele>76.08</ele>
        <time>2012-05-13T09:49:14Z</time>
      </trkpt>
      <trkpt lat="48.68461" lon="1.9385">
        <ele>76.56</ele>
        <time>2012-05-13T09:49:17Z</time>
      </trkpt>
      <trkpt lat="48.68469" lon="1.9384">
        <ele>77.04</ele>
        <time>2012-05-13T09:49:26Z</time>
      </trkpt>
      <trkpt lat="48.68478" lon="1.93823">
        <ele>76.56</ele>
        <time>2012-05-13T09:49:38Z</time>
      </trkpt>
      <trkpt lat="48.6848" lon="1.93819">
        <ele>77.04</ele>
        <time>2012-05-13T09:49:41Z</time>
      </trkpt>
      <trkpt lat="48.68485" lon="1.9381">
        <ele>76.56</ele>
        <time>2012-05-13T09:49:47Z</time>
      </trkpt>
      <trkpt lat="48.6849" lon="1.93793">
        <ele>77.04</ele>
        <time>2012-05-13T09:49:56Z</time>
      </trkpt>
      <trkpt lat="48.68493" lon="1.93769">
        <ele>77.04</ele>
        <time>2012-05-13T09:50:09Z</time>
      </trkpt>
      <trkpt lat="48.68494" lon="1.93754">
        <ele>78</ele>
        <time>2012-05-13T09:50:22Z</time>
      </trkpt>
      <trkpt lat="48.68494" lon="1.93754">
        <ele>78</ele>
        <time>2012-05-13T09:50:35Z</time>
      </trkpt>
      <trkpt lat="48.68493" lon="1.93754">
        <ele>78.48</ele>
        <time>2012-05-13T09:50:57Z</time>
      </trkpt>
      <trkpt lat="48.68494" lon="1.93752">
        <ele>78.97</ele>
        <time>2012-05-13T09:51:25Z</time>
      </trkpt>
      <trkpt lat="48.68494" lon="1.93752">
        <ele>79.93</ele>
        <time>2012-05-13T09:51:41Z</time>
      </trkpt>
      <trkpt lat="48.68502" lon="1.93736">
        <ele>79.93</ele>
        <time>2012-05-13T09:51:53Z</time>
      </trkpt>
      <trkpt lat="48.68502" lon="1.93731">
        <ele>80.41</ele>
        <time>2012-05-13T09:51:56Z</time>
      </trkpt>
      <trkpt lat="48.68503" lon="1.93722">
        <ele>79.93</ele>
        <time>2012-05-13T09:52:03Z</time>
      </trkpt>
      <trkpt lat="48.68503" lon="1.93718">
        <ele>80.41</ele>
        <time>2012-05-13T09:52:05Z</time>
      </trkpt>
      <trkpt lat="48.68504" lon="1.93702">
        <ele>80.89</ele>
        <time>2012-05-13T09:52:21Z</time>
      </trkpt>
      <trkpt lat="48.68506" lon="1.93697">
        <ele>80.41</ele>
        <time>2012-05-13T09:52:29Z</time>
      </trkpt>
      <trkpt lat="48.68511" lon="1.93678">
        <ele>81.37</ele>
        <time>2012-05-13T09:52:42Z</time>
      </trkpt>
      <trkpt lat="48.68511" lon="1.93675">
        <ele>80.89</ele>
        <time>2012-05-13T09:52:44Z</time>
      </trkpt>
      <trkpt lat="48.68512" lon="1.93672">
        <ele>80.89</ele>
        <time>2012-05-13T09:52:46Z</time>
      </trkpt>
      <trkpt lat="48.68513" lon="1.93657">
        <ele>80.41</ele>
        <time>2012-05-13T09:52:55Z</time>
      </trkpt>
      <trkpt lat="48.68515" lon="1.93652">
        <ele>80.89</ele>
        <time>2012-05-13T09:52:58Z</time>
      </trkpt>
      <trkpt lat="48.68518" lon="1.93644">
        <ele>80.89</ele>
        <time>2012-05-13T09:53:02Z</time>
      </trkpt>
      <trkpt lat="48.68523" lon="1.93633">
        <ele>80.89</ele>
        <time>2012-05-13T09:53:08Z</time>
      </trkpt>
      <trkpt lat="48.68524" lon="1.93629">
        <ele>80.89</ele>
        <time>2012-05-13T09:53:10Z</time>
      </trkpt>
      <trkpt lat="48.68529" lon="1.93613">
        <ele>81.37</ele>
        <time>2012-05-13T09:53:19Z</time>
      </trkpt>
      <trkpt lat="48.68537" lon="1.93604">
        <ele>81.85</ele>
        <time>2012-05-13T09:53:26Z</time>
      </trkpt>
      <trkpt lat="48.68543" lon="1.93601">
        <ele>81.85</ele>
        <time>2012-05-13T09:53:32Z</time>
      </trkpt>
      <trkpt lat="48.68545" lon="1.93597">
        <ele>81.85</ele>
        <time>2012-05-13T09:53:35Z</time>
      </trkpt>
      <trkpt lat="48.68557" lon="1.93578">
        <ele>82.81</ele>
        <time>2012-05-13T09:53:48Z</time>
      </trkpt>
      <trkpt lat="48.68562" lon="1.93559">
        <ele>83.29</ele>
        <time>2012-05-13T09:54:01Z</time>
      </trkpt>
      <trkpt lat="48.68562" lon="1.93558">
        <ele>83.29</ele>
        <time>2012-05-13T09:54:02Z</time>
      </trkpt>
      <trkpt lat="48.68563" lon="1.93552">
        <ele>83.29</ele>
        <time>2012-05-13T09:54:05Z</time>
      </trkpt>
      <trkpt lat="48.68567" lon="1.93532">
        <ele>84.25</ele>
        <time>2012-05-13T09:54:17Z</time>
      </trkpt>
      <trkpt lat="48.6857" lon="1.93506">
        <ele>85.69</ele>
        <time>2012-05-13T09:54:30Z</time>
      </trkpt>
      <trkpt lat="48.68576" lon="1.93485">
        <ele>87.14</ele>
        <time>2012-05-13T09:54:44Z</time>
      </trkpt>
      <trkpt lat="48.68579" lon="1.93479">
        <ele>87.62</ele>
        <time>2012-05-13T09:54:48Z</time>
      </trkpt>
      <trkpt lat="48.68587" lon="1.93465">
        <ele>89.06</ele>
        <time>2012-05-13T09:54:58Z</time>
      </trkpt>
      <trkpt lat="48.68599" lon="1.93452">
        <ele>90.02</ele>
        <time>2012-05-13T09:55:11Z</time>
      </trkpt>
      <trkpt lat="48.68603" lon="1.9345">
        <ele>90.98</ele>
        <time>2012-05-13T09:55:17Z</time>
      </trkpt>
      <trkpt lat="48.68611" lon="1.93428">
        <ele>91.94</ele>
        <time>2012-05-13T09:55:32Z</time>
      </trkpt>
      <trkpt lat="48.68612" lon="1.93426">
        <ele>92.42</ele>
        <time>2012-05-13T09:55:34Z</time>
      </trkpt>
      <trkpt lat="48.68614" lon="1.93419">
        <ele>92.9</ele>
        <time>2012-05-13T09:55:39Z</time>
      </trkpt>
      <trkpt lat="48.68617" lon="1.93412">
        <ele>93.39</ele>
        <time>2012-05-13T09:55:43Z</time>
      </trkpt>
      <trkpt lat="48.68621" lon="1.93404">
        <ele>94.35</ele>
        <time>2012-05-13T09:55:50Z</time>
      </trkpt>
      <trkpt lat="48.68633" lon="1.93389">
        <ele>93.87</ele>
        <time>2012-05-13T09:56:04Z</time>
      </trkpt>
      <trkpt lat="48.68639" lon="1.93386">
        <ele>94.35</ele>
        <time>2012-05-13T09:56:10Z</time>
      </trkpt>
      <trkpt lat="48.68641" lon="1.93386">
        <ele>94.35</ele>
        <time>2012-05-13T09:56:12Z</time>
      </trkpt>
      <trkpt lat="48.68654" lon="1.93379">
        <ele>92.42</ele>
        <time>2012-05-13T09:56:25Z</time>
      </trkpt>
      <trkpt lat="48.68658" lon="1.93376">
        <ele>91.94</ele>
        <time>2012-05-13T09:56:29Z</time>
      </trkpt>
      <trkpt lat="48.68667" lon="1.93367">
        <ele>91.94</ele>
        <time>2012-05-13T09:56:38Z</time>
      </trkpt>
      <trkpt lat="48.68668" lon="1.93355">
        <ele>91.94</ele>
        <time>2012-05-13T09:56:46Z</time>
      </trkpt>
      <trkpt lat="48.68662" lon="1.93337">
        <ele>91.94</ele>
        <time>2012-05-13T09:56:59Z</time>
      </trkpt>
      <trkpt lat="48.68656" lon="1.93325">
        <ele>91.94</ele>
        <time>2012-05-13T09:57:06Z</time>
      </trkpt>
      <trkpt lat="48.68649" lon="1.93302">
        <ele>91.94</ele>
        <time>2012-05-13T09:57:20Z</time>
      </trkpt>
      <trkpt lat="48.68648" lon="1.93299">
        <ele>92.42</ele>
        <time>2012-05-13T09:57:22Z</time>
      </trkpt>
      <trkpt lat="48.68643" lon="1.93279">
        <ele>93.87</ele>
        <time>2012-05-13T09:57:34Z</time>
      </trkpt>
      <trkpt lat="48.68642" lon="1.93272">
        <ele>93.39</ele>
        <time>2012-05-13T09:57:38Z</time>
      </trkpt>
      <trkpt lat="48.68642" lon="1.93266">
        <ele>93.87</ele>
        <time>2012-05-13T09:57:41Z</time>
      </trkpt>
      <trkpt lat="48.68643" lon="1.93256">
        <ele>93.87</ele>
        <time>2012-05-13T09:57:47Z</time>
      </trkpt>
      <trkpt lat="48.68643" lon="1.93253">
        <ele>94.35</ele>
        <time>2012-05-13T09:57:49Z</time>
      </trkpt>
      <trkpt lat="48.68643" lon="1.93248">
        <ele>93.87</ele>
        <time>2012-05-13T09:57:52Z</time>
      </trkpt>
      <trkpt lat="48.68649" lon="1.93226">
        <ele>94.83</ele>
        <time>2012-05-13T09:58:04Z</time>
      </trkpt>
      <trkpt lat="48.68652" lon="1.93217">
        <ele>95.31</ele>
        <time>2012-05-13T09:58:11Z</time>
      </trkpt>
      <trkpt lat="48.68654" lon="1.93208">
        <ele>94.83</ele>
        <time>2012-05-13T09:58:15Z</time>
      </trkpt>
      <trkpt lat="48.68655" lon="1.93204">
        <ele>95.31</ele>
        <time>2012-05-13T09:58:17Z</time>
      </trkpt>
      <trkpt lat="48.68658" lon="1.93196">
        <ele>95.31</ele>
        <time>2012-05-13T09:58:22Z</time>
      </trkpt>
      <trkpt lat="48.68661" lon="1.93182">
        <ele>95.79</ele>
        <time>2012-05-13T09:58:30Z</time>
      </trkpt>
      <trkpt lat="48.6866" lon="1.93175">
        <ele>95.79</ele>
        <time>2012-05-13T09:58:34Z</time>
      </trkpt>
      <trkpt lat="48.68659" lon="1.93167">
        <ele>95.79</ele>
        <time>2012-05-13T09:58:37Z</time>
      </trkpt>
      <trkpt lat="48.6866" lon="1.93142">
        <ele>96.75</ele>
        <time>2012-05-13T09:58:49Z</time>
      </trkpt>
      <trkpt lat="48.68661" lon="1.93138">
        <ele>96.27</ele>
        <time>2012-05-13T09:58:51Z</time>
      </trkpt>
      <trkpt lat="48.68662" lon="1.93112">
        <ele>95.31</ele>
        <time>2012-05-13T09:59:04Z</time>
      </trkpt>
      <trkpt lat="48.68665" lon="1.93095">
        <ele>94.83</ele>
        <time>2012-05-13T09:59:14Z</time>
      </trkpt>
      <trkpt lat="48.68668" lon="1.93069">
        <ele>94.83</ele>
        <time>2012-05-13T09:59:28Z</time>
      </trkpt>
      <trkpt lat="48.68667" lon="1.93066">
        <ele>94.83</ele>
        <time>2012-05-13T09:59:30Z</time>
      </trkpt>
      <trkpt lat="48.68668" lon="1.93062">
        <ele>94.83</ele>
        <time>2012-05-13T09:59:32Z</time>
      </trkpt>
      <trkpt lat="48.68672" lon="1.93029">
        <ele>93.87</ele>
        <time>2012-05-13T09:59:49Z</time>
      </trkpt>
      <trkpt lat="48.68674" lon="1.93007">
        <ele>93.39</ele>
        <time>2012-05-13T10:00:02Z</time>
      </trkpt>
      <trkpt lat="48.68679" lon="1.92987">
        <ele>93.39</ele>
        <time>2012-05-13T10:00:15Z</time>
      </trkpt>
      <trkpt lat="48.68689" lon="1.92962">
        <ele>92.9</ele>
        <time>2012-05-13T10:00:31Z</time>
      </trkpt>
      <trkpt lat="48.68694" lon="1.92946">
        <ele>92.42</ele>
        <time>2012-05-13T10:00:40Z</time>
      </trkpt>
      <trkpt lat="48.68697" lon="1.92939">
        <ele>92.9</ele>
        <time>2012-05-13T10:00:46Z</time>
      </trkpt>
      <trkpt lat="48.68701" lon="1.92927">
        <ele>92.9</ele>
        <time>2012-05-13T10:00:55Z</time>
      </trkpt>
      <trkpt lat="48.68705" lon="1.92917">
        <ele>93.39</ele>
        <time>2012-05-13T10:01:01Z</time>
      </trkpt>
      <trkpt lat="48.68714" lon="1.92898">
        <ele>93.87</ele>
        <time>2012-05-13T10:01:13Z</time>
      </trkpt>
      <trkpt lat="48.68717" lon="1.92892">
        <ele>93.39</ele>
        <time>2012-05-13T10:01:18Z</time>
      </trkpt>
      <trkpt lat="48.68726" lon="1.9287">
        <ele>94.35</ele>
        <time>2012-05-13T10:01:33Z</time>
      </trkpt>
      <trkpt lat="48.68734" lon="1.92844">
        <ele>93.87</ele>
        <time>2012-05-13T10:01:46Z</time>
      </trkpt>
      <trkpt lat="48.68735" lon="1.9284">
        <ele>94.83</ele>
        <time>2012-05-13T10:01:50Z</time>
      </trkpt>
      <trkpt lat="48.68743" lon="1.92821">
        <ele>94.83</ele>
        <time>2012-05-13T10:02:04Z</time>
      </trkpt>
      <trkpt lat="48.68744" lon="1.92816">
        <ele>94.83</ele>
        <time>2012-05-13T10:02:07Z</time>
      </trkpt>
      <trkpt lat="48.68755" lon="1.92791">
        <ele>95.31</ele>
        <time>2012-05-13T10:02:24Z</time>
      </trkpt>
      <trkpt lat="48.68764" lon="1.92764">
        <ele>96.27</ele>
        <time>2012-05-13T10:02:38Z</time>
      </trkpt>
      <trkpt lat="48.6877" lon="1.9275">
        <ele>96.75</ele>
        <time>2012-05-13T10:02:48Z</time>
      </trkpt>
      <trkpt lat="48.68772" lon="1.92747">
        <ele>96.75</ele>
        <time>2012-05-13T10:02:50Z</time>
      </trkpt>
      <trkpt lat="48.68778" lon="1.92733">
        <ele>97.23</ele>
        <time>2012-05-13T10:02:58Z</time>
      </trkpt>
      <trkpt lat="48.68782" lon="1.92716">
        <ele>97.23</ele>
        <time>2012-05-13T10:03:08Z</time>
      </trkpt>
      <trkpt lat="48.68786" lon="1.92693">
        <ele>98.19</ele>
        <time>2012-05-13T10:03:22Z</time>
      </trkpt>
      <trkpt lat="48.6879" lon="1.92684">
        <ele>97.71</ele>
        <time>2012-05-13T10:03:28Z</time>
      </trkpt>
      <trkpt lat="48.68791" lon="1.92678">
        <ele>98.67</ele>
        <time>2012-05-13T10:03:32Z</time>
      </trkpt>
      <trkpt lat="48.68797" lon="1.92663">
        <ele>98.67</ele>
        <time>2012-05-13T10:03:44Z</time>
      </trkpt>
      <trkpt lat="48.68803" lon="1.92653">
        <ele>99.15</ele>
        <time>2012-05-13T10:03:53Z</time>
      </trkpt>
      <trkpt lat="48.68821" lon="1.92634">
        <ele>99.15</ele>
        <time>2012-05-13T10:04:09Z</time>
      </trkpt>
      <trkpt lat="48.68826" lon="1.92628">
        <ele>99.15</ele>
        <time>2012-05-13T10:04:15Z</time>
      </trkpt>
      <trkpt lat="48.68831" lon="1.9262">
        <ele>99.15</ele>
        <time>2012-05-13T10:04:20Z</time>
      </trkpt>
      <trkpt lat="48.68841" lon="1.9261">
        <ele>99.63</ele>
        <time>2012-05-13T10:04:32Z</time>
      </trkpt>
      <trkpt lat="48.68842" lon="1.92608">
        <ele>99.63</ele>
        <time>2012-05-13T10:04:51Z</time>
      </trkpt>
      <trkpt lat="48.68845" lon="1.92602">
        <ele>100.11</ele>
        <time>2012-05-13T10:05:04Z</time>
      </trkpt>
      <trkpt lat="48.68852" lon="1.9259">
        <ele>100.11</ele>
        <time>2012-05-13T10:05:09Z</time>
      </trkpt>
      <trkpt lat="48.68854" lon="1.92588">
        <ele>99.63</ele>
        <time>2012-05-13T10:05:11Z</time>
      </trkpt>
      <trkpt lat="48.68863" lon="1.92566">
        <ele>100.6</ele>
        <time>2012-05-13T10:05:27Z</time>
      </trkpt>
      <trkpt lat="48.68866" lon="1.92546">
        <ele>100.11</ele>
        <time>2012-05-13T10:05:41Z</time>
      </trkpt>
      <trkpt lat="48.68871" lon="1.92523">
        <ele>101.08</ele>
        <time>2012-05-13T10:05:53Z</time>
      </trkpt>
      <trkpt lat="48.68867" lon="1.92508">
        <ele>102.52</ele>
        <time>2012-05-13T10:06:04Z</time>
      </trkpt>
      <trkpt lat="48.68862" lon="1.92498">
        <ele>104.92</ele>
        <time>2012-05-13T10:06:18Z</time>
      </trkpt>
      <trkpt lat="48.68855" lon="1.92489">
        <ele>104.44</ele>
        <time>2012-05-13T10:06:27Z</time>
      </trkpt>
      <trkpt lat="48.68853" lon="1.92485">
        <ele>103.96</ele>
        <time>2012-05-13T10:06:39Z</time>
      </trkpt>
      <trkpt lat="48.68853" lon="1.92479">
        <ele>103.96</ele>
        <time>2012-05-13T10:06:51Z</time>
      </trkpt>
      <trkpt lat="48.68859" lon="1.92463">
        <ele>103.96</ele>
        <time>2012-05-13T10:07:04Z</time>
      </trkpt>
      <trkpt lat="48.6886" lon="1.9246">
        <ele>103.96</ele>
        <time>2012-05-13T10:07:06Z</time>
      </trkpt>
      <trkpt lat="48.68872" lon="1.92442">
        <ele>102.04</ele>
        <time>2012-05-13T10:07:23Z</time>
      </trkpt>
      <trkpt lat="48.68874" lon="1.92439">
        <ele>101.56</ele>
        <time>2012-05-13T10:07:26Z</time>
      </trkpt>
      <trkpt lat="48.6888" lon="1.92436">
        <ele>101.08</ele>
        <time>2012-05-13T10:07:32Z</time>
      </trkpt>
      <trkpt lat="48.6889" lon="1.9242">
        <ele>101.56</ele>
        <time>2012-05-13T10:07:45Z</time>
      </trkpt>
      <trkpt lat="48.68891" lon="1.92417">
        <ele>101.56</ele>
        <time>2012-05-13T10:07:48Z</time>
      </trkpt>
      <trkpt lat="48.689" lon="1.92407">
        <ele>102.04</ele>
        <time>2012-05-13T10:07:57Z</time>
      </trkpt>
      <trkpt lat="48.68911" lon="1.92394">
        <ele>102.52</ele>
        <time>2012-05-13T10:08:10Z</time>
      </trkpt>
      <trkpt lat="48.68913" lon="1.92385">
        <ele>102.52</ele>
        <time>2012-05-13T10:08:14Z</time>
      </trkpt>
      <trkpt lat="48.68916" lon="1.92378">
        <ele>102.52</ele>
        <time>2012-05-13T10:08:19Z</time>
      </trkpt>
      <trkpt lat="48.68924" lon="1.92362">
        <ele>103.96</ele>
        <time>2012-05-13T10:08:32Z</time>
      </trkpt>
      <trkpt lat="48.68928" lon="1.92357">
        <ele>103.96</ele>
        <time>2012-05-13T10:08:37Z</time>
      </trkpt>
      <trkpt lat="48.6893" lon="1.92355">
        <ele>103.96</ele>
        <time>2012-05-13T10:08:39Z</time>
      </trkpt>
      <trkpt lat="48.6894" lon="1.92343">
        <ele>100.6</ele>
        <time>2012-05-13T10:08:53Z</time>
      </trkpt>
      <trkpt lat="48.68951" lon="1.92338">
        <ele>99.15</ele>
        <time>2012-05-13T10:09:06Z</time>
      </trkpt>
      <trkpt lat="48.68969" lon="1.92333">
        <ele>99.15</ele>
        <time>2012-05-13T10:09:20Z</time>
      </trkpt>
      <trkpt lat="48.68976" lon="1.92329">
        <ele>100.11</ele>
        <time>2012-05-13T10:09:32Z</time>
      </trkpt>
      <trkpt lat="48.6898" lon="1.92321">
        <ele>101.08</ele>
        <time>2012-05-13T10:09:44Z</time>
      </trkpt>
      <trkpt lat="48.68979" lon="1.92305">
        <ele>101.08</ele>
        <time>2012-05-13T10:09:56Z</time>
      </trkpt>
      <trkpt lat="48.68978" lon="1.92303">
        <ele>100.6</ele>
        <time>2012-05-13T10:10:11Z</time>
      </trkpt>
      <trkpt lat="48.68978" lon="1.92298">
        <ele>101.08</ele>
        <time>2012-05-13T10:10:25Z</time>
      </trkpt>
      <trkpt lat="48.68977" lon="1.92283">
        <ele>101.08</ele>
        <time>2012-05-13T10:10:31Z</time>
      </trkpt>
      <trkpt lat="48.68976" lon="1.92256">
        <ele>101.56</ele>
        <time>2012-05-13T10:10:47Z</time>
      </trkpt>
      <trkpt lat="48.68978" lon="1.92236">
        <ele>101.08</ele>
        <time>2012-05-13T10:10:59Z</time>
      </trkpt>
      <trkpt lat="48.68976" lon="1.92213">
        <ele>101.08</ele>
        <time>2012-05-13T10:11:12Z</time>
      </trkpt>
      <trkpt lat="48.68979" lon="1.92188">
        <ele>101.08</ele>
        <time>2012-05-13T10:11:27Z</time>
      </trkpt>
      <trkpt lat="48.6898" lon="1.92181">
        <ele>101.56</ele>
        <time>2012-05-13T10:11:31Z</time>
      </trkpt>
      <trkpt lat="48.68987" lon="1.92153">
        <ele>101.56</ele>
        <time>2012-05-13T10:11:47Z</time>
      </trkpt>
      <trkpt lat="48.68987" lon="1.92143">
        <ele>101.56</ele>
        <time>2012-05-13T10:11:55Z</time>
      </trkpt>
      <trkpt lat="48.68995" lon="1.92128">
        <ele>102.04</ele>
        <time>2012-05-13T10:12:07Z</time>
      </trkpt>
      <trkpt lat="48.68996" lon="1.92106">
        <ele>102.04</ele>
        <time>2012-05-13T10:12:21Z</time>
      </trkpt>
      <trkpt lat="48.68998" lon="1.9209">
        <ele>102.04</ele>
        <time>2012-05-13T10:12:28Z</time>
      </trkpt>
      <trkpt lat="48.68999" lon="1.9208">
        <ele>102.04</ele>
        <time>2012-05-13T10:12:36Z</time>
      </trkpt>
      <trkpt lat="48.69002" lon="1.92077">
        <ele>102.04</ele>
        <time>2012-05-13T10:12:39Z</time>
      </trkpt>
      <trkpt lat="48.69006" lon="1.92052">
        <ele>101.56</ele>
        <time>2012-05-13T10:12:51Z</time>
      </trkpt>
      <trkpt lat="48.69007" lon="1.92047">
        <ele>102.04</ele>
        <time>2012-05-13T10:12:55Z</time>
      </trkpt>
      <trkpt lat="48.69006" lon="1.92029">
        <ele>101.56</ele>
        <time>2012-05-13T10:13:08Z</time>
      </trkpt>
      <trkpt lat="48.69007" lon="1.92028">
        <ele>101.56</ele>
        <time>2012-05-13T10:13:09Z</time>
      </trkpt>
      <trkpt lat="48.69015" lon="1.92016">
        <ele>102.52</ele>
        <time>2012-05-13T10:13:20Z</time>
      </trkpt>
      <trkpt lat="48.69023" lon="1.91992">
        <ele>103.48</ele>
        <time>2012-05-13T10:13:35Z</time>
      </trkpt>
      <trkpt lat="48.69028" lon="1.91974">
        <ele>103.48</ele>
        <time>2012-05-13T10:13:47Z</time>
      </trkpt>
      <trkpt lat="48.69044" lon="1.91957">
        <ele>103.96</ele>
        <time>2012-05-13T10:14:03Z</time>
      </trkpt>
      <trkpt lat="48.6905" lon="1.91945">
        <ele>103.96</ele>
        <time>2012-05-13T10:14:11Z</time>
      </trkpt>
      <trkpt lat="48.69053" lon="1.91934">
        <ele>104.44</ele>
        <time>2012-05-13T10:14:18Z</time>
      </trkpt>
      <trkpt lat="48.69054" lon="1.91924">
        <ele>103.96</ele>
        <time>2012-05-13T10:14:26Z</time>
      </trkpt>
      <trkpt lat="48.69056" lon="1.91918">
        <ele>103.48</ele>
        <time>2012-05-13T10:14:29Z</time>
      </trkpt>
      <trkpt lat="48.6906" lon="1.91899">
        <ele>103.96</ele>
        <time>2012-05-13T10:14:43Z</time>
      </trkpt>
      <trkpt lat="48.69065" lon="1.91889">
        <ele>104.44</ele>
        <time>2012-05-13T10:14:50Z</time>
      </trkpt>
      <trkpt lat="48.69075" lon="1.91863">
        <ele>105.4</ele>
        <time>2012-05-13T10:15:05Z</time>
      </trkpt>
      <trkpt lat="48.69085" lon="1.91843">
        <ele>104.92</ele>
        <time>2012-05-13T10:15:19Z</time>
      </trkpt>
      <trkpt lat="48.6909" lon="1.91832">
        <ele>104.92</ele>
        <time>2012-05-13T10:15:30Z</time>
      </trkpt>
      <trkpt lat="48.69102" lon="1.91818">
        <ele>104.44</ele>
        <time>2012-05-13T10:15:44Z</time>
      </trkpt>
      <trkpt lat="48.69111" lon="1.91795">
        <ele>104.92</ele>
        <time>2012-05-13T10:15:58Z</time>
      </trkpt>
      <trkpt lat="48.69121" lon="1.91774">
        <ele>105.88</ele>
        <time>2012-05-13T10:16:13Z</time>
      </trkpt>
      <trkpt lat="48.69129" lon="1.91763">
        <ele>107.32</ele>
        <time>2012-05-13T10:16:24Z</time>
      </trkpt>
      <trkpt lat="48.69138" lon="1.91748">
        <ele>106.36</ele>
        <time>2012-05-13T10:16:35Z</time>
      </trkpt>
      <trkpt lat="48.69147" lon="1.91726">
        <ele>107.81</ele>
        <time>2012-05-13T10:16:48Z</time>
      </trkpt>
      <trkpt lat="48.69148" lon="1.91711">
        <ele>106.84</ele>
        <time>2012-05-13T10:16:58Z</time>
      </trkpt>
      <trkpt lat="48.69157" lon="1.91686">
        <ele>106.84</ele>
        <time>2012-05-13T10:17:12Z</time>
      </trkpt>
      <trkpt lat="48.69169" lon="1.91675">
        <ele>107.81</ele>
        <time>2012-05-13T10:17:23Z</time>
      </trkpt>
      <trkpt lat="48.69187" lon="1.91668">
        <ele>108.29</ele>
        <time>2012-05-13T10:17:38Z</time>
      </trkpt>
      <trkpt lat="48.69198" lon="1.91667">
        <ele>107.81</ele>
        <time>2012-05-13T10:17:48Z</time>
      </trkpt>
      <trkpt lat="48.69212" lon="1.91671">
        <ele>108.77</ele>
        <time>2012-05-13T10:18:01Z</time>
      </trkpt>
      <trkpt lat="48.69216" lon="1.91672">
        <ele>108.29</ele>
        <time>2012-05-13T10:18:12Z</time>
      </trkpt>
      <trkpt lat="48.69229" lon="1.91669">
        <ele>108.29</ele>
        <time>2012-05-13T10:18:26Z</time>
      </trkpt>
      <trkpt lat="48.69241" lon="1.91654">
        <ele>108.77</ele>
        <time>2012-05-13T10:18:41Z</time>
      </trkpt>
      <trkpt lat="48.69244" lon="1.91649">
        <ele>107.81</ele>
        <time>2012-05-13T10:18:46Z</time>
      </trkpt>
      <trkpt lat="48.6925" lon="1.91646">
        <ele>107.81</ele>
        <time>2012-05-13T10:18:52Z</time>
      </trkpt>
      <trkpt lat="48.69261" lon="1.91636">
        <ele>107.81</ele>
        <time>2012-05-13T10:19:05Z</time>
      </trkpt>
      <trkpt lat="48.69273" lon="1.9162">
        <ele>108.29</ele>
        <time>2012-05-13T10:19:19Z</time>
      </trkpt>
      <trkpt lat="48.69275" lon="1.91615">
        <ele>107.81</ele>
        <time>2012-05-13T10:19:23Z</time>
      </trkpt>
      <trkpt lat="48.69275" lon="1.91613">
        <ele>107.81</ele>
        <time>2012-05-13T10:19:25Z</time>
      </trkpt>
      <trkpt lat="48.69278" lon="1.91607">
        <ele>107.32</ele>
        <time>2012-05-13T10:19:29Z</time>
      </trkpt>
      <trkpt lat="48.69287" lon="1.91594">
        <ele>107.32</ele>
        <time>2012-05-13T10:19:39Z</time>
      </trkpt>
      <trkpt lat="48.69288" lon="1.91591">
        <ele>107.32</ele>
        <time>2012-05-13T10:19:42Z</time>
      </trkpt>
      <trkpt lat="48.69297" lon="1.91579">
        <ele>107.32</ele>
        <time>2012-05-13T10:19:56Z</time>
      </trkpt>
      <trkpt lat="48.693" lon="1.91571">
        <ele>107.32</ele>
        <time>2012-05-13T10:20:03Z</time>
      </trkpt>
      <trkpt lat="48.693" lon="1.91567">
        <ele>106.84</ele>
        <time>2012-05-13T10:20:05Z</time>
      </trkpt>
      <trkpt lat="48.69305" lon="1.91552">
        <ele>108.29</ele>
        <time>2012-05-13T10:20:14Z</time>
      </trkpt>
      <trkpt lat="48.69313" lon="1.91544">
        <ele>107.81</ele>
        <time>2012-05-13T10:20:24Z</time>
      </trkpt>
      <trkpt lat="48.69323" lon="1.91538">
        <ele>108.77</ele>
        <time>2012-05-13T10:20:37Z</time>
      </trkpt>
      <trkpt lat="48.69329" lon="1.91528">
        <ele>109.25</ele>
        <time>2012-05-13T10:20:50Z</time>
      </trkpt>
      <trkpt lat="48.6933" lon="1.91524">
        <ele>108.77</ele>
        <time>2012-05-13T10:20:53Z</time>
      </trkpt>
      <trkpt lat="48.69334" lon="1.91518">
        <ele>108.77</ele>
        <time>2012-05-13T10:20:58Z</time>
      </trkpt>
      <trkpt lat="48.69349" lon="1.91513">
        <ele>110.21</ele>
        <time>2012-05-13T10:21:14Z</time>
      </trkpt>
      <trkpt lat="48.69368" lon="1.91505">
        <ele>109.73</ele>
        <time>2012-05-13T10:21:30Z</time>
      </trkpt>
      <trkpt lat="48.69371" lon="1.91499">
        <ele>110.21</ele>
        <time>2012-05-13T10:21:45Z</time>
      </trkpt>
      <trkpt lat="48.69371" lon="1.91498">
        <ele>110.21</ele>
        <time>2012-05-13T10:21:52Z</time>
      </trkpt>
      <trkpt lat="48.69379" lon="1.91488">
        <ele>113.57</ele>
        <time>2012-05-13T10:22:06Z</time>
      </trkpt>
      <trkpt lat="48.69388" lon="1.91482">
        <ele>115.5</ele>
        <time>2012-05-13T10:22:18Z</time>
      </trkpt>
      <trkpt lat="48.69399" lon="1.91478">
        <ele>115.5</ele>
        <time>2012-05-13T10:22:26Z</time>
      </trkpt>
      <trkpt lat="48.69413" lon="1.91483">
        <ele>114.53</ele>
        <time>2012-05-13T10:22:39Z</time>
      </trkpt>
      <trkpt lat="48.69422" lon="1.91487">
        <ele>115.01</ele>
        <time>2012-05-13T10:22:54Z</time>
      </trkpt>
      <trkpt lat="48.69427" lon="1.91487">
        <ele>114.05</ele>
        <time>2012-05-13T10:23:07Z</time>
      </trkpt>
      <trkpt lat="48.69439" lon="1.91482">
        <ele>113.09</ele>
        <time>2012-05-13T10:23:14Z</time>
      </trkpt>
      <trkpt lat="48.69462" lon="1.91471">
        <ele>113.09</ele>
        <time>2012-05-13T10:23:28Z</time>
      </trkpt>
      <trkpt lat="48.6948" lon="1.91469">
        <ele>112.61</ele>
        <time>2012-05-13T10:23:43Z</time>
      </trkpt>
      <trkpt lat="48.69489" lon="1.91454">
        <ele>112.13</ele>
        <time>2012-05-13T10:23:57Z</time>
      </trkpt>
      <trkpt lat="48.69488" lon="1.91453">
        <ele>111.17</ele>
        <time>2012-05-13T10:23:58Z</time>
      </trkpt>
      <trkpt lat="48.69481" lon="1.9143">
        <ele>111.65</ele>
        <time>2012-05-13T10:24:12Z</time>
      </trkpt>
      <trkpt lat="48.69483" lon="1.9142">
        <ele>111.17</ele>
        <time>2012-05-13T10:24:18Z</time>
      </trkpt>
      <trkpt lat="48.69491" lon="1.91409">
        <ele>111.17</ele>
        <time>2012-05-13T10:24:31Z</time>
      </trkpt>
      <trkpt lat="48.69502" lon="1.91403">
        <ele>112.13</ele>
        <time>2012-05-13T10:24:43Z</time>
      </trkpt>
      <trkpt lat="48.69502" lon="1.91403">
        <ele>111.65</ele>
        <time>2012-05-13T10:24:45Z</time>
      </trkpt>
      <trkpt lat="48.69519" lon="1.91391">
        <ele>111.65</ele>
        <time>2012-05-13T10:24:54Z</time>
      </trkpt>
      <trkpt lat="48.69524" lon="1.91386">
        <ele>112.61</ele>
        <time>2012-05-13T10:25:00Z</time>
      </trkpt>
      <trkpt lat="48.69535" lon="1.91377">
        <ele>112.13</ele>
        <time>2012-05-13T10:25:10Z</time>
      </trkpt>
      <trkpt lat="48.69556" lon="1.91367">
        <ele>112.61</ele>
        <time>2012-05-13T10:25:25Z</time>
      </trkpt>
      <trkpt lat="48.69569" lon="1.9136">
        <ele>113.09</ele>
        <time>2012-05-13T10:25:38Z</time>
      </trkpt>
      <trkpt lat="48.69585" lon="1.91365">
        <ele>113.57</ele>
        <time>2012-05-13T10:25:51Z</time>
      </trkpt>
      <trkpt lat="48.69601" lon="1.91374">
        <ele>113.57</ele>
        <time>2012-05-13T10:26:05Z</time>
      </trkpt>
      <trkpt lat="48.69603" lon="1.91377">
        <ele>113.57</ele>
        <time>2012-05-13T10:26:08Z</time>
      </trkpt>
      <trkpt lat="48.69608" lon="1.91391">
        <ele>113.09</ele>
        <time>2012-05-13T10:26:15Z</time>
      </trkpt>
      <trkpt lat="48.69611" lon="1.91396">
        <ele>113.57</ele>
        <time>2012-05-13T10:26:18Z</time>
      </trkpt>
      <trkpt lat="48.6962" lon="1.91408">
        <ele>113.57</ele>
        <time>2012-05-13T10:26:30Z</time>
      </trkpt>
      <trkpt lat="48.69637" lon="1.914">
        <ele>113.57</ele>
        <time>2012-05-13T10:26:44Z</time>
      </trkpt>
      <trkpt lat="48.69648" lon="1.91405">
        <ele>114.05</ele>
        <time>2012-05-13T10:26:53Z</time>
      </trkpt>
      <trkpt lat="48.69662" lon="1.91401">
        <ele>114.53</ele>
        <time>2012-05-13T10:27:06Z</time>
      </trkpt>
      <trkpt lat="48.69677" lon="1.91402">
        <ele>114.53</ele>
        <time>2012-05-13T10:27:21Z</time>
      </trkpt>
      <trkpt lat="48.69695" lon="1.91401">
        <ele>114.53</ele>
        <time>2012-05-13T10:27:35Z</time>
      </trkpt>
      <trkpt lat="48.6971" lon="1.91404">
        <ele>114.53</ele>
        <time>2012-05-13T10:27:48Z</time>
      </trkpt>
      <trkpt lat="48.69716" lon="1.91402">
        <ele>115.01</ele>
        <time>2012-05-13T10:27:53Z</time>
      </trkpt>
      <trkpt lat="48.69723" lon="1.91401">
        <ele>115.5</ele>
        <time>2012-05-13T10:28:00Z</time>
      </trkpt>
      <trkpt lat="48.69739" lon="1.91398">
        <ele>116.46</ele>
        <time>2012-05-13T10:28:13Z</time>
      </trkpt>
      <trkpt lat="48.6974" lon="1.91398">
        <ele>116.46</ele>
        <time>2012-05-13T10:28:14Z</time>
      </trkpt>
      <trkpt lat="48.69754" lon="1.91399">
        <ele>117.9</ele>
        <time>2012-05-13T10:28:27Z</time>
      </trkpt>
      <trkpt lat="48.69768" lon="1.91406">
        <ele>118.86</ele>
        <time>2012-05-13T10:28:39Z</time>
      </trkpt>
      <trkpt lat="48.6977" lon="1.91406">
        <ele>118.38</ele>
        <time>2012-05-13T10:28:40Z</time>
      </trkpt>
      <trkpt lat="48.69787" lon="1.91417">
        <ele>116.46</ele>
        <time>2012-05-13T10:28:54Z</time>
      </trkpt>
      <trkpt lat="48.69789" lon="1.91419">
        <ele>115.98</ele>
        <time>2012-05-13T10:28:57Z</time>
      </trkpt>
      <trkpt lat="48.69793" lon="1.91422">
        <ele>115.5</ele>
        <time>2012-05-13T10:29:01Z</time>
      </trkpt>
      <trkpt lat="48.69806" lon="1.91435">
        <ele>115.01</ele>
        <time>2012-05-13T10:29:14Z</time>
      </trkpt>
      <trkpt lat="48.69811" lon="1.91439">
        <ele>115.01</ele>
        <time>2012-05-13T10:29:20Z</time>
      </trkpt>
      <trkpt lat="48.69814" lon="1.91441">
        <ele>114.53</ele>
        <time>2012-05-13T10:29:22Z</time>
      </trkpt>
      <trkpt lat="48.69823" lon="1.91449">
        <ele>115.01</ele>
        <time>2012-05-13T10:29:34Z</time>
      </trkpt>
      <trkpt lat="48.69835" lon="1.91452">
        <ele>114.53</ele>
        <time>2012-05-13T10:29:47Z</time>
      </trkpt>
      <trkpt lat="48.6984" lon="1.9145">
        <ele>115.01</ele>
        <time>2012-05-13T10:29:52Z</time>
      </trkpt>
      <trkpt lat="48.69845" lon="1.91446">
        <ele>115.01</ele>
        <time>2012-05-13T10:29:56Z</time>
      </trkpt>
      <trkpt lat="48.69859" lon="1.91435">
        <ele>115.01</ele>
        <time>2012-05-13T10:30:10Z</time>
      </trkpt>
      <trkpt lat="48.69866" lon="1.91419">
        <ele>115.5</ele>
        <time>2012-05-13T10:30:21Z</time>
      </trkpt>
      <trkpt lat="48.69867" lon="1.91413">
        <ele>115.01</ele>
        <time>2012-05-13T10:30:25Z</time>
      </trkpt>
      <trkpt lat="48.69868" lon="1.91405">
        <ele>114.53</ele>
        <time>2012-05-13T10:30:30Z</time>
      </trkpt>
      <trkpt lat="48.69871" lon="1.91386">
        <ele>116.46</ele>
        <time>2012-05-13T10:30:42Z</time>
      </trkpt>
      <trkpt lat="48.69873" lon="1.91363">
        <ele>115.5</ele>
        <time>2012-05-13T10:30:55Z</time>
      </trkpt>
      <trkpt lat="48.69873" lon="1.91357">
        <ele>115.5</ele>
        <time>2012-05-13T10:30:58Z</time>
      </trkpt>
      <trkpt lat="48.69873" lon="1.91342">
        <ele>115.5</ele>
        <time>2012-05-13T10:31:06Z</time>
      </trkpt>
      <trkpt lat="48.69879" lon="1.91331">
        <ele>116.46</ele>
        <time>2012-05-13T10:31:22Z</time>
      </trkpt>
      <trkpt lat="48.69881" lon="1.91331">
        <ele>117.9</ele>
        <time>2012-05-13T10:31:34Z</time>
      </trkpt>
      <trkpt lat="48.69886" lon="1.9133">
        <ele>120.78</ele>
        <time>2012-05-13T10:31:47Z</time>
      </trkpt>
      <trkpt lat="48.69892" lon="1.91332">
        <ele>123.19</ele>
        <time>2012-05-13T10:32:02Z</time>
      </trkpt>
      <trkpt lat="48.69894" lon="1.9134">
        <ele>126.55</ele>
        <time>2012-05-13T10:32:15Z</time>
      </trkpt>
      <trkpt lat="48.69897" lon="1.91343">
        <ele>129.43</ele>
        <time>2012-05-13T10:32:31Z</time>
      </trkpt>
      <trkpt lat="48.69903" lon="1.91353">
        <ele>131.36</ele>
        <time>2012-05-13T10:32:50Z</time>
      </trkpt>
      <trkpt lat="48.69903" lon="1.9136">
        <ele>133.28</ele>
        <time>2012-05-13T10:32:57Z</time>
      </trkpt>
      <trkpt lat="48.69903" lon="1.91379">
        <ele>134.72</ele>
        <time>2012-05-13T10:33:11Z</time>
      </trkpt>
      <trkpt lat="48.69906" lon="1.91389">
        <ele>137.13</ele>
        <time>2012-05-13T10:33:24Z</time>
      </trkpt>
      <trkpt lat="48.69907" lon="1.914">
        <ele>139.05</ele>
        <time>2012-05-13T10:33:36Z</time>
      </trkpt>
      <trkpt lat="48.69909" lon="1.91402">
        <ele>140.49</ele>
        <time>2012-05-13T10:33:44Z</time>
      </trkpt>
      <trkpt lat="48.6991" lon="1.91415">
        <ele>142.89</ele>
        <time>2012-05-13T10:33:57Z</time>
      </trkpt>
      <trkpt lat="48.69911" lon="1.91429">
        <ele>143.37</ele>
        <time>2012-05-13T10:34:08Z</time>
      </trkpt>
      <trkpt lat="48.69919" lon="1.91436">
        <ele>145.3</ele>
        <time>2012-05-13T10:34:21Z</time>
      </trkpt>
      <trkpt lat="48.69924" lon="1.91447">
        <ele>146.74</ele>
        <time>2012-05-13T10:34:34Z</time>
      </trkpt>
      <trkpt lat="48.69932" lon="1.91453">
        <ele>148.18</ele>
        <time>2012-05-13T10:34:48Z</time>
      </trkpt>
      <trkpt lat="48.69938" lon="1.91463">
        <ele>146.74</ele>
        <time>2012-05-13T10:34:58Z</time>
      </trkpt>
      <trkpt lat="48.6995" lon="1.91465">
        <ele>149.14</ele>
        <time>2012-05-13T10:35:10Z</time>
      </trkpt>
      <trkpt lat="48.6996" lon="1.91471">
        <ele>151.54</ele>
        <time>2012-05-13T10:35:23Z</time>
      </trkpt>
      <trkpt lat="48.69968" lon="1.91478">
        <ele>153.95</ele>
        <time>2012-05-13T10:35:36Z</time>
      </trkpt>
      <trkpt lat="48.69973" lon="1.91486">
        <ele>156.35</ele>
        <time>2012-05-13T10:35:49Z</time>
      </trkpt>
      <trkpt lat="48.69976" lon="1.91489">
        <ele>157.79</ele>
        <time>2012-05-13T10:35:52Z</time>
      </trkpt>
      <trkpt lat="48.69989" lon="1.91495">
        <ele>160.2</ele>
        <time>2012-05-13T10:36:06Z</time>
      </trkpt>
      <trkpt lat="48.6999" lon="1.91495">
        <ele>160.2</ele>
        <time>2012-05-13T10:36:26Z</time>
      </trkpt>
      <trkpt lat="48.69989" lon="1.91496">
        <ele>160.68</ele>
        <time>2012-05-13T10:36:45Z</time>
      </trkpt>
      <trkpt lat="48.6999" lon="1.91494">
        <ele>161.16</ele>
        <time>2012-05-13T10:37:05Z</time>
      </trkpt>
      <trkpt lat="48.6999" lon="1.91494">
        <ele>160.68</ele>
        <time>2012-05-13T10:37:29Z</time>
      </trkpt>
      <trkpt lat="48.69991" lon="1.91492">
        <ele>160.68</ele>
        <time>2012-05-13T10:37:56Z</time>
      </trkpt>
      <trkpt lat="48.69991" lon="1.91492">
        <ele>161.16</ele>
        <time>2012-05-13T10:38:27Z</time>
      </trkpt>
      <trkpt lat="48.69985" lon="1.91492">
        <ele>161.16</ele>
        <time>2012-05-13T10:38:45Z</time>
      </trkpt>
      <trkpt lat="48.69985" lon="1.91491">
        <ele>160.68</ele>
        <time>2012-05-13T10:38:58Z</time>
      </trkpt>
      <trkpt lat="48.69986" lon="1.91472">
        <ele>160.68</ele>
        <time>2012-05-13T10:39:11Z</time>
      </trkpt>
      <trkpt lat="48.69986" lon="1.91461">
        <ele>160.2</ele>
        <time>2012-05-13T10:39:20Z</time>
      </trkpt>
      <trkpt lat="48.69987" lon="1.91446">
        <ele>160.68</ele>
        <time>2012-05-13T10:39:28Z</time>
      </trkpt>
      <trkpt lat="48.69992" lon="1.91427">
        <ele>162.12</ele>
        <time>2012-05-13T10:39:42Z</time>
      </trkpt>
      <trkpt lat="48.6999" lon="1.9141">
        <ele>161.64</ele>
        <time>2012-05-13T10:39:56Z</time>
      </trkpt>
      <trkpt lat="48.69989" lon="1.91394">
        <ele>162.12</ele>
        <time>2012-05-13T10:40:07Z</time>
      </trkpt>
      <trkpt lat="48.69992" lon="1.91386">
        <ele>163.08</ele>
        <time>2012-05-13T10:40:20Z</time>
      </trkpt>
      <trkpt lat="48.70001" lon="1.91374">
        <ele>164.04</ele>
        <time>2012-05-13T10:40:33Z</time>
      </trkpt>
      <trkpt lat="48.70003" lon="1.91364">
        <ele>164.52</ele>
        <time>2012-05-13T10:40:39Z</time>
      </trkpt>
      <trkpt lat="48.70007" lon="1.91348">
        <ele>165</ele>
        <time>2012-05-13T10:40:53Z</time>
      </trkpt>
      <trkpt lat="48.70018" lon="1.91341">
        <ele>165.48</ele>
        <time>2012-05-13T10:41:06Z</time>
      </trkpt>
      <trkpt lat="48.70028" lon="1.91332">
        <ele>165.48</ele>
        <time>2012-05-13T10:41:16Z</time>
      </trkpt>
      <trkpt lat="48.70038" lon="1.91326">
        <ele>165.48</ele>
        <time>2012-05-13T10:41:30Z</time>
      </trkpt>
      <trkpt lat="48.70047" lon="1.9132">
        <ele>165.48</ele>
        <time>2012-05-13T10:41:43Z</time>
      </trkpt>
      <trkpt lat="48.70058" lon="1.91317">
        <ele>165.48</ele>
        <time>2012-05-13T10:41:55Z</time>
      </trkpt>
      <trkpt lat="48.70068" lon="1.91305">
        <ele>165</ele>
        <time>2012-05-13T10:42:09Z</time>
      </trkpt>
      <trkpt lat="48.70068" lon="1.91291">
        <ele>164.52</ele>
        <time>2012-05-13T10:42:21Z</time>
      </trkpt>
      <trkpt lat="48.7007" lon="1.91267">
        <ele>164.04</ele>
        <time>2012-05-13T10:42:35Z</time>
      </trkpt>
      <trkpt lat="48.7007" lon="1.91247">
        <ele>163.08</ele>
        <time>2012-05-13T10:42:48Z</time>
      </trkpt>
      <trkpt lat="48.70069" lon="1.91225">
        <ele>162.6</ele>
        <time>2012-05-13T10:43:05Z</time>
      </trkpt>
      <trkpt lat="48.70068" lon="1.91215">
        <ele>162.6</ele>
        <time>2012-05-13T10:43:18Z</time>
      </trkpt>
      <trkpt lat="48.70068" lon="1.91213">
        <ele>162.12</ele>
        <time>2012-05-13T10:43:21Z</time>
      </trkpt>
      <trkpt lat="48.70063" lon="1.91195">
        <ele>162.6</ele>
        <time>2012-05-13T10:43:33Z</time>
      </trkpt>
      <trkpt lat="48.70058" lon="1.91182">
        <ele>162.6</ele>
        <time>2012-05-13T10:43:42Z</time>
      </trkpt>
      <trkpt lat="48.70048" lon="1.91167">
        <ele>163.08</ele>
        <time>2012-05-13T10:43:55Z</time>
      </trkpt>
      <trkpt lat="48.70039" lon="1.91153">
        <ele>163.56</ele>
        <time>2012-05-13T10:44:06Z</time>
      </trkpt>
      <trkpt lat="48.70028" lon="1.91139">
        <ele>163.56</ele>
        <time>2012-05-13T10:44:19Z</time>
      </trkpt>
      <trkpt lat="48.70026" lon="1.91134">
        <ele>163.08</ele>
        <time>2012-05-13T10:44:22Z</time>
      </trkpt>
      <trkpt lat="48.70025" lon="1.91127">
        <ele>163.56</ele>
        <time>2012-05-13T10:44:25Z</time>
      </trkpt>
      <trkpt lat="48.70023" lon="1.91111">
        <ele>164.04</ele>
        <time>2012-05-13T10:44:37Z</time>
      </trkpt>
      <trkpt lat="48.70022" lon="1.91092">
        <ele>163.56</ele>
        <time>2012-05-13T10:44:47Z</time>
      </trkpt>
      <trkpt lat="48.70026" lon="1.91073">
        <ele>163.56</ele>
        <time>2012-05-13T10:44:59Z</time>
      </trkpt>
      <trkpt lat="48.70036" lon="1.91055">
        <ele>163.56</ele>
        <time>2012-05-13T10:45:12Z</time>
      </trkpt>
      <trkpt lat="48.70042" lon="1.91048">
        <ele>164.04</ele>
        <time>2012-05-13T10:45:22Z</time>
      </trkpt>
      <trkpt lat="48.70044" lon="1.91045">
        <ele>163.08</ele>
        <time>2012-05-13T10:45:25Z</time>
      </trkpt>
      <trkpt lat="48.70053" lon="1.91031">
        <ele>162.6</ele>
        <time>2012-05-13T10:45:36Z</time>
      </trkpt>
      <trkpt lat="48.70061" lon="1.91019">
        <ele>162.6</ele>
        <time>2012-05-13T10:45:48Z</time>
      </trkpt>
      <trkpt lat="48.70072" lon="1.91015">
        <ele>162.12</ele>
        <time>2012-05-13T10:46:01Z</time>
      </trkpt>
      <trkpt lat="48.70081" lon="1.91015">
        <ele>163.08</ele>
        <time>2012-05-13T10:46:13Z</time>
      </trkpt>
      <trkpt lat="48.70087" lon="1.91021">
        <ele>163.56</ele>
        <time>2012-05-13T10:46:24Z</time>
      </trkpt>
      <trkpt lat="48.70097" lon="1.91023">
        <ele>163.08</ele>
        <time>2012-05-13T10:46:38Z</time>
      </trkpt>
      <trkpt lat="48.70103" lon="1.91021">
        <ele>163.56</ele>
        <time>2012-05-13T10:46:49Z</time>
      </trkpt>
      <trkpt lat="48.70108" lon="1.91026">
        <ele>164.04</ele>
        <time>2012-05-13T10:47:00Z</time>
      </trkpt>
      <trkpt lat="48.70113" lon="1.91031">
        <ele>164.52</ele>
        <time>2012-05-13T10:47:10Z</time>
      </trkpt>
      <trkpt lat="48.70121" lon="1.91036">
        <ele>165.48</ele>
        <time>2012-05-13T10:47:20Z</time>
      </trkpt>
      <trkpt lat="48.70129" lon="1.91046">
        <ele>165.96</ele>
        <time>2012-05-13T10:47:32Z</time>
      </trkpt>
      <trkpt lat="48.70137" lon="1.91047">
        <ele>165.96</ele>
        <time>2012-05-13T10:47:45Z</time>
      </trkpt>
      <trkpt lat="48.7014" lon="1.91043">
        <ele>165.96</ele>
        <time>2012-05-13T10:48:01Z</time>
      </trkpt>
      <trkpt lat="48.70144" lon="1.9103">
        <ele>165.96</ele>
        <time>2012-05-13T10:48:13Z</time>
      </trkpt>
      <trkpt lat="48.70151" lon="1.91021">
        <ele>165.96</ele>
        <time>2012-05-13T10:48:26Z</time>
      </trkpt>
      <trkpt lat="48.70153" lon="1.91011">
        <ele>165.96</ele>
        <time>2012-05-13T10:48:34Z</time>
      </trkpt>
      <trkpt lat="48.70154" lon="1.90991">
        <ele>166.45</ele>
        <time>2012-05-13T10:48:46Z</time>
      </trkpt>
      <trkpt lat="48.70155" lon="1.90986">
        <ele>166.45</ele>
        <time>2012-05-13T10:48:49Z</time>
      </trkpt>
      <trkpt lat="48.70158" lon="1.90972">
        <ele>166.45</ele>
        <time>2012-05-13T10:49:00Z</time>
      </trkpt>
      <trkpt lat="48.70164" lon="1.90955">
        <ele>166.93</ele>
        <time>2012-05-13T10:49:12Z</time>
      </trkpt>
      <trkpt lat="48.70167" lon="1.90947">
        <ele>166.93</ele>
        <time>2012-05-13T10:49:18Z</time>
      </trkpt>
      <trkpt lat="48.70167" lon="1.90942">
        <ele>166.93</ele>
        <time>2012-05-13T10:49:21Z</time>
      </trkpt>
      <trkpt lat="48.70172" lon="1.90919">
        <ele>167.41</ele>
        <time>2012-05-13T10:49:34Z</time>
      </trkpt>
      <trkpt lat="48.70174" lon="1.90909">
        <ele>166.93</ele>
        <time>2012-05-13T10:49:39Z</time>
      </trkpt>
      <trkpt lat="48.70176" lon="1.90901">
        <ele>166.93</ele>
        <time>2012-05-13T10:49:43Z</time>
      </trkpt>
      <trkpt lat="48.70176" lon="1.90898">
        <ele>166.45</ele>
        <time>2012-05-13T10:49:45Z</time>
      </trkpt>
      <trkpt lat="48.70181" lon="1.90886">
        <ele>165.96</ele>
        <time>2012-05-13T10:49:56Z</time>
      </trkpt>
      <trkpt lat="48.70187" lon="1.90873">
        <ele>166.45</ele>
        <time>2012-05-13T10:50:07Z</time>
      </trkpt>
      <trkpt lat="48.70188" lon="1.9087">
        <ele>166.45</ele>
        <time>2012-05-13T10:50:09Z</time>
      </trkpt>
      <trkpt lat="48.70191" lon="1.90862">
        <ele>166.45</ele>
        <time>2012-05-13T10:50:14Z</time>
      </trkpt>
      <trkpt lat="48.70199" lon="1.90844">
        <ele>166.45</ele>
        <time>2012-05-13T10:50:27Z</time>
      </trkpt>
      <trkpt lat="48.70203" lon="1.90835">
        <ele>166.45</ele>
        <time>2012-05-13T10:50:38Z</time>
      </trkpt>
      <trkpt lat="48.70207" lon="1.9081">
        <ele>166.45</ele>
        <time>2012-05-13T10:50:53Z</time>
      </trkpt>
      <trkpt lat="48.70207" lon="1.90793">
        <ele>166.45</ele>
        <time>2012-05-13T10:51:06Z</time>
      </trkpt>
      <trkpt lat="48.70216" lon="1.90772">
        <ele>166.45</ele>
        <time>2012-05-13T10:51:19Z</time>
      </trkpt>
      <trkpt lat="48.7022" lon="1.90749">
        <ele>166.93</ele>
        <time>2012-05-13T10:51:32Z</time>
      </trkpt>
      <trkpt lat="48.70224" lon="1.90729">
        <ele>166.93</ele>
        <time>2012-05-13T10:51:43Z</time>
      </trkpt>
      <trkpt lat="48.7023" lon="1.9071">
        <ele>166.93</ele>
        <time>2012-05-13T10:51:55Z</time>
      </trkpt>
      <trkpt lat="48.70233" lon="1.90695">
        <ele>167.89</ele>
        <time>2012-05-13T10:52:06Z</time>
      </trkpt>
      <trkpt lat="48.70233" lon="1.90693">
        <ele>167.41</ele>
        <time>2012-05-13T10:52:07Z</time>
      </trkpt>
      <trkpt lat="48.70236" lon="1.90679">
        <ele>168.37</ele>
        <time>2012-05-13T10:52:15Z</time>
      </trkpt>
      <trkpt lat="48.70234" lon="1.90663">
        <ele>168.37</ele>
        <time>2012-05-13T10:52:24Z</time>
      </trkpt>
      <trkpt lat="48.70236" lon="1.90646">
        <ele>168.37</ele>
        <time>2012-05-13T10:52:33Z</time>
      </trkpt>
      <trkpt lat="48.70234" lon="1.90624">
        <ele>167.89</ele>
        <time>2012-05-13T10:52:47Z</time>
      </trkpt>
      <trkpt lat="48.70236" lon="1.90608">
        <ele>168.37</ele>
        <time>2012-05-13T10:52:59Z</time>
      </trkpt>
      <trkpt lat="48.70236" lon="1.90592">
        <ele>167.89</ele>
        <time>2012-05-13T10:53:09Z</time>
      </trkpt>
      <trkpt lat="48.70235" lon="1.90583">
        <ele>167.89</ele>
        <time>2012-05-13T10:53:13Z</time>
      </trkpt>
      <trkpt lat="48.70236" lon="1.90571">
        <ele>167.41</ele>
        <time>2012-05-13T10:53:20Z</time>
      </trkpt>
      <trkpt lat="48.70236" lon="1.90555">
        <ele>167.41</ele>
        <time>2012-05-13T10:53:30Z</time>
      </trkpt>
      <trkpt lat="48.70238" lon="1.90532">
        <ele>167.41</ele>
        <time>2012-05-13T10:53:42Z</time>
      </trkpt>
      <trkpt lat="48.70237" lon="1.90511">
        <ele>166.93</ele>
        <time>2012-05-13T10:53:53Z</time>
      </trkpt>
      <trkpt lat="48.70241" lon="1.90488">
        <ele>167.41</ele>
        <time>2012-05-13T10:54:06Z</time>
      </trkpt>
      <trkpt lat="48.70241" lon="1.90458">
        <ele>167.41</ele>
        <time>2012-05-13T10:54:20Z</time>
      </trkpt>
      <trkpt lat="48.70243" lon="1.90447">
        <ele>167.41</ele>
        <time>2012-05-13T10:54:26Z</time>
      </trkpt>
      <trkpt lat="48.7025" lon="1.9042">
        <ele>166.93</ele>
        <time>2012-05-13T10:54:39Z</time>
      </trkpt>
      <trkpt lat="48.70256" lon="1.904">
        <ele>166.93</ele>
        <time>2012-05-13T10:54:51Z</time>
      </trkpt>
      <trkpt lat="48.70261" lon="1.90389">
        <ele>167.41</ele>
        <time>2012-05-13T10:55:02Z</time>
      </trkpt>
      <trkpt lat="48.70263" lon="1.90385">
        <ele>167.41</ele>
        <time>2012-05-13T10:55:05Z</time>
      </trkpt>
      <trkpt lat="48.70264" lon="1.90381">
        <ele>167.41</ele>
        <time>2012-05-13T10:55:10Z</time>
      </trkpt>
      <trkpt lat="48.70271" lon="1.90361">
        <ele>167.89</ele>
        <time>2012-05-13T10:55:22Z</time>
      </trkpt>
      <trkpt lat="48.70274" lon="1.90349">
        <ele>168.37</ele>
        <time>2012-05-13T10:55:29Z</time>
      </trkpt>
      <trkpt lat="48.70283" lon="1.90335">
        <ele>168.85</ele>
        <time>2012-05-13T10:55:40Z</time>
      </trkpt>
      <trkpt lat="48.70286" lon="1.90315">
        <ele>168.85</ele>
        <time>2012-05-13T10:55:50Z</time>
      </trkpt>
      <trkpt lat="48.70286" lon="1.90305">
        <ele>168.85</ele>
        <time>2012-05-13T10:55:53Z</time>
      </trkpt>
      <trkpt lat="48.70286" lon="1.9028">
        <ele>169.33</ele>
        <time>2012-05-13T10:56:04Z</time>
      </trkpt>
      <trkpt lat="48.70291" lon="1.90274">
        <ele>168.85</ele>
        <time>2012-05-13T10:56:14Z</time>
      </trkpt>
      <trkpt lat="48.70291" lon="1.90273">
        <ele>168.85</ele>
        <time>2012-05-13T10:56:15Z</time>
      </trkpt>
      <trkpt lat="48.70294" lon="1.9025">
        <ele>169.33</ele>
        <time>2012-05-13T10:56:28Z</time>
      </trkpt>
      <trkpt lat="48.70296" lon="1.90245">
        <ele>169.81</ele>
        <time>2012-05-13T10:56:32Z</time>
      </trkpt>
      <trkpt lat="48.70297" lon="1.90219">
        <ele>169.33</ele>
        <time>2012-05-13T10:56:45Z</time>
      </trkpt>
      <trkpt lat="48.70301" lon="1.90208">
        <ele>169.81</ele>
        <time>2012-05-13T10:56:53Z</time>
      </trkpt>
      <trkpt lat="48.70304" lon="1.9019">
        <ele>168.85</ele>
        <time>2012-05-13T10:57:06Z</time>
      </trkpt>
      <trkpt lat="48.70304" lon="1.90181">
        <ele>169.33</ele>
        <time>2012-05-13T10:57:10Z</time>
      </trkpt>
      <trkpt lat="48.70309" lon="1.9016">
        <ele>169.81</ele>
        <time>2012-05-13T10:57:21Z</time>
      </trkpt>
      <trkpt lat="48.70307" lon="1.90137">
        <ele>169.33</ele>
        <time>2012-05-13T10:57:32Z</time>
      </trkpt>
      <trkpt lat="48.70307" lon="1.9012">
        <ele>169.81</ele>
        <time>2012-05-13T10:57:45Z</time>
      </trkpt>
      <trkpt lat="48.70307" lon="1.90117">
        <ele>169.81</ele>
        <time>2012-05-13T10:57:47Z</time>
      </trkpt>
      <trkpt lat="48.70308" lon="1.90106">
        <ele>169.33</ele>
        <time>2012-05-13T10:57:53Z</time>
      </trkpt>
      <trkpt lat="48.70316" lon="1.90086">
        <ele>169.33</ele>
        <time>2012-05-13T10:58:06Z</time>
      </trkpt>
      <trkpt lat="48.7032" lon="1.90064">
        <ele>169.81</ele>
        <time>2012-05-13T10:58:18Z</time>
      </trkpt>
      <trkpt lat="48.70322" lon="1.90042">
        <ele>169.33</ele>
        <time>2012-05-13T10:58:30Z</time>
      </trkpt>
      <trkpt lat="48.70323" lon="1.90026">
        <ele>169.33</ele>
        <time>2012-05-13T10:58:40Z</time>
      </trkpt>
      <trkpt lat="48.70325" lon="1.90011">
        <ele>169.81</ele>
        <time>2012-05-13T10:58:49Z</time>
      </trkpt>
      <trkpt lat="48.70326" lon="1.90009">
        <ele>169.81</ele>
        <time>2012-05-13T10:58:51Z</time>
      </trkpt>
      <trkpt lat="48.7033" lon="1.89989">
        <ele>169.33</ele>
        <time>2012-05-13T10:59:02Z</time>
      </trkpt>
      <trkpt lat="48.70331" lon="1.89971">
        <ele>168.85</ele>
        <time>2012-05-13T10:59:12Z</time>
      </trkpt>
      <trkpt lat="48.70336" lon="1.8995">
        <ele>169.33</ele>
        <time>2012-05-13T10:59:23Z</time>
      </trkpt>
      <trkpt lat="48.7034" lon="1.89937">
        <ele>168.85</ele>
        <time>2012-05-13T10:59:30Z</time>
      </trkpt>
      <trkpt lat="48.7034" lon="1.89925">
        <ele>168.37</ele>
        <time>2012-05-13T10:59:42Z</time>
      </trkpt>
      <trkpt lat="48.7034" lon="1.89917">
        <ele>167.89</ele>
        <time>2012-05-13T10:59:48Z</time>
      </trkpt>
      <trkpt lat="48.70343" lon="1.89909">
        <ele>167.89</ele>
        <time>2012-05-13T10:59:55Z</time>
      </trkpt>
      <trkpt lat="48.70346" lon="1.89883">
        <ele>168.37</ele>
        <time>2012-05-13T11:00:10Z</time>
      </trkpt>
      <trkpt lat="48.70347" lon="1.89857">
        <ele>169.33</ele>
        <time>2012-05-13T11:00:22Z</time>
      </trkpt>
      <trkpt lat="48.70348" lon="1.8985">
        <ele>169.33</ele>
        <time>2012-05-13T11:00:25Z</time>
      </trkpt>
      <trkpt lat="48.70353" lon="1.8983">
        <ele>168.85</ele>
        <time>2012-05-13T11:00:37Z</time>
      </trkpt>
      <trkpt lat="48.70358" lon="1.89805">
        <ele>168.85</ele>
        <time>2012-05-13T11:00:50Z</time>
      </trkpt>
      <trkpt lat="48.70363" lon="1.89792">
        <ele>168.37</ele>
        <time>2012-05-13T11:00:59Z</time>
      </trkpt>
      <trkpt lat="48.70366" lon="1.89781">
        <ele>168.85</ele>
        <time>2012-05-13T11:01:04Z</time>
      </trkpt>
      <trkpt lat="48.70367" lon="1.89776">
        <ele>167.89</ele>
        <time>2012-05-13T11:01:07Z</time>
      </trkpt>
      <trkpt lat="48.70376" lon="1.8975">
        <ele>167.89</ele>
        <time>2012-05-13T11:01:22Z</time>
      </trkpt>
      <trkpt lat="48.7038" lon="1.89743">
        <ele>168.37</ele>
        <time>2012-05-13T11:01:27Z</time>
      </trkpt>
      <trkpt lat="48.70388" lon="1.89725">
        <ele>167.89</ele>
        <time>2012-05-13T11:01:39Z</time>
      </trkpt>
      <trkpt lat="48.70395" lon="1.89703">
        <ele>167.89</ele>
        <time>2012-05-13T11:01:50Z</time>
      </trkpt>
      <trkpt lat="48.704" lon="1.89692">
        <ele>167.41</ele>
        <time>2012-05-13T11:01:57Z</time>
      </trkpt>
      <trkpt lat="48.70404" lon="1.89684">
        <ele>167.41</ele>
        <time>2012-05-13T11:02:04Z</time>
      </trkpt>
      <trkpt lat="48.70405" lon="1.89682">
        <ele>167.89</ele>
        <time>2012-05-13T11:02:06Z</time>
      </trkpt>
      <trkpt lat="48.70408" lon="1.89674">
        <ele>167.41</ele>
        <time>2012-05-13T11:02:12Z</time>
      </trkpt>
      <trkpt lat="48.70418" lon="1.89656">
        <ele>166.93</ele>
        <time>2012-05-13T11:02:24Z</time>
      </trkpt>
      <trkpt lat="48.70426" lon="1.89643">
        <ele>165.48</ele>
        <time>2012-05-13T11:02:35Z</time>
      </trkpt>
      <trkpt lat="48.70434" lon="1.89632">
        <ele>165.48</ele>
        <time>2012-05-13T11:02:47Z</time>
      </trkpt>
      <trkpt lat="48.70437" lon="1.89619">
        <ele>165</ele>
        <time>2012-05-13T11:02:59Z</time>
      </trkpt>
      <trkpt lat="48.70438" lon="1.89616">
        <ele>165.96</ele>
        <time>2012-05-13T11:03:01Z</time>
      </trkpt>
      <trkpt lat="48.70441" lon="1.89593">
        <ele>166.45</ele>
        <time>2012-05-13T11:03:14Z</time>
      </trkpt>
      <trkpt lat="48.70442" lon="1.89587">
        <ele>166.45</ele>
        <time>2012-05-13T11:03:18Z</time>
      </trkpt>
      <trkpt lat="48.70444" lon="1.89568">
        <ele>166.93</ele>
        <time>2012-05-13T11:03:30Z</time>
      </trkpt>
      <trkpt lat="48.70444" lon="1.89566">
        <ele>166.93</ele>
        <time>2012-05-13T11:03:31Z</time>
      </trkpt>
      <trkpt lat="48.70444" lon="1.8955">
        <ele>166.45</ele>
        <time>2012-05-13T11:03:41Z</time>
      </trkpt>
      <trkpt lat="48.70444" lon="1.89534">
        <ele>165.96</ele>
        <time>2012-05-13T11:03:51Z</time>
      </trkpt>
      <trkpt lat="48.70443" lon="1.89526">
        <ele>166.45</ele>
        <time>2012-05-13T11:03:59Z</time>
      </trkpt>
      <trkpt lat="48.70439" lon="1.89514">
        <ele>165.96</ele>
        <time>2012-05-13T11:04:10Z</time>
      </trkpt>
      <trkpt lat="48.70438" lon="1.8951">
        <ele>165.48</ele>
        <time>2012-05-13T11:04:12Z</time>
      </trkpt>
      <trkpt lat="48.70434" lon="1.89501">
        <ele>162.6</ele>
        <time>2012-05-13T11:04:24Z</time>
      </trkpt>
      <trkpt lat="48.70433" lon="1.89497">
        <ele>162.12</ele>
        <time>2012-05-13T11:04:26Z</time>
      </trkpt>
      <trkpt lat="48.70426" lon="1.89476">
        <ele>160.68</ele>
        <time>2012-05-13T11:04:40Z</time>
      </trkpt>
      <trkpt lat="48.70424" lon="1.89471">
        <ele>160.68</ele>
        <time>2012-05-13T11:04:44Z</time>
      </trkpt>
      <trkpt lat="48.7042" lon="1.89452">
        <ele>160.2</ele>
        <time>2012-05-13T11:04:55Z</time>
      </trkpt>
      <trkpt lat="48.7042" lon="1.89428">
        <ele>159.24</ele>
        <time>2012-05-13T11:05:08Z</time>
      </trkpt>
      <trkpt lat="48.70423" lon="1.89408">
        <ele>158.27</ele>
        <time>2012-05-13T11:05:20Z</time>
      </trkpt>
      <trkpt lat="48.70424" lon="1.89398">
        <ele>157.31</ele>
        <time>2012-05-13T11:05:26Z</time>
      </trkpt>
      <trkpt lat="48.70419" lon="1.89372">
        <ele>154.91</ele>
        <time>2012-05-13T11:05:41Z</time>
      </trkpt>
      <trkpt lat="48.70417" lon="1.89369">
        <ele>154.91</ele>
        <time>2012-05-13T11:05:43Z</time>
      </trkpt>
      <trkpt lat="48.70404" lon="1.8935">
        <ele>151.54</ele>
        <time>2012-05-13T11:05:58Z</time>
      </trkpt>
      <trkpt lat="48.70392" lon="1.8934">
        <ele>149.14</ele>
        <time>2012-05-13T11:06:09Z</time>
      </trkpt>
      <trkpt lat="48.70388" lon="1.89339">
        <ele>148.18</ele>
        <time>2012-05-13T11:06:13Z</time>
      </trkpt>
      <trkpt lat="48.70378" lon="1.89342">
        <ele>145.3</ele>
        <time>2012-05-13T11:06:25Z</time>
      </trkpt>
      <trkpt lat="48.70365" lon="1.89345">
        <ele>143.37</ele>
        <time>2012-05-13T11:06:36Z</time>
      </trkpt>
      <trkpt lat="48.70356" lon="1.89351">
        <ele>140.97</ele>
        <time>2012-05-13T11:06:48Z</time>
      </trkpt>
      <trkpt lat="48.70345" lon="1.89353">
        <ele>139.53</ele>
        <time>2012-05-13T11:07:02Z</time>
      </trkpt>
      <trkpt lat="48.70332" lon="1.89354">
        <ele>138.09</ele>
        <time>2012-05-13T11:07:14Z</time>
      </trkpt>
      <trkpt lat="48.70329" lon="1.89354">
        <ele>138.09</ele>
        <time>2012-05-13T11:07:17Z</time>
      </trkpt>
      <trkpt lat="48.70319" lon="1.89354">
        <ele>136.16</ele>
        <time>2012-05-13T11:07:25Z</time>
      </trkpt>
      <trkpt lat="48.70316" lon="1.89353">
        <ele>135.2</ele>
        <time>2012-05-13T11:07:28Z</time>
      </trkpt>
      <trkpt lat="48.70308" lon="1.89352">
        <ele>134.24</ele>
        <time>2012-05-13T11:07:34Z</time>
      </trkpt>
      <trkpt lat="48.70295" lon="1.89349">
        <ele>132.32</ele>
        <time>2012-05-13T11:07:47Z</time>
      </trkpt>
      <trkpt lat="48.70287" lon="1.89332">
        <ele>131.84</ele>
        <time>2012-05-13T11:08:00Z</time>
      </trkpt>
      <trkpt lat="48.70281" lon="1.89321">
        <ele>131.84</ele>
        <time>2012-05-13T11:08:08Z</time>
      </trkpt>
      <trkpt lat="48.70269" lon="1.89302">
        <ele>130.88</ele>
        <time>2012-05-13T11:08:23Z</time>
      </trkpt>
      <trkpt lat="48.7026" lon="1.89286">
        <ele>130.4</ele>
        <time>2012-05-13T11:08:33Z</time>
      </trkpt>
      <trkpt lat="48.70257" lon="1.89283">
        <ele>130.4</ele>
        <time>2012-05-13T11:08:35Z</time>
      </trkpt>
      <trkpt lat="48.70245" lon="1.89265">
        <ele>130.4</ele>
        <time>2012-05-13T11:08:50Z</time>
      </trkpt>
      <trkpt lat="48.70241" lon="1.89259">
        <ele>129.92</ele>
        <time>2012-05-13T11:08:55Z</time>
      </trkpt>
      <trkpt lat="48.70239" lon="1.89247">
        <ele>129.92</ele>
        <time>2012-05-13T11:09:03Z</time>
      </trkpt>
      <trkpt lat="48.7024" lon="1.89243">
        <ele>130.4</ele>
        <time>2012-05-13T11:09:05Z</time>
      </trkpt>
      <trkpt lat="48.70239" lon="1.89221">
        <ele>131.84</ele>
        <time>2012-05-13T11:09:15Z</time>
      </trkpt>
      <trkpt lat="48.7024" lon="1.89196">
        <ele>131.84</ele>
        <time>2012-05-13T11:09:29Z</time>
      </trkpt>
      <trkpt lat="48.70239" lon="1.89181">
        <ele>132.8</ele>
        <time>2012-05-13T11:09:38Z</time>
      </trkpt>
      <trkpt lat="48.7024" lon="1.89178">
        <ele>132.8</ele>
        <time>2012-05-13T11:09:40Z</time>
      </trkpt>
      <trkpt lat="48.70235" lon="1.89161">
        <ele>132.8</ele>
        <time>2012-05-13T11:09:51Z</time>
      </trkpt>
      <trkpt lat="48.70217" lon="1.89151">
        <ele>132.32</ele>
        <time>2012-05-13T11:10:07Z</time>
      </trkpt>
      <trkpt lat="48.70201" lon="1.89141">
        <ele>132.32</ele>
        <time>2012-05-13T11:10:22Z</time>
      </trkpt>
      <trkpt lat="48.702" lon="1.89132">
        <ele>132.8</ele>
        <time>2012-05-13T11:10:29Z</time>
      </trkpt>
      <trkpt lat="48.70205" lon="1.89113">
        <ele>132.8</ele>
        <time>2012-05-13T11:10:41Z</time>
      </trkpt>
      <trkpt lat="48.70207" lon="1.89099">
        <ele>132.8</ele>
        <time>2012-05-13T11:10:48Z</time>
      </trkpt>
      <trkpt lat="48.70209" lon="1.8909">
        <ele>132.32</ele>
        <time>2012-05-13T11:10:53Z</time>
      </trkpt>
      <trkpt lat="48.70211" lon="1.8908">
        <ele>132.8</ele>
        <time>2012-05-13T11:10:59Z</time>
      </trkpt>
      <trkpt lat="48.70213" lon="1.89076">
        <ele>133.28</ele>
        <time>2012-05-13T11:11:02Z</time>
      </trkpt>
      <trkpt lat="48.70217" lon="1.89055">
        <ele>133.76</ele>
        <time>2012-05-13T11:11:14Z</time>
      </trkpt>
      <trkpt lat="48.70219" lon="1.89047">
        <ele>133.76</ele>
        <time>2012-05-13T11:11:18Z</time>
      </trkpt>
      <trkpt lat="48.70221" lon="1.89043">
        <ele>133.28</ele>
        <time>2012-05-13T11:11:21Z</time>
      </trkpt>
      <trkpt lat="48.70224" lon="1.89037">
        <ele>133.28</ele>
        <time>2012-05-13T11:11:25Z</time>
      </trkpt>
      <trkpt lat="48.70224" lon="1.89028">
        <ele>132.8</ele>
        <time>2012-05-13T11:11:30Z</time>
      </trkpt>
      <trkpt lat="48.7023" lon="1.89005">
        <ele>133.76</ele>
        <time>2012-05-13T11:11:43Z</time>
      </trkpt>
      <trkpt lat="48.70233" lon="1.88993">
        <ele>133.28</ele>
        <time>2012-05-13T11:11:49Z</time>
      </trkpt>
      <trkpt lat="48.70236" lon="1.88978">
        <ele>133.76</ele>
        <time>2012-05-13T11:11:57Z</time>
      </trkpt>
      <trkpt lat="48.70237" lon="1.88976">
        <ele>133.28</ele>
        <time>2012-05-13T11:11:59Z</time>
      </trkpt>
      <trkpt lat="48.70248" lon="1.88984">
        <ele>132.8</ele>
        <time>2012-05-13T11:12:11Z</time>
      </trkpt>
      <trkpt lat="48.70249" lon="1.88984">
        <ele>132.8</ele>
        <time>2012-05-13T11:12:12Z</time>
      </trkpt>
      <trkpt lat="48.70249" lon="1.88974">
        <ele>134.72</ele>
        <time>2012-05-13T12:05:57Z</time>
      </trkpt>
      <trkpt lat="48.70248" lon="1.8897">
        <ele>134.72</ele>
        <time>2012-05-13T12:05:58Z</time>
      </trkpt>
      <trkpt lat="48.70255" lon="1.88961">
        <ele>134.72</ele>
        <time>2012-05-13T12:06:17Z</time>
      </trkpt>
      <trkpt lat="48.70262" lon="1.88976">
        <ele>137.13</ele>
        <time>2012-05-13T12:15:33Z</time>
      </trkpt>
      <trkpt lat="48.70263" lon="1.88979">
        <ele>137.13</ele>
        <time>2012-05-13T12:15:34Z</time>
      </trkpt>
      <trkpt lat="48.70259" lon="1.88979">
        <ele>137.61</ele>
        <time>2012-05-13T12:16:00Z</time>
      </trkpt>
      <trkpt lat="48.70258" lon="1.88978">
        <ele>137.61</ele>
        <time>2012-05-13T12:16:21Z</time>
      </trkpt>
      <trkpt lat="48.70247" lon="1.88993">
        <ele>138.57</ele>
        <time>2012-05-13T12:16:42Z</time>
      </trkpt>
      <trkpt lat="48.7025" lon="1.88987">
        <ele>138.57</ele>
        <time>2012-05-13T12:17:12Z</time>
      </trkpt>
      <trkpt lat="48.7025" lon="1.88988">
        <ele>138.57</ele>
        <time>2012-05-13T12:17:33Z</time>
      </trkpt>
      <trkpt lat="48.7025" lon="1.88988">
        <ele>139.53</ele>
        <time>2012-05-13T12:17:54Z</time>
      </trkpt>
      <trkpt lat="48.70249" lon="1.88988">
        <ele>139.05</ele>
        <time>2012-05-13T12:18:11Z</time>
      </trkpt>
      <trkpt lat="48.70249" lon="1.88988">
        <ele>139.53</ele>
        <time>2012-05-13T12:18:32Z</time>
      </trkpt>
      <trkpt lat="48.70249" lon="1.88988">
        <ele>139.53</ele>
        <time>2012-05-13T12:19:00Z</time>
      </trkpt>
      <trkpt lat="48.7025" lon="1.88988">
        <ele>140.49</ele>
        <time>2012-05-13T12:19:20Z</time>
      </trkpt>
      <trkpt lat="48.70251" lon="1.88987">
        <ele>139.53</ele>
        <time>2012-05-13T12:19:33Z</time>
      </trkpt>
      <trkpt lat="48.70251" lon="1.88987">
        <ele>140.01</ele>
        <time>2012-05-13T12:19:48Z</time>
      </trkpt>
      <trkpt lat="48.70246" lon="1.88984">
        <ele>140.97</ele>
        <time>2012-05-13T12:19:59Z</time>
      </trkpt>
      <trkpt lat="48.70238" lon="1.88977">
        <ele>140.49</ele>
        <time>2012-05-13T12:20:14Z</time>
      </trkpt>
      <trkpt lat="48.70238" lon="1.8898">
        <ele>140.97</ele>
        <time>2012-05-13T12:20:25Z</time>
      </trkpt>
      <trkpt lat="48.70237" lon="1.88983">
        <ele>140.01</ele>
        <time>2012-05-13T12:20:30Z</time>
      </trkpt>
      <trkpt lat="48.70233" lon="1.89002">
        <ele>140.49</ele>
        <time>2012-05-13T12:20:44Z</time>
      </trkpt>
      <trkpt lat="48.70228" lon="1.8902">
        <ele>140.01</ele>
        <time>2012-05-13T12:20:59Z</time>
      </trkpt>
      <trkpt lat="48.70225" lon="1.89032">
        <ele>140.49</ele>
        <time>2012-05-13T12:21:13Z</time>
      </trkpt>
      <trkpt lat="48.70218" lon="1.89056">
        <ele>140.49</ele>
        <time>2012-05-13T12:21:30Z</time>
      </trkpt>
      <trkpt lat="48.70213" lon="1.8908">
        <ele>140.01</ele>
        <time>2012-05-13T12:21:45Z</time>
      </trkpt>
      <trkpt lat="48.70207" lon="1.89107">
        <ele>140.49</ele>
        <time>2012-05-13T12:21:59Z</time>
      </trkpt>
      <trkpt lat="48.70201" lon="1.89135">
        <ele>140.01</ele>
        <time>2012-05-13T12:22:14Z</time>
      </trkpt>
      <trkpt lat="48.70201" lon="1.89135">
        <ele>140.01</ele>
        <time>2012-05-13T12:22:19Z</time>
      </trkpt>
      <trkpt lat="48.70206" lon="1.89142">
        <ele>139.53</ele>
        <time>2012-05-13T12:22:27Z</time>
      </trkpt>
      <trkpt lat="48.70218" lon="1.89151">
        <ele>139.53</ele>
        <time>2012-05-13T12:22:40Z</time>
      </trkpt>
      <trkpt lat="48.70233" lon="1.89161">
        <ele>139.53</ele>
        <time>2012-05-13T12:22:55Z</time>
      </trkpt>
      <trkpt lat="48.70242" lon="1.89172">
        <ele>140.01</ele>
        <time>2012-05-13T12:23:05Z</time>
      </trkpt>
      <trkpt lat="48.70242" lon="1.89186">
        <ele>139.53</ele>
        <time>2012-05-13T12:23:14Z</time>
      </trkpt>
      <trkpt lat="48.70242" lon="1.8919">
        <ele>139.53</ele>
        <time>2012-05-13T12:23:16Z</time>
      </trkpt>
      <trkpt lat="48.7024" lon="1.89216">
        <ele>139.05</ele>
        <time>2012-05-13T12:23:31Z</time>
      </trkpt>
      <trkpt lat="48.70239" lon="1.89242">
        <ele>138.57</ele>
        <time>2012-05-13T12:23:47Z</time>
      </trkpt>
      <trkpt lat="48.70239" lon="1.8926">
        <ele>138.57</ele>
        <time>2012-05-13T12:24:03Z</time>
      </trkpt>
      <trkpt lat="48.70239" lon="1.8928">
        <ele>138.57</ele>
        <time>2012-05-13T12:24:17Z</time>
      </trkpt>
      <trkpt lat="48.7024" lon="1.89301">
        <ele>137.61</ele>
        <time>2012-05-13T12:24:30Z</time>
      </trkpt>
      <trkpt lat="48.70241" lon="1.89307">
        <ele>137.61</ele>
        <time>2012-05-13T12:24:33Z</time>
      </trkpt>
      <trkpt lat="48.70242" lon="1.89314">
        <ele>137.61</ele>
        <time>2012-05-13T12:24:37Z</time>
      </trkpt>
      <trkpt lat="48.7024" lon="1.89337">
        <ele>137.61</ele>
        <time>2012-05-13T12:24:49Z</time>
      </trkpt>
      <trkpt lat="48.70241" lon="1.89355">
        <ele>136.64</ele>
        <time>2012-05-13T12:25:00Z</time>
      </trkpt>
      <trkpt lat="48.70241" lon="1.89362">
        <ele>136.64</ele>
        <time>2012-05-13T12:25:05Z</time>
      </trkpt>
      <trkpt lat="48.70239" lon="1.89364">
        <ele>137.13</ele>
        <time>2012-05-13T12:25:07Z</time>
      </trkpt>
      <trkpt lat="48.70237" lon="1.89367">
        <ele>137.61</ele>
        <time>2012-05-13T12:25:09Z</time>
      </trkpt>
      <trkpt lat="48.70229" lon="1.89378">
        <ele>138.57</ele>
        <time>2012-05-13T12:25:21Z</time>
      </trkpt>
      <trkpt lat="48.70221" lon="1.89394">
        <ele>139.05</ele>
        <time>2012-05-13T12:25:37Z</time>
      </trkpt>
      <trkpt lat="48.7022" lon="1.89393">
        <ele>138.57</ele>
        <time>2012-05-13T12:25:48Z</time>
      </trkpt>
      <trkpt lat="48.70211" lon="1.8939">
        <ele>138.57</ele>
        <time>2012-05-13T12:25:56Z</time>
      </trkpt>
      <trkpt lat="48.70201" lon="1.89382">
        <ele>138.57</ele>
        <time>2012-05-13T12:26:07Z</time>
      </trkpt>
      <trkpt lat="48.70191" lon="1.89376">
        <ele>139.05</ele>
        <time>2012-05-13T12:26:17Z</time>
      </trkpt>
      <trkpt lat="48.70188" lon="1.89377">
        <ele>139.53</ele>
        <time>2012-05-13T12:26:20Z</time>
      </trkpt>
      <trkpt lat="48.70185" lon="1.8938">
        <ele>139.53</ele>
        <time>2012-05-13T12:26:23Z</time>
      </trkpt>
      <trkpt lat="48.70179" lon="1.89393">
        <ele>139.53</ele>
        <time>2012-05-13T12:26:37Z</time>
      </trkpt>
      <trkpt lat="48.70178" lon="1.89394">
        <ele>140.01</ele>
        <time>2012-05-13T12:26:41Z</time>
      </trkpt>
      <trkpt lat="48.70162" lon="1.89394">
        <ele>140.01</ele>
        <time>2012-05-13T12:26:57Z</time>
      </trkpt>
      <trkpt lat="48.70157" lon="1.89393">
        <ele>139.05</ele>
        <time>2012-05-13T12:27:01Z</time>
      </trkpt>
      <trkpt lat="48.70143" lon="1.89383">
        <ele>140.01</ele>
        <time>2012-05-13T12:27:14Z</time>
      </trkpt>
      <trkpt lat="48.70138" lon="1.89379">
        <ele>140.49</ele>
        <time>2012-05-13T12:27:19Z</time>
      </trkpt>
      <trkpt lat="48.70136" lon="1.89377">
        <ele>140.49</ele>
        <time>2012-05-13T12:27:21Z</time>
      </trkpt>
      <trkpt lat="48.70129" lon="1.89375">
        <ele>140.97</ele>
        <time>2012-05-13T12:27:27Z</time>
      </trkpt>
      <trkpt lat="48.7012" lon="1.89394">
        <ele>140.97</ele>
        <time>2012-05-13T12:27:41Z</time>
      </trkpt>
      <trkpt lat="48.70117" lon="1.894">
        <ele>140.97</ele>
        <time>2012-05-13T12:27:45Z</time>
      </trkpt>
      <trkpt lat="48.70105" lon="1.89425">
        <ele>140.49</ele>
        <time>2012-05-13T12:28:01Z</time>
      </trkpt>
      <trkpt lat="48.70093" lon="1.89452">
        <ele>139.53</ele>
        <time>2012-05-13T12:28:19Z</time>
      </trkpt>
      <trkpt lat="48.70086" lon="1.89468">
        <ele>138.57</ele>
        <time>2012-05-13T12:28:30Z</time>
      </trkpt>
      <trkpt lat="48.70077" lon="1.89492">
        <ele>138.57</ele>
        <time>2012-05-13T12:28:45Z</time>
      </trkpt>
      <trkpt lat="48.70061" lon="1.89508">
        <ele>138.09</ele>
        <time>2012-05-13T12:29:00Z</time>
      </trkpt>
      <trkpt lat="48.7005" lon="1.89531">
        <ele>138.57</ele>
        <time>2012-05-13T12:29:15Z</time>
      </trkpt>
      <trkpt lat="48.70049" lon="1.89534">
        <ele>138.09</ele>
        <time>2012-05-13T12:29:17Z</time>
      </trkpt>
      <trkpt lat="48.70035" lon="1.89558">
        <ele>138.09</ele>
        <time>2012-05-13T12:29:33Z</time>
      </trkpt>
      <trkpt lat="48.70024" lon="1.89574">
        <ele>138.09</ele>
        <time>2012-05-13T12:29:45Z</time>
      </trkpt>
      <trkpt lat="48.70021" lon="1.89575">
        <ele>138.09</ele>
        <time>2012-05-13T12:29:47Z</time>
      </trkpt>
      <trkpt lat="48.70009" lon="1.89587">
        <ele>138.09</ele>
        <time>2012-05-13T12:29:59Z</time>
      </trkpt>
      <trkpt lat="48.69995" lon="1.89592">
        <ele>138.57</ele>
        <time>2012-05-13T12:30:11Z</time>
      </trkpt>
      <trkpt lat="48.69984" lon="1.89591">
        <ele>138.09</ele>
        <time>2012-05-13T12:30:21Z</time>
      </trkpt>
      <trkpt lat="48.69969" lon="1.89585">
        <ele>137.61</ele>
        <time>2012-05-13T12:30:35Z</time>
      </trkpt>
      <trkpt lat="48.6996" lon="1.89582">
        <ele>137.61</ele>
        <time>2012-05-13T12:30:43Z</time>
      </trkpt>
      <trkpt lat="48.69943" lon="1.89575">
        <ele>138.09</ele>
        <time>2012-05-13T12:30:58Z</time>
      </trkpt>
      <trkpt lat="48.69929" lon="1.89573">
        <ele>138.09</ele>
        <time>2012-05-13T12:31:11Z</time>
      </trkpt>
      <trkpt lat="48.69926" lon="1.89572">
        <ele>138.57</ele>
        <time>2012-05-13T12:31:25Z</time>
      </trkpt>
      <trkpt lat="48.69914" lon="1.89569">
        <ele>138.57</ele>
        <time>2012-05-13T12:31:37Z</time>
      </trkpt>
      <trkpt lat="48.69901" lon="1.89572">
        <ele>138.09</ele>
        <time>2012-05-13T12:31:50Z</time>
      </trkpt>
      <trkpt lat="48.69887" lon="1.89576">
        <ele>138.57</ele>
        <time>2012-05-13T12:32:04Z</time>
      </trkpt>
      <trkpt lat="48.69885" lon="1.89576">
        <ele>138.57</ele>
        <time>2012-05-13T12:32:06Z</time>
      </trkpt>
      <trkpt lat="48.69878" lon="1.89579">
        <ele>138.57</ele>
        <time>2012-05-13T12:32:18Z</time>
      </trkpt>
      <trkpt lat="48.69876" lon="1.8958">
        <ele>138.57</ele>
        <time>2012-05-13T12:32:20Z</time>
      </trkpt>
      <trkpt lat="48.69874" lon="1.8958">
        <ele>138.57</ele>
        <time>2012-05-13T12:32:22Z</time>
      </trkpt>
      <trkpt lat="48.69871" lon="1.89581">
        <ele>138.09</ele>
        <time>2012-05-13T12:32:24Z</time>
      </trkpt>
      <trkpt lat="48.69865" lon="1.89584">
        <ele>138.57</ele>
        <time>2012-05-13T12:32:35Z</time>
      </trkpt>
      <trkpt lat="48.69853" lon="1.89594">
        <ele>138.57</ele>
        <time>2012-05-13T12:32:49Z</time>
      </trkpt>
      <trkpt lat="48.69845" lon="1.89602">
        <ele>139.05</ele>
        <time>2012-05-13T12:33:02Z</time>
      </trkpt>
      <trkpt lat="48.69845" lon="1.89602">
        <ele>135.2</ele>
        <time>2012-05-13T12:33:07Z</time>
      </trkpt>
      <trkpt lat="48.69845" lon="1.89602">
        <ele>139.53</ele>
        <time>2012-05-13T12:33:08Z</time>
      </trkpt>
      <trkpt lat="48.69845" lon="1.89602">
        <ele>138.57</ele>
        <time>2012-05-13T12:33:23Z</time>
      </trkpt>
      <trkpt lat="48.69844" lon="1.89602">
        <ele>138.57</ele>
        <time>2012-05-13T12:33:46Z</time>
      </trkpt>
      <trkpt lat="48.69843" lon="1.89603">
        <ele>139.05</ele>
        <time>2012-05-13T12:33:59Z</time>
      </trkpt>
      <trkpt lat="48.69848" lon="1.89614">
        <ele>138.57</ele>
        <time>2012-05-13T12:34:12Z</time>
      </trkpt>
      <trkpt lat="48.69853" lon="1.89626">
        <ele>139.05</ele>
        <time>2012-05-13T12:34:25Z</time>
      </trkpt>
      <trkpt lat="48.69859" lon="1.8964">
        <ele>138.57</ele>
        <time>2012-05-13T12:34:38Z</time>
      </trkpt>
      <trkpt lat="48.69864" lon="1.89656">
        <ele>137.61</ele>
        <time>2012-05-13T12:34:53Z</time>
      </trkpt>
      <trkpt lat="48.69867" lon="1.89674">
        <ele>136.64</ele>
        <time>2012-05-13T12:35:08Z</time>
      </trkpt>
      <trkpt lat="48.69872" lon="1.8969">
        <ele>136.16</ele>
        <time>2012-05-13T12:35:21Z</time>
      </trkpt>
      <trkpt lat="48.69874" lon="1.89691">
        <ele>136.16</ele>
        <time>2012-05-13T12:35:35Z</time>
      </trkpt>
      <trkpt lat="48.69878" lon="1.89692">
        <ele>136.16</ele>
        <time>2012-05-13T12:35:48Z</time>
      </trkpt>
      <trkpt lat="48.69884" lon="1.8969">
        <ele>136.16</ele>
        <time>2012-05-13T12:35:58Z</time>
      </trkpt>
      <trkpt lat="48.6989" lon="1.89691">
        <ele>135.68</ele>
        <time>2012-05-13T12:36:11Z</time>
      </trkpt>
      <trkpt lat="48.69898" lon="1.89698">
        <ele>135.2</ele>
        <time>2012-05-13T12:36:24Z</time>
      </trkpt>
      <trkpt lat="48.69901" lon="1.89701">
        <ele>135.2</ele>
        <time>2012-05-13T12:36:34Z</time>
      </trkpt>
      <trkpt lat="48.69905" lon="1.89703">
        <ele>135.2</ele>
        <time>2012-05-13T12:36:46Z</time>
      </trkpt>
      <trkpt lat="48.6991" lon="1.8971">
        <ele>135.2</ele>
        <time>2012-05-13T12:37:00Z</time>
      </trkpt>
      <trkpt lat="48.69919" lon="1.89712">
        <ele>134.24</ele>
        <time>2012-05-13T12:37:13Z</time>
      </trkpt>
      <trkpt lat="48.69925" lon="1.89714">
        <ele>134.24</ele>
        <time>2012-05-13T12:37:25Z</time>
      </trkpt>
      <trkpt lat="48.69926" lon="1.89722">
        <ele>133.76</ele>
        <time>2012-05-13T12:37:40Z</time>
      </trkpt>
      <trkpt lat="48.69926" lon="1.89732">
        <ele>133.28</ele>
        <time>2012-05-13T12:37:50Z</time>
      </trkpt>
      <trkpt lat="48.69927" lon="1.89736">
        <ele>133.76</ele>
        <time>2012-05-13T12:38:02Z</time>
      </trkpt>
      <trkpt lat="48.69929" lon="1.89744">
        <ele>133.76</ele>
        <time>2012-05-13T12:38:15Z</time>
      </trkpt>
      <trkpt lat="48.69929" lon="1.89745">
        <ele>133.28</ele>
        <time>2012-05-13T12:38:25Z</time>
      </trkpt>
      <trkpt lat="48.69931" lon="1.8976">
        <ele>133.76</ele>
        <time>2012-05-13T12:38:36Z</time>
      </trkpt>
      <trkpt lat="48.69937" lon="1.8977">
        <ele>133.28</ele>
        <time>2012-05-13T12:38:47Z</time>
      </trkpt>
      <trkpt lat="48.69938" lon="1.89777">
        <ele>133.76</ele>
        <time>2012-05-13T12:39:00Z</time>
      </trkpt>
      <trkpt lat="48.6994" lon="1.8979">
        <ele>133.28</ele>
        <time>2012-05-13T12:39:13Z</time>
      </trkpt>
      <trkpt lat="48.69945" lon="1.89795">
        <ele>133.76</ele>
        <time>2012-05-13T12:39:23Z</time>
      </trkpt>
      <trkpt lat="48.69949" lon="1.89791">
        <ele>133.76</ele>
        <time>2012-05-13T12:39:38Z</time>
      </trkpt>
      <trkpt lat="48.69951" lon="1.89785">
        <ele>134.24</ele>
        <time>2012-05-13T12:39:47Z</time>
      </trkpt>
      <trkpt lat="48.69959" lon="1.89778">
        <ele>133.76</ele>
        <time>2012-05-13T12:39:59Z</time>
      </trkpt>
      <trkpt lat="48.69951" lon="1.89773">
        <ele>134.24</ele>
        <time>2012-05-13T12:40:12Z</time>
      </trkpt>
      <trkpt lat="48.69951" lon="1.89774">
        <ele>134.24</ele>
        <time>2012-05-13T12:40:13Z</time>
      </trkpt>
      <trkpt lat="48.69942" lon="1.89771">
        <ele>133.76</ele>
        <time>2012-05-13T12:40:27Z</time>
      </trkpt>
      <trkpt lat="48.69937" lon="1.8976">
        <ele>134.24</ele>
        <time>2012-05-13T12:40:42Z</time>
      </trkpt>
      <trkpt lat="48.69936" lon="1.8975">
        <ele>134.72</ele>
        <time>2012-05-13T12:40:52Z</time>
      </trkpt>
      <trkpt lat="48.69929" lon="1.89737">
        <ele>134.24</ele>
        <time>2012-05-13T12:41:00Z</time>
      </trkpt>
      <trkpt lat="48.69926" lon="1.89735">
        <ele>134.24</ele>
        <time>2012-05-13T12:41:02Z</time>
      </trkpt>
      <trkpt lat="48.69915" lon="1.89708">
        <ele>135.68</ele>
        <time>2012-05-13T12:41:17Z</time>
      </trkpt>
      <trkpt lat="48.69899" lon="1.89695">
        <ele>135.68</ele>
        <time>2012-05-13T12:41:29Z</time>
      </trkpt>
      <trkpt lat="48.69896" lon="1.8969">
        <ele>136.16</ele>
        <time>2012-05-13T12:41:33Z</time>
      </trkpt>
      <trkpt lat="48.69889" lon="1.89678">
        <ele>137.61</ele>
        <time>2012-05-13T12:41:46Z</time>
      </trkpt>
      <trkpt lat="48.69882" lon="1.89663">
        <ele>138.09</ele>
        <time>2012-05-13T12:42:02Z</time>
      </trkpt>
      <trkpt lat="48.6987" lon="1.89647">
        <ele>140.01</ele>
        <time>2012-05-13T12:42:17Z</time>
      </trkpt>
      <trkpt lat="48.6986" lon="1.89633">
        <ele>140.01</ele>
        <time>2012-05-13T12:42:31Z</time>
      </trkpt>
      <trkpt lat="48.69848" lon="1.89616">
        <ele>140.01</ele>
        <time>2012-05-13T12:42:46Z</time>
      </trkpt>
      <trkpt lat="48.69841" lon="1.89604">
        <ele>140.01</ele>
        <time>2012-05-13T12:42:58Z</time>
      </trkpt>
      <trkpt lat="48.69837" lon="1.89597">
        <ele>140.01</ele>
        <time>2012-05-13T12:43:10Z</time>
      </trkpt>
      <trkpt lat="48.69827" lon="1.89602">
        <ele>139.53</ele>
        <time>2012-05-13T12:43:22Z</time>
      </trkpt>
      <trkpt lat="48.69819" lon="1.89613">
        <ele>140.01</ele>
        <time>2012-05-13T12:43:34Z</time>
      </trkpt>
      <trkpt lat="48.69813" lon="1.89624">
        <ele>140.01</ele>
        <time>2012-05-13T12:43:47Z</time>
      </trkpt>
      <trkpt lat="48.69806" lon="1.8964">
        <ele>140.01</ele>
        <time>2012-05-13T12:43:57Z</time>
      </trkpt>
      <trkpt lat="48.698" lon="1.89657">
        <ele>139.53</ele>
        <time>2012-05-13T12:44:07Z</time>
      </trkpt>
      <trkpt lat="48.69792" lon="1.89681">
        <ele>139.05</ele>
        <time>2012-05-13T12:44:19Z</time>
      </trkpt>
      <trkpt lat="48.69791" lon="1.89683">
        <ele>138.57</ele>
        <time>2012-05-13T12:44:20Z</time>
      </trkpt>
      <trkpt lat="48.6979" lon="1.89687">
        <ele>138.57</ele>
        <time>2012-05-13T12:44:23Z</time>
      </trkpt>
      <trkpt lat="48.69792" lon="1.89702">
        <ele>138.57</ele>
        <time>2012-05-13T12:44:33Z</time>
      </trkpt>
      <trkpt lat="48.69793" lon="1.89708">
        <ele>138.57</ele>
        <time>2012-05-13T12:44:37Z</time>
      </trkpt>
      <trkpt lat="48.69795" lon="1.89728">
        <ele>138.57</ele>
        <time>2012-05-13T12:44:49Z</time>
      </trkpt>
      <trkpt lat="48.69796" lon="1.89732">
        <ele>138.09</ele>
        <time>2012-05-13T12:44:52Z</time>
      </trkpt>
      <trkpt lat="48.69797" lon="1.89739">
        <ele>138.57</ele>
        <time>2012-05-13T12:44:56Z</time>
      </trkpt>
      <trkpt lat="48.69803" lon="1.8976">
        <ele>138.57</ele>
        <time>2012-05-13T12:45:08Z</time>
      </trkpt>
      <trkpt lat="48.69805" lon="1.89767">
        <ele>138.57</ele>
        <time>2012-05-13T12:45:13Z</time>
      </trkpt>
      <trkpt lat="48.69807" lon="1.89779">
        <ele>138.09</ele>
        <time>2012-05-13T12:45:19Z</time>
      </trkpt>
      <trkpt lat="48.69811" lon="1.89791">
        <ele>138.09</ele>
        <time>2012-05-13T12:45:26Z</time>
      </trkpt>
      <trkpt lat="48.69813" lon="1.89801">
        <ele>138.09</ele>
        <time>2012-05-13T12:45:33Z</time>
      </trkpt>
      <trkpt lat="48.69817" lon="1.89814">
        <ele>138.09</ele>
        <time>2012-05-13T12:45:41Z</time>
      </trkpt>
      <trkpt lat="48.69817" lon="1.89817">
        <ele>137.61</ele>
        <time>2012-05-13T12:45:43Z</time>
      </trkpt>
      <trkpt lat="48.69817" lon="1.89827">
        <ele>138.09</ele>
        <time>2012-05-13T12:45:48Z</time>
      </trkpt>
      <trkpt lat="48.69818" lon="1.89838">
        <ele>137.61</ele>
        <time>2012-05-13T12:45:54Z</time>
      </trkpt>
      <trkpt lat="48.69821" lon="1.89849">
        <ele>138.09</ele>
        <time>2012-05-13T12:46:00Z</time>
      </trkpt>
      <trkpt lat="48.69825" lon="1.89863">
        <ele>138.09</ele>
        <time>2012-05-13T12:46:08Z</time>
      </trkpt>
      <trkpt lat="48.69829" lon="1.89886">
        <ele>137.61</ele>
        <time>2012-05-13T12:46:22Z</time>
      </trkpt>
      <trkpt lat="48.69833" lon="1.89896">
        <ele>137.61</ele>
        <time>2012-05-13T12:46:27Z</time>
      </trkpt>
      <trkpt lat="48.69836" lon="1.8991">
        <ele>137.13</ele>
        <time>2012-05-13T12:46:33Z</time>
      </trkpt>
      <trkpt lat="48.69839" lon="1.89922">
        <ele>137.13</ele>
        <time>2012-05-13T12:46:38Z</time>
      </trkpt>
      <trkpt lat="48.6984" lon="1.89928">
        <ele>137.13</ele>
        <time>2012-05-13T12:46:41Z</time>
      </trkpt>
      <trkpt lat="48.6984" lon="1.89941">
        <ele>137.61</ele>
        <time>2012-05-13T12:46:47Z</time>
      </trkpt>
      <trkpt lat="48.69838" lon="1.89979">
        <ele>137.61</ele>
        <time>2012-05-13T12:47:03Z</time>
      </trkpt>
      <trkpt lat="48.69841" lon="1.89993">
        <ele>138.09</ele>
        <time>2012-05-13T12:47:08Z</time>
      </trkpt>
      <trkpt lat="48.69843" lon="1.90017">
        <ele>138.57</ele>
        <time>2012-05-13T12:47:17Z</time>
      </trkpt>
      <trkpt lat="48.69841" lon="1.90052">
        <ele>140.01</ele>
        <time>2012-05-13T12:47:33Z</time>
      </trkpt>
      <trkpt lat="48.69841" lon="1.90069">
        <ele>140.01</ele>
        <time>2012-05-13T12:47:42Z</time>
      </trkpt>
      <trkpt lat="48.6984" lon="1.90088">
        <ele>140.49</ele>
        <time>2012-05-13T12:47:51Z</time>
      </trkpt>
      <trkpt lat="48.69841" lon="1.90103">
        <ele>140.49</ele>
        <time>2012-05-13T12:47:59Z</time>
      </trkpt>
      <trkpt lat="48.6984" lon="1.90119">
        <ele>140.97</ele>
        <time>2012-05-13T12:48:07Z</time>
      </trkpt>
      <trkpt lat="48.6984" lon="1.9013">
        <ele>141.45</ele>
        <time>2012-05-13T12:48:12Z</time>
      </trkpt>
      <trkpt lat="48.6984" lon="1.90138">
        <ele>141.45</ele>
        <time>2012-05-13T12:48:16Z</time>
      </trkpt>
      <trkpt lat="48.69838" lon="1.90146">
        <ele>141.93</ele>
        <time>2012-05-13T12:48:21Z</time>
      </trkpt>
      <trkpt lat="48.69836" lon="1.90162">
        <ele>142.89</ele>
        <time>2012-05-13T12:48:30Z</time>
      </trkpt>
      <trkpt lat="48.69837" lon="1.90175">
        <ele>142.41</ele>
        <time>2012-05-13T12:48:38Z</time>
      </trkpt>
      <trkpt lat="48.69833" lon="1.90187">
        <ele>142.41</ele>
        <time>2012-05-13T12:48:45Z</time>
      </trkpt>
      <trkpt lat="48.69833" lon="1.90193">
        <ele>142.41</ele>
        <time>2012-05-13T12:48:48Z</time>
      </trkpt>
      <trkpt lat="48.69833" lon="1.90198">
        <ele>142.41</ele>
        <time>2012-05-13T12:48:51Z</time>
      </trkpt>
      <trkpt lat="48.69833" lon="1.90218">
        <ele>142.89</ele>
        <time>2012-05-13T12:49:01Z</time>
      </trkpt>
      <trkpt lat="48.69832" lon="1.90222">
        <ele>142.41</ele>
        <time>2012-05-13T12:49:03Z</time>
      </trkpt>
      <trkpt lat="48.69833" lon="1.90228">
        <ele>142.89</ele>
        <time>2012-05-13T12:49:06Z</time>
      </trkpt>
      <trkpt lat="48.69831" lon="1.90236">
        <ele>142.89</ele>
        <time>2012-05-13T12:49:10Z</time>
      </trkpt>
      <trkpt lat="48.6983" lon="1.90251">
        <ele>142.89</ele>
        <time>2012-05-13T12:49:18Z</time>
      </trkpt>
      <trkpt lat="48.69831" lon="1.90264">
        <ele>143.37</ele>
        <time>2012-05-13T12:49:33Z</time>
      </trkpt>
      <trkpt lat="48.69833" lon="1.90273">
        <ele>143.37</ele>
        <time>2012-05-13T12:49:38Z</time>
      </trkpt>
      <trkpt lat="48.69835" lon="1.90278">
        <ele>143.37</ele>
        <time>2012-05-13T12:49:41Z</time>
      </trkpt>
      <trkpt lat="48.69836" lon="1.90284">
        <ele>143.85</ele>
        <time>2012-05-13T12:49:44Z</time>
      </trkpt>
      <trkpt lat="48.69837" lon="1.90289">
        <ele>143.37</ele>
        <time>2012-05-13T12:49:47Z</time>
      </trkpt>
      <trkpt lat="48.69837" lon="1.90295">
        <ele>143.37</ele>
        <time>2012-05-13T12:49:51Z</time>
      </trkpt>
      <trkpt lat="48.69839" lon="1.90301">
        <ele>143.37</ele>
        <time>2012-05-13T12:49:54Z</time>
      </trkpt>
      <trkpt lat="48.6984" lon="1.90312">
        <ele>143.37</ele>
        <time>2012-05-13T12:50:00Z</time>
      </trkpt>
      <trkpt lat="48.6984" lon="1.90323">
        <ele>142.89</ele>
        <time>2012-05-13T12:50:05Z</time>
      </trkpt>
      <trkpt lat="48.69841" lon="1.90332">
        <ele>143.37</ele>
        <time>2012-05-13T12:50:10Z</time>
      </trkpt>
      <trkpt lat="48.69844" lon="1.9035">
        <ele>143.37</ele>
        <time>2012-05-13T12:50:20Z</time>
      </trkpt>
      <trkpt lat="48.69842" lon="1.90363">
        <ele>143.37</ele>
        <time>2012-05-13T12:50:26Z</time>
      </trkpt>
      <trkpt lat="48.69846" lon="1.90393">
        <ele>141.93</ele>
        <time>2012-05-13T12:50:41Z</time>
      </trkpt>
      <trkpt lat="48.69847" lon="1.90399">
        <ele>141.45</ele>
        <time>2012-05-13T12:50:45Z</time>
      </trkpt>
      <trkpt lat="48.69854" lon="1.9042">
        <ele>141.45</ele>
        <time>2012-05-13T12:50:56Z</time>
      </trkpt>
      <trkpt lat="48.69859" lon="1.90433">
        <ele>140.49</ele>
        <time>2012-05-13T12:51:03Z</time>
      </trkpt>
      <trkpt lat="48.69868" lon="1.90457">
        <ele>140.49</ele>
        <time>2012-05-13T12:51:17Z</time>
      </trkpt>
      <trkpt lat="48.69876" lon="1.9047">
        <ele>140.01</ele>
        <time>2012-05-13T12:51:26Z</time>
      </trkpt>
      <trkpt lat="48.69885" lon="1.90488">
        <ele>139.53</ele>
        <time>2012-05-13T12:51:40Z</time>
      </trkpt>
      <trkpt lat="48.69892" lon="1.90493">
        <ele>139.53</ele>
        <time>2012-05-13T12:51:49Z</time>
      </trkpt>
      <trkpt lat="48.69901" lon="1.90496">
        <ele>139.05</ele>
        <time>2012-05-13T12:51:56Z</time>
      </trkpt>
      <trkpt lat="48.69907" lon="1.90499">
        <ele>138.57</ele>
        <time>2012-05-13T12:52:01Z</time>
      </trkpt>
      <trkpt lat="48.69925" lon="1.90505">
        <ele>137.61</ele>
        <time>2012-05-13T12:52:13Z</time>
      </trkpt>
      <trkpt lat="48.69931" lon="1.90506">
        <ele>136.64</ele>
        <time>2012-05-13T12:52:16Z</time>
      </trkpt>
      <trkpt lat="48.69945" lon="1.90513">
        <ele>136.16</ele>
        <time>2012-05-13T12:52:29Z</time>
      </trkpt>
      <trkpt lat="48.69949" lon="1.90517">
        <ele>135.2</ele>
        <time>2012-05-13T12:52:34Z</time>
      </trkpt>
      <trkpt lat="48.69963" lon="1.90525">
        <ele>134.24</ele>
        <time>2012-05-13T12:52:45Z</time>
      </trkpt>
      <trkpt lat="48.69965" lon="1.90526">
        <ele>133.76</ele>
        <time>2012-05-13T12:52:46Z</time>
      </trkpt>
      <trkpt lat="48.69968" lon="1.90531">
        <ele>134.24</ele>
        <time>2012-05-13T12:52:51Z</time>
      </trkpt>
      <trkpt lat="48.69985" lon="1.90545">
        <ele>133.28</ele>
        <time>2012-05-13T12:53:04Z</time>
      </trkpt>
      <trkpt lat="48.69993" lon="1.90556">
        <ele>132.8</ele>
        <time>2012-05-13T12:53:16Z</time>
      </trkpt>
      <trkpt lat="48.70011" lon="1.90559">
        <ele>132.8</ele>
        <time>2012-05-13T12:53:31Z</time>
      </trkpt>
      <trkpt lat="48.70012" lon="1.90559">
        <ele>133.28</ele>
        <time>2012-05-13T12:53:32Z</time>
      </trkpt>
      <trkpt lat="48.70029" lon="1.90564">
        <ele>133.76</ele>
        <time>2012-05-13T12:53:46Z</time>
      </trkpt>
      <trkpt lat="48.70042" lon="1.90572">
        <ele>134.72</ele>
        <time>2012-05-13T12:53:57Z</time>
      </trkpt>
      <trkpt lat="48.70044" lon="1.90575">
        <ele>134.72</ele>
        <time>2012-05-13T12:54:00Z</time>
      </trkpt>
      <trkpt lat="48.7005" lon="1.90589">
        <ele>135.2</ele>
        <time>2012-05-13T12:54:10Z</time>
      </trkpt>
      <trkpt lat="48.70057" lon="1.90605">
        <ele>134.24</ele>
        <time>2012-05-13T12:54:20Z</time>
      </trkpt>
      <trkpt lat="48.70058" lon="1.90607">
        <ele>134.24</ele>
        <time>2012-05-13T12:54:21Z</time>
      </trkpt>
      <trkpt lat="48.70059" lon="1.90611">
        <ele>134.72</ele>
        <time>2012-05-13T12:54:23Z</time>
      </trkpt>
      <trkpt lat="48.70061" lon="1.90617">
        <ele>134.72</ele>
        <time>2012-05-13T12:54:27Z</time>
      </trkpt>
      <trkpt lat="48.70064" lon="1.90628">
        <ele>135.2</ele>
        <time>2012-05-13T12:54:38Z</time>
      </trkpt>
      <trkpt lat="48.70064" lon="1.9063">
        <ele>135.2</ele>
        <time>2012-05-13T12:54:39Z</time>
      </trkpt>
      <trkpt lat="48.70072" lon="1.9065">
        <ele>135.2</ele>
        <time>2012-05-13T12:54:52Z</time>
      </trkpt>
      <trkpt lat="48.70073" lon="1.9066">
        <ele>135.68</ele>
        <time>2012-05-13T12:54:58Z</time>
      </trkpt>
      <trkpt lat="48.70073" lon="1.90672">
        <ele>136.64</ele>
        <time>2012-05-13T12:55:07Z</time>
      </trkpt>
      <trkpt lat="48.7007" lon="1.90682">
        <ele>135.2</ele>
        <time>2012-05-13T12:55:13Z</time>
      </trkpt>
      <trkpt lat="48.70056" lon="1.90696">
        <ele>134.24</ele>
        <time>2012-05-13T12:55:26Z</time>
      </trkpt>
      <trkpt lat="48.70048" lon="1.90702">
        <ele>134.72</ele>
        <time>2012-05-13T12:55:32Z</time>
      </trkpt>
      <trkpt lat="48.70034" lon="1.90716">
        <ele>133.76</ele>
        <time>2012-05-13T12:55:45Z</time>
      </trkpt>
      <trkpt lat="48.70026" lon="1.90731">
        <ele>133.76</ele>
        <time>2012-05-13T12:55:55Z</time>
      </trkpt>
      <trkpt lat="48.70024" lon="1.90736">
        <ele>133.76</ele>
        <time>2012-05-13T12:55:58Z</time>
      </trkpt>
      <trkpt lat="48.7002" lon="1.90744">
        <ele>135.2</ele>
        <time>2012-05-13T12:56:04Z</time>
      </trkpt>
      <trkpt lat="48.70009" lon="1.90756">
        <ele>134.72</ele>
        <time>2012-05-13T12:56:15Z</time>
      </trkpt>
      <trkpt lat="48.70007" lon="1.90757">
        <ele>134.24</ele>
        <time>2012-05-13T12:56:27Z</time>
      </trkpt>
      <trkpt lat="48.70007" lon="1.90757">
        <ele>133.76</ele>
        <time>2012-05-13T12:56:50Z</time>
      </trkpt>
      <trkpt lat="48.70007" lon="1.90757">
        <ele>135.2</ele>
        <time>2012-05-13T12:57:11Z</time>
      </trkpt>
      <trkpt lat="48.70006" lon="1.90764">
        <ele>135.68</ele>
        <time>2012-05-13T12:57:22Z</time>
      </trkpt>
      <trkpt lat="48.70005" lon="1.90773">
        <ele>135.68</ele>
        <time>2012-05-13T12:57:27Z</time>
      </trkpt>
      <trkpt lat="48.7" lon="1.90778">
        <ele>135.68</ele>
        <time>2012-05-13T12:57:33Z</time>
      </trkpt>
      <trkpt lat="48.69997" lon="1.90786">
        <ele>136.16</ele>
        <time>2012-05-13T12:57:38Z</time>
      </trkpt>
      <trkpt lat="48.69991" lon="1.90809">
        <ele>136.16</ele>
        <time>2012-05-13T12:57:53Z</time>
      </trkpt>
      <trkpt lat="48.69989" lon="1.90813">
        <ele>136.64</ele>
        <time>2012-05-13T12:57:58Z</time>
      </trkpt>
      <trkpt lat="48.69982" lon="1.90822">
        <ele>136.64</ele>
        <time>2012-05-13T12:58:07Z</time>
      </trkpt>
      <trkpt lat="48.69973" lon="1.90843">
        <ele>137.13</ele>
        <time>2012-05-13T12:58:17Z</time>
      </trkpt>
      <trkpt lat="48.69964" lon="1.90864">
        <ele>137.61</ele>
        <time>2012-05-13T12:58:28Z</time>
      </trkpt>
      <trkpt lat="48.69958" lon="1.90879">
        <ele>138.09</ele>
        <time>2012-05-13T12:58:37Z</time>
      </trkpt>
      <trkpt lat="48.69956" lon="1.9089">
        <ele>139.05</ele>
        <time>2012-05-13T12:58:46Z</time>
      </trkpt>
      <trkpt lat="48.69955" lon="1.90898">
        <ele>139.53</ele>
        <time>2012-05-13T12:58:51Z</time>
      </trkpt>
      <trkpt lat="48.69954" lon="1.90903">
        <ele>139.53</ele>
        <time>2012-05-13T12:58:54Z</time>
      </trkpt>
      <trkpt lat="48.69955" lon="1.9091">
        <ele>140.01</ele>
        <time>2012-05-13T12:58:58Z</time>
      </trkpt>
      <trkpt lat="48.69954" lon="1.90915">
        <ele>140.49</ele>
        <time>2012-05-13T12:59:01Z</time>
      </trkpt>
      <trkpt lat="48.69953" lon="1.90938">
        <ele>140.97</ele>
        <time>2012-05-13T12:59:13Z</time>
      </trkpt>
      <trkpt lat="48.69953" lon="1.90939">
        <ele>141.45</ele>
        <time>2012-05-13T12:59:15Z</time>
      </trkpt>
      <trkpt lat="48.69952" lon="1.90943">
        <ele>141.93</ele>
        <time>2012-05-13T12:59:17Z</time>
      </trkpt>
      <trkpt lat="48.69951" lon="1.90956">
        <ele>141.93</ele>
        <time>2012-05-13T12:59:23Z</time>
      </trkpt>
      <trkpt lat="48.6995" lon="1.90961">
        <ele>141.93</ele>
        <time>2012-05-13T12:59:26Z</time>
      </trkpt>
      <trkpt lat="48.69947" lon="1.90977">
        <ele>140.97</ele>
        <time>2012-05-13T12:59:32Z</time>
      </trkpt>
      <trkpt lat="48.69948" lon="1.90983">
        <ele>140.49</ele>
        <time>2012-05-13T12:59:35Z</time>
      </trkpt>
      <trkpt lat="48.69946" lon="1.90994">
        <ele>139.53</ele>
        <time>2012-05-13T12:59:41Z</time>
      </trkpt>
      <trkpt lat="48.69945" lon="1.90998">
        <ele>139.53</ele>
        <time>2012-05-13T12:59:43Z</time>
      </trkpt>
      <trkpt lat="48.69946" lon="1.91003">
        <ele>139.05</ele>
        <time>2012-05-13T12:59:46Z</time>
      </trkpt>
      <trkpt lat="48.69944" lon="1.91007">
        <ele>139.05</ele>
        <time>2012-05-13T12:59:48Z</time>
      </trkpt>
      <trkpt lat="48.69937" lon="1.91039">
        <ele>138.09</ele>
        <time>2012-05-13T13:00:02Z</time>
      </trkpt>
      <trkpt lat="48.69936" lon="1.91061">
        <ele>136.16</ele>
        <time>2012-05-13T13:00:12Z</time>
      </trkpt>
      <trkpt lat="48.69933" lon="1.91076">
        <ele>134.72</ele>
        <time>2012-05-13T13:00:23Z</time>
      </trkpt>
      <trkpt lat="48.6993" lon="1.91088">
        <ele>134.24</ele>
        <time>2012-05-13T13:00:29Z</time>
      </trkpt>
      <trkpt lat="48.6993" lon="1.91114">
        <ele>134.72</ele>
        <time>2012-05-13T13:00:43Z</time>
      </trkpt>
      <trkpt lat="48.69929" lon="1.91116">
        <ele>135.2</ele>
        <time>2012-05-13T13:00:44Z</time>
      </trkpt>
      <trkpt lat="48.69929" lon="1.91138">
        <ele>134.24</ele>
        <time>2012-05-13T13:00:55Z</time>
      </trkpt>
      <trkpt lat="48.6993" lon="1.91143">
        <ele>134.72</ele>
        <time>2012-05-13T13:00:58Z</time>
      </trkpt>
      <trkpt lat="48.6993" lon="1.91166">
        <ele>134.72</ele>
        <time>2012-05-13T13:01:10Z</time>
      </trkpt>
      <trkpt lat="48.69923" lon="1.91195">
        <ele>133.76</ele>
        <time>2012-05-13T13:01:24Z</time>
      </trkpt>
      <trkpt lat="48.69911" lon="1.9122">
        <ele>133.28</ele>
        <time>2012-05-13T13:01:40Z</time>
      </trkpt>
      <trkpt lat="48.699" lon="1.91231">
        <ele>133.76</ele>
        <time>2012-05-13T13:01:53Z</time>
      </trkpt>
      <trkpt lat="48.69885" lon="1.91239">
        <ele>133.76</ele>
        <time>2012-05-13T13:02:06Z</time>
      </trkpt>
      <trkpt lat="48.69881" lon="1.91243">
        <ele>132.8</ele>
        <time>2012-05-13T13:02:11Z</time>
      </trkpt>
      <trkpt lat="48.6988" lon="1.91249">
        <ele>133.28</ele>
        <time>2012-05-13T13:02:15Z</time>
      </trkpt>
      <trkpt lat="48.69881" lon="1.91272">
        <ele>133.76</ele>
        <time>2012-05-13T13:02:28Z</time>
      </trkpt>
      <trkpt lat="48.69881" lon="1.91274">
        <ele>133.28</ele>
        <time>2012-05-13T13:02:29Z</time>
      </trkpt>
      <trkpt lat="48.69881" lon="1.91282">
        <ele>133.28</ele>
        <time>2012-05-13T13:02:33Z</time>
      </trkpt>
      <trkpt lat="48.69883" lon="1.91298">
        <ele>133.28</ele>
        <time>2012-05-13T13:02:44Z</time>
      </trkpt>
      <trkpt lat="48.69883" lon="1.91302">
        <ele>133.28</ele>
        <time>2012-05-13T13:02:46Z</time>
      </trkpt>
      <trkpt lat="48.69875" lon="1.91332">
        <ele>133.76</ele>
        <time>2012-05-13T13:03:01Z</time>
      </trkpt>
      <trkpt lat="48.69875" lon="1.91336">
        <ele>133.28</ele>
        <time>2012-05-13T13:03:03Z</time>
      </trkpt>
      <trkpt lat="48.69869" lon="1.91358">
        <ele>133.76</ele>
        <time>2012-05-13T13:03:16Z</time>
      </trkpt>
      <trkpt lat="48.6987" lon="1.91362">
        <ele>133.76</ele>
        <time>2012-05-13T13:03:18Z</time>
      </trkpt>
      <trkpt lat="48.69871" lon="1.91379">
        <ele>134.72</ele>
        <time>2012-05-13T13:03:30Z</time>
      </trkpt>
      <trkpt lat="48.69871" lon="1.91395">
        <ele>133.76</ele>
        <time>2012-05-13T13:03:41Z</time>
      </trkpt>
      <trkpt lat="48.69868" lon="1.91414">
        <ele>133.76</ele>
        <time>2012-05-13T13:03:53Z</time>
      </trkpt>
      <trkpt lat="48.69861" lon="1.91431">
        <ele>133.76</ele>
        <time>2012-05-13T13:04:04Z</time>
      </trkpt>
      <trkpt lat="48.69847" lon="1.91444">
        <ele>134.24</ele>
        <time>2012-05-13T13:04:16Z</time>
      </trkpt>
      <trkpt lat="48.69834" lon="1.91459">
        <ele>133.28</ele>
        <time>2012-05-13T13:04:29Z</time>
      </trkpt>
      <trkpt lat="48.69833" lon="1.91458">
        <ele>134.24</ele>
        <time>2012-05-13T13:04:38Z</time>
      </trkpt>
      <trkpt lat="48.69835" lon="1.91474">
        <ele>133.76</ele>
        <time>2012-05-13T13:04:50Z</time>
      </trkpt>
      <trkpt lat="48.69835" lon="1.91475">
        <ele>134.24</ele>
        <time>2012-05-13T13:04:51Z</time>
      </trkpt>
      <trkpt lat="48.69843" lon="1.91493">
        <ele>135.2</ele>
        <time>2012-05-13T13:05:03Z</time>
      </trkpt>
      <trkpt lat="48.69854" lon="1.91514">
        <ele>136.16</ele>
        <time>2012-05-13T13:05:16Z</time>
      </trkpt>
      <trkpt lat="48.6986" lon="1.91523">
        <ele>137.61</ele>
        <time>2012-05-13T13:05:23Z</time>
      </trkpt>
      <trkpt lat="48.69863" lon="1.91527">
        <ele>138.57</ele>
        <time>2012-05-13T13:05:27Z</time>
      </trkpt>
      <trkpt lat="48.69869" lon="1.91539">
        <ele>140.49</ele>
        <time>2012-05-13T13:05:36Z</time>
      </trkpt>
      <trkpt lat="48.69875" lon="1.91546">
        <ele>142.41</ele>
        <time>2012-05-13T13:05:42Z</time>
      </trkpt>
      <trkpt lat="48.69879" lon="1.91561">
        <ele>145.3</ele>
        <time>2012-05-13T13:05:55Z</time>
      </trkpt>
      <trkpt lat="48.6988" lon="1.91562">
        <ele>144.82</ele>
        <time>2012-05-13T13:05:56Z</time>
      </trkpt>
      <trkpt lat="48.69889" lon="1.91577">
        <ele>147.22</ele>
        <time>2012-05-13T13:06:08Z</time>
      </trkpt>
      <trkpt lat="48.69889" lon="1.91593">
        <ele>149.14</ele>
        <time>2012-05-13T13:06:18Z</time>
      </trkpt>
      <trkpt lat="48.69889" lon="1.916">
        <ele>150.58</ele>
        <time>2012-05-13T13:06:24Z</time>
      </trkpt>
      <trkpt lat="48.6989" lon="1.91606">
        <ele>151.54</ele>
        <time>2012-05-13T13:06:28Z</time>
      </trkpt>
      <trkpt lat="48.69893" lon="1.91619">
        <ele>153.47</ele>
        <time>2012-05-13T13:06:40Z</time>
      </trkpt>
      <trkpt lat="48.69894" lon="1.91634">
        <ele>155.87</ele>
        <time>2012-05-13T13:06:51Z</time>
      </trkpt>
      <trkpt lat="48.69891" lon="1.91638">
        <ele>156.83</ele>
        <time>2012-05-13T13:06:56Z</time>
      </trkpt>
      <trkpt lat="48.69889" lon="1.91653">
        <ele>159.24</ele>
        <time>2012-05-13T13:07:07Z</time>
      </trkpt>
      <trkpt lat="48.69888" lon="1.91655">
        <ele>159.72</ele>
        <time>2012-05-13T13:07:10Z</time>
      </trkpt>
      <trkpt lat="48.69886" lon="1.91669">
        <ele>162.12</ele>
        <time>2012-05-13T13:07:21Z</time>
      </trkpt>
      <trkpt lat="48.69885" lon="1.9168">
        <ele>164.04</ele>
        <time>2012-05-13T13:07:30Z</time>
      </trkpt>
      <trkpt lat="48.69884" lon="1.91683">
        <ele>165</ele>
        <time>2012-05-13T13:07:33Z</time>
      </trkpt>
      <trkpt lat="48.69878" lon="1.91693">
        <ele>167.41</ele>
        <time>2012-05-13T13:07:42Z</time>
      </trkpt>
      <trkpt lat="48.69877" lon="1.91704">
        <ele>168.85</ele>
        <time>2012-05-13T13:07:52Z</time>
      </trkpt>
      <trkpt lat="48.69877" lon="1.91719">
        <ele>170.77</ele>
        <time>2012-05-13T13:08:02Z</time>
      </trkpt>
      <trkpt lat="48.69874" lon="1.91727">
        <ele>172.69</ele>
        <time>2012-05-13T13:08:09Z</time>
      </trkpt>
      <trkpt lat="48.69866" lon="1.91744">
        <ele>175.1</ele>
        <time>2012-05-13T13:08:20Z</time>
      </trkpt>
      <trkpt lat="48.69864" lon="1.91761">
        <ele>177.5</ele>
        <time>2012-05-13T13:08:33Z</time>
      </trkpt>
      <trkpt lat="48.69862" lon="1.91773">
        <ele>178.46</ele>
        <time>2012-05-13T13:08:49Z</time>
      </trkpt>
      <trkpt lat="48.69862" lon="1.91773">
        <ele>178.94</ele>
        <time>2012-05-13T13:09:06Z</time>
      </trkpt>
      <trkpt lat="48.69863" lon="1.91774">
        <ele>178.46</ele>
        <time>2012-05-13T13:09:24Z</time>
      </trkpt>
      <trkpt lat="48.69863" lon="1.91774">
        <ele>178.46</ele>
        <time>2012-05-13T13:09:48Z</time>
      </trkpt>
      <trkpt lat="48.69863" lon="1.91774">
        <ele>178.46</ele>
        <time>2012-05-13T13:10:11Z</time>
      </trkpt>
      <trkpt lat="48.69863" lon="1.91774">
        <ele>178.94</ele>
        <time>2012-05-13T13:10:36Z</time>
      </trkpt>
      <trkpt lat="48.69863" lon="1.91774">
        <ele>179.42</ele>
        <time>2012-05-13T13:11:01Z</time>
      </trkpt>
      <trkpt lat="48.69863" lon="1.91774">
        <ele>178.94</ele>
        <time>2012-05-13T13:11:30Z</time>
      </trkpt>
      <trkpt lat="48.69863" lon="1.91774">
        <ele>178.46</ele>
        <time>2012-05-13T13:11:57Z</time>
      </trkpt>
      <trkpt lat="48.69863" lon="1.91774">
        <ele>179.42</ele>
        <time>2012-05-13T13:12:24Z</time>
      </trkpt>
      <trkpt lat="48.69858" lon="1.91774">
        <ele>178.94</ele>
        <time>2012-05-13T13:12:34Z</time>
      </trkpt>
      <trkpt lat="48.6984" lon="1.91771">
        <ele>179.42</ele>
        <time>2012-05-13T13:12:47Z</time>
      </trkpt>
      <trkpt lat="48.6983" lon="1.91766">
        <ele>179.9</ele>
        <time>2012-05-13T13:12:57Z</time>
      </trkpt>
      <trkpt lat="48.69827" lon="1.91765">
        <ele>179.42</ele>
        <time>2012-05-13T13:12:59Z</time>
      </trkpt>
      <trkpt lat="48.69821" lon="1.91763">
        <ele>178.94</ele>
        <time>2012-05-13T13:13:06Z</time>
      </trkpt>
      <trkpt lat="48.69815" lon="1.9176">
        <ele>179.42</ele>
        <time>2012-05-13T13:13:09Z</time>
      </trkpt>
      <trkpt lat="48.69807" lon="1.91759">
        <ele>178.94</ele>
        <time>2012-05-13T13:13:15Z</time>
      </trkpt>
      <trkpt lat="48.6979" lon="1.9175">
        <ele>178.46</ele>
        <time>2012-05-13T13:13:27Z</time>
      </trkpt>
      <trkpt lat="48.69784" lon="1.91747">
        <ele>178.46</ele>
        <time>2012-05-13T13:13:31Z</time>
      </trkpt>
      <trkpt lat="48.69777" lon="1.9174">
        <ele>178.46</ele>
        <time>2012-05-13T13:13:37Z</time>
      </trkpt>
      <trkpt lat="48.69769" lon="1.91731">
        <ele>177.98</ele>
        <time>2012-05-13T13:13:44Z</time>
      </trkpt>
      <trkpt lat="48.69766" lon="1.91725">
        <ele>177.98</ele>
        <time>2012-05-13T13:13:47Z</time>
      </trkpt>
      <trkpt lat="48.69759" lon="1.91719">
        <ele>177.5</ele>
        <time>2012-05-13T13:13:52Z</time>
      </trkpt>
      <trkpt lat="48.69751" lon="1.9171">
        <ele>177.02</ele>
        <time>2012-05-13T13:14:02Z</time>
      </trkpt>
      <trkpt lat="48.69746" lon="1.91702">
        <ele>177.5</ele>
        <time>2012-05-13T13:14:08Z</time>
      </trkpt>
      <trkpt lat="48.6974" lon="1.91697">
        <ele>177.5</ele>
        <time>2012-05-13T13:14:13Z</time>
      </trkpt>
      <trkpt lat="48.69737" lon="1.91695">
        <ele>177.02</ele>
        <time>2012-05-13T13:14:16Z</time>
      </trkpt>
      <trkpt lat="48.69736" lon="1.91694">
        <ele>177.5</ele>
        <time>2012-05-13T13:14:18Z</time>
      </trkpt>
      <trkpt lat="48.6973" lon="1.91687">
        <ele>177.98</ele>
        <time>2012-05-13T13:14:24Z</time>
      </trkpt>
      <trkpt lat="48.69723" lon="1.91679">
        <ele>177.98</ele>
        <time>2012-05-13T13:14:31Z</time>
      </trkpt>
      <trkpt lat="48.69717" lon="1.91667">
        <ele>178.46</ele>
        <time>2012-05-13T13:14:42Z</time>
      </trkpt>
      <trkpt lat="48.6971" lon="1.91661">
        <ele>177.98</ele>
        <time>2012-05-13T13:14:47Z</time>
      </trkpt>
      <trkpt lat="48.69707" lon="1.91659">
        <ele>178.46</ele>
        <time>2012-05-13T13:14:49Z</time>
      </trkpt>
      <trkpt lat="48.69702" lon="1.91653">
        <ele>178.46</ele>
        <time>2012-05-13T13:14:53Z</time>
      </trkpt>
      <trkpt lat="48.69694" lon="1.91646">
        <ele>178.46</ele>
        <time>2012-05-13T13:15:01Z</time>
      </trkpt>
      <trkpt lat="48.69686" lon="1.9164">
        <ele>179.42</ele>
        <time>2012-05-13T13:15:07Z</time>
      </trkpt>
      <trkpt lat="48.69683" lon="1.91636">
        <ele>178.94</ele>
        <time>2012-05-13T13:15:10Z</time>
      </trkpt>
      <trkpt lat="48.69678" lon="1.91632">
        <ele>178.94</ele>
        <time>2012-05-13T13:15:14Z</time>
      </trkpt>
      <trkpt lat="48.69676" lon="1.9163">
        <ele>178.94</ele>
        <time>2012-05-13T13:15:16Z</time>
      </trkpt>
      <trkpt lat="48.69672" lon="1.91627">
        <ele>178.94</ele>
        <time>2012-05-13T13:15:20Z</time>
      </trkpt>
      <trkpt lat="48.69668" lon="1.91623">
        <ele>178.94</ele>
        <time>2012-05-13T13:15:23Z</time>
      </trkpt>
      <trkpt lat="48.69661" lon="1.91617">
        <ele>178.94</ele>
        <time>2012-05-13T13:15:30Z</time>
      </trkpt>
      <trkpt lat="48.69653" lon="1.91607">
        <ele>178.94</ele>
        <time>2012-05-13T13:15:40Z</time>
      </trkpt>
      <trkpt lat="48.6965" lon="1.91603">
        <ele>178.94</ele>
        <time>2012-05-13T13:15:44Z</time>
      </trkpt>
      <trkpt lat="48.69644" lon="1.91597">
        <ele>178.46</ele>
        <time>2012-05-13T13:15:48Z</time>
      </trkpt>
      <trkpt lat="48.69637" lon="1.91588">
        <ele>178.46</ele>
        <time>2012-05-13T13:15:56Z</time>
      </trkpt>
      <trkpt lat="48.69634" lon="1.91586">
        <ele>178.94</ele>
        <time>2012-05-13T13:15:58Z</time>
      </trkpt>
      <trkpt lat="48.6963" lon="1.91585">
        <ele>178.46</ele>
        <time>2012-05-13T13:16:00Z</time>
      </trkpt>
      <trkpt lat="48.69613" lon="1.91585">
        <ele>177.5</ele>
        <time>2012-05-13T13:16:12Z</time>
      </trkpt>
      <trkpt lat="48.69609" lon="1.91586">
        <ele>179.42</ele>
        <time>2012-05-13T13:16:15Z</time>
      </trkpt>
      <trkpt lat="48.6959" lon="1.91593">
        <ele>177.98</ele>
        <time>2012-05-13T13:16:29Z</time>
      </trkpt>
      <trkpt lat="48.69583" lon="1.91594">
        <ele>177.98</ele>
        <time>2012-05-13T13:16:37Z</time>
      </trkpt>
      <trkpt lat="48.69569" lon="1.91595">
        <ele>176.54</ele>
        <time>2012-05-13T13:16:50Z</time>
      </trkpt>
      <trkpt lat="48.6956" lon="1.91598">
        <ele>174.62</ele>
        <time>2012-05-13T13:17:01Z</time>
      </trkpt>
      <trkpt lat="48.69554" lon="1.91599">
        <ele>173.66</ele>
        <time>2012-05-13T13:17:06Z</time>
      </trkpt>
      <trkpt lat="48.69538" lon="1.91598">
        <ele>170.77</ele>
        <time>2012-05-13T13:17:21Z</time>
      </trkpt>
      <trkpt lat="48.69527" lon="1.916">
        <ele>168.37</ele>
        <time>2012-05-13T13:17:35Z</time>
      </trkpt>
      <trkpt lat="48.69511" lon="1.916">
        <ele>165.48</ele>
        <time>2012-05-13T13:17:51Z</time>
      </trkpt>
      <trkpt lat="48.69501" lon="1.91601">
        <ele>164.04</ele>
        <time>2012-05-13T13:18:04Z</time>
      </trkpt>
      <trkpt lat="48.69498" lon="1.91604">
        <ele>162.12</ele>
        <time>2012-05-13T13:18:20Z</time>
      </trkpt>
      <trkpt lat="48.69495" lon="1.91615">
        <ele>160.2</ele>
        <time>2012-05-13T13:18:31Z</time>
      </trkpt>
      <trkpt lat="48.69493" lon="1.91633">
        <ele>157.31</ele>
        <time>2012-05-13T13:18:44Z</time>
      </trkpt>
      <trkpt lat="48.69493" lon="1.91643">
        <ele>154.43</ele>
        <time>2012-05-13T13:18:58Z</time>
      </trkpt>
      <trkpt lat="48.6949" lon="1.91646">
        <ele>151.54</ele>
        <time>2012-05-13T13:19:14Z</time>
      </trkpt>
      <trkpt lat="48.69481" lon="1.91636">
        <ele>148.18</ele>
        <time>2012-05-13T13:19:33Z</time>
      </trkpt>
      <trkpt lat="48.69474" lon="1.9163">
        <ele>146.74</ele>
        <time>2012-05-13T13:19:50Z</time>
      </trkpt>
      <trkpt lat="48.69461" lon="1.9162">
        <ele>144.34</ele>
        <time>2012-05-13T13:20:02Z</time>
      </trkpt>
      <trkpt lat="48.69452" lon="1.91608">
        <ele>142.89</ele>
        <time>2012-05-13T13:20:14Z</time>
      </trkpt>
      <trkpt lat="48.69441" lon="1.91595">
        <ele>140.97</ele>
        <time>2012-05-13T13:20:26Z</time>
      </trkpt>
      <trkpt lat="48.69431" lon="1.91591">
        <ele>140.01</ele>
        <time>2012-05-13T13:20:38Z</time>
      </trkpt>
      <trkpt lat="48.69431" lon="1.91591">
        <ele>139.53</ele>
        <time>2012-05-13T13:21:02Z</time>
      </trkpt>
      <trkpt lat="48.69431" lon="1.91591">
        <ele>139.53</ele>
        <time>2012-05-13T13:21:15Z</time>
      </trkpt>
      <trkpt lat="48.69421" lon="1.91594">
        <ele>140.01</ele>
        <time>2012-05-13T13:21:28Z</time>
      </trkpt>
      <trkpt lat="48.69416" lon="1.91606">
        <ele>142.41</ele>
        <time>2012-05-13T13:21:39Z</time>
      </trkpt>
      <trkpt lat="48.69411" lon="1.91621">
        <ele>143.37</ele>
        <time>2012-05-13T13:21:51Z</time>
      </trkpt>
      <trkpt lat="48.69405" lon="1.91636">
        <ele>146.26</ele>
        <time>2012-05-13T13:22:05Z</time>
      </trkpt>
      <trkpt lat="48.69399" lon="1.91653">
        <ele>148.66</ele>
        <time>2012-05-13T13:22:17Z</time>
      </trkpt>
      <trkpt lat="48.694" lon="1.91669">
        <ele>150.58</ele>
        <time>2012-05-13T13:22:30Z</time>
      </trkpt>
      <trkpt lat="48.69404" lon="1.91676">
        <ele>151.54</ele>
        <time>2012-05-13T13:22:36Z</time>
      </trkpt>
      <trkpt lat="48.69408" lon="1.91683">
        <ele>152.51</ele>
        <time>2012-05-13T13:22:43Z</time>
      </trkpt>
      <trkpt lat="48.69411" lon="1.91696">
        <ele>153.95</ele>
        <time>2012-05-13T13:22:55Z</time>
      </trkpt>
      <trkpt lat="48.69412" lon="1.91706">
        <ele>156.83</ele>
        <time>2012-05-13T13:23:06Z</time>
      </trkpt>
      <trkpt lat="48.6941" lon="1.91709">
        <ele>156.83</ele>
        <time>2012-05-13T13:23:10Z</time>
      </trkpt>
      <trkpt lat="48.69405" lon="1.9171">
        <ele>158.27</ele>
        <time>2012-05-13T13:23:16Z</time>
      </trkpt>
      <trkpt lat="48.69399" lon="1.91706">
        <ele>159.24</ele>
        <time>2012-05-13T13:23:24Z</time>
      </trkpt>
      <trkpt lat="48.69388" lon="1.91698">
        <ele>160.2</ele>
        <time>2012-05-13T13:23:37Z</time>
      </trkpt>
      <trkpt lat="48.69383" lon="1.91694">
        <ele>161.64</ele>
        <time>2012-05-13T13:23:43Z</time>
      </trkpt>
      <trkpt lat="48.69373" lon="1.91682">
        <ele>162.6</ele>
        <time>2012-05-13T13:23:55Z</time>
      </trkpt>
      <trkpt lat="48.6936" lon="1.91675">
        <ele>165</ele>
        <time>2012-05-13T13:24:06Z</time>
      </trkpt>
      <trkpt lat="48.69353" lon="1.9168">
        <ele>166.93</ele>
        <time>2012-05-13T13:24:19Z</time>
      </trkpt>
      <trkpt lat="48.69353" lon="1.91693">
        <ele>167.89</ele>
        <time>2012-05-13T13:24:33Z</time>
      </trkpt>
      <trkpt lat="48.69354" lon="1.91702">
        <ele>169.33</ele>
        <time>2012-05-13T13:24:45Z</time>
      </trkpt>
      <trkpt lat="48.69352" lon="1.91714">
        <ele>172.21</ele>
        <time>2012-05-13T13:24:58Z</time>
      </trkpt>
      <trkpt lat="48.69348" lon="1.91729">
        <ele>175.1</ele>
        <time>2012-05-13T13:25:11Z</time>
      </trkpt>
      <trkpt lat="48.69347" lon="1.9173">
        <ele>175.1</ele>
        <time>2012-05-13T13:25:15Z</time>
      </trkpt>
      <trkpt lat="48.69348" lon="1.91729">
        <ele>174.62</ele>
        <time>2012-05-13T13:25:31Z</time>
      </trkpt>
      <trkpt lat="48.69348" lon="1.91729">
        <ele>174.62</ele>
        <time>2012-05-13T13:25:52Z</time>
      </trkpt>
      <trkpt lat="48.69347" lon="1.91729">
        <ele>175.1</ele>
        <time>2012-05-13T13:26:26Z</time>
      </trkpt>
      <trkpt lat="48.69347" lon="1.91729">
        <ele>174.62</ele>
        <time>2012-05-13T13:26:51Z</time>
      </trkpt>
      <trkpt lat="48.69347" lon="1.9173">
        <ele>175.1</ele>
        <time>2012-05-13T13:27:15Z</time>
      </trkpt>
      <trkpt lat="48.69348" lon="1.91732">
        <ele>175.1</ele>
        <time>2012-05-13T13:27:40Z</time>
      </trkpt>
      <trkpt lat="48.69348" lon="1.91732">
        <ele>175.1</ele>
        <time>2012-05-13T13:28:03Z</time>
      </trkpt>
      <trkpt lat="48.69345" lon="1.91739">
        <ele>175.1</ele>
        <time>2012-05-13T13:28:08Z</time>
      </trkpt>
      <trkpt lat="48.69338" lon="1.91756">
        <ele>176.06</ele>
        <time>2012-05-13T13:28:20Z</time>
      </trkpt>
      <trkpt lat="48.69336" lon="1.9176">
        <ele>176.06</ele>
        <time>2012-05-13T13:28:23Z</time>
      </trkpt>
      <trkpt lat="48.69326" lon="1.9178">
        <ele>176.06</ele>
        <time>2012-05-13T13:28:37Z</time>
      </trkpt>
      <trkpt lat="48.69318" lon="1.91799">
        <ele>175.1</ele>
        <time>2012-05-13T13:28:50Z</time>
      </trkpt>
      <trkpt lat="48.69311" lon="1.91826">
        <ele>175.58</ele>
        <time>2012-05-13T13:29:05Z</time>
      </trkpt>
      <trkpt lat="48.6931" lon="1.91838">
        <ele>176.06</ele>
        <time>2012-05-13T13:29:11Z</time>
      </trkpt>
      <trkpt lat="48.69304" lon="1.91868">
        <ele>175.58</ele>
        <time>2012-05-13T13:29:25Z</time>
      </trkpt>
      <trkpt lat="48.69305" lon="1.91872">
        <ele>175.58</ele>
        <time>2012-05-13T13:29:27Z</time>
      </trkpt>
      <trkpt lat="48.69301" lon="1.91892">
        <ele>175.1</ele>
        <time>2012-05-13T13:29:41Z</time>
      </trkpt>
      <trkpt lat="48.693" lon="1.91895">
        <ele>174.62</ele>
        <time>2012-05-13T13:29:43Z</time>
      </trkpt>
      <trkpt lat="48.69299" lon="1.91907">
        <ele>174.14</ele>
        <time>2012-05-13T13:29:50Z</time>
      </trkpt>
      <trkpt lat="48.69297" lon="1.91923">
        <ele>174.14</ele>
        <time>2012-05-13T13:29:59Z</time>
      </trkpt>
      <trkpt lat="48.69297" lon="1.9193">
        <ele>173.17</ele>
        <time>2012-05-13T13:30:03Z</time>
      </trkpt>
      <trkpt lat="48.69293" lon="1.91941">
        <ele>172.69</ele>
        <time>2012-05-13T13:30:10Z</time>
      </trkpt>
      <trkpt lat="48.69288" lon="1.91961">
        <ele>172.69</ele>
        <time>2012-05-13T13:30:22Z</time>
      </trkpt>
      <trkpt lat="48.69284" lon="1.91984">
        <ele>173.66</ele>
        <time>2012-05-13T13:30:35Z</time>
      </trkpt>
      <trkpt lat="48.69279" lon="1.91999">
        <ele>172.21</ele>
        <time>2012-05-13T13:30:47Z</time>
      </trkpt>
      <trkpt lat="48.69274" lon="1.92016">
        <ele>170.29</ele>
        <time>2012-05-13T13:31:02Z</time>
      </trkpt>
      <trkpt lat="48.69263" lon="1.92039">
        <ele>168.37</ele>
        <time>2012-05-13T13:31:17Z</time>
      </trkpt>
      <trkpt lat="48.69247" lon="1.9205">
        <ele>170.29</ele>
        <time>2012-05-13T13:31:33Z</time>
      </trkpt>
      <trkpt lat="48.69234" lon="1.9205">
        <ele>171.25</ele>
        <time>2012-05-13T13:31:48Z</time>
      </trkpt>
      <trkpt lat="48.69221" lon="1.9205">
        <ele>172.21</ele>
        <time>2012-05-13T13:32:01Z</time>
      </trkpt>
      <trkpt lat="48.69205" lon="1.92046">
        <ele>172.21</ele>
        <time>2012-05-13T13:32:14Z</time>
      </trkpt>
      <trkpt lat="48.69193" lon="1.92043">
        <ele>173.66</ele>
        <time>2012-05-13T13:32:25Z</time>
      </trkpt>
      <trkpt lat="48.69177" lon="1.92044">
        <ele>173.66</ele>
        <time>2012-05-13T13:32:37Z</time>
      </trkpt>
      <trkpt lat="48.69154" lon="1.92063">
        <ele>173.66</ele>
        <time>2012-05-13T13:32:53Z</time>
      </trkpt>
      <trkpt lat="48.69147" lon="1.92075">
        <ele>173.17</ele>
        <time>2012-05-13T13:33:02Z</time>
      </trkpt>
      <trkpt lat="48.69141" lon="1.92086">
        <ele>174.14</ele>
        <time>2012-05-13T13:33:09Z</time>
      </trkpt>
      <trkpt lat="48.69137" lon="1.92097">
        <ele>173.66</ele>
        <time>2012-05-13T13:33:16Z</time>
      </trkpt>
      <trkpt lat="48.69134" lon="1.92123">
        <ele>172.69</ele>
        <time>2012-05-13T13:33:30Z</time>
      </trkpt>
      <trkpt lat="48.69132" lon="1.92134">
        <ele>172.69</ele>
        <time>2012-05-13T13:33:36Z</time>
      </trkpt>
      <trkpt lat="48.6913" lon="1.9214">
        <ele>172.69</ele>
        <time>2012-05-13T13:33:39Z</time>
      </trkpt>
      <trkpt lat="48.6913" lon="1.92147">
        <ele>172.69</ele>
        <time>2012-05-13T13:33:42Z</time>
      </trkpt>
      <trkpt lat="48.69127" lon="1.92155">
        <ele>172.69</ele>
        <time>2012-05-13T13:33:47Z</time>
      </trkpt>
      <trkpt lat="48.69126" lon="1.9216">
        <ele>172.69</ele>
        <time>2012-05-13T13:33:50Z</time>
      </trkpt>
      <trkpt lat="48.69122" lon="1.92182">
        <ele>171.25</ele>
        <time>2012-05-13T13:34:03Z</time>
      </trkpt>
      <trkpt lat="48.6912" lon="1.92198">
        <ele>169.33</ele>
        <time>2012-05-13T13:34:12Z</time>
      </trkpt>
      <trkpt lat="48.69121" lon="1.92219">
        <ele>166.45</ele>
        <time>2012-05-13T13:34:25Z</time>
      </trkpt>
      <trkpt lat="48.69121" lon="1.92229">
        <ele>163.56</ele>
        <time>2012-05-13T13:34:32Z</time>
      </trkpt>
      <trkpt lat="48.69119" lon="1.92238">
        <ele>160.68</ele>
        <time>2012-05-13T13:34:44Z</time>
      </trkpt>
      <trkpt lat="48.69119" lon="1.92256">
        <ele>160.68</ele>
        <time>2012-05-13T13:34:54Z</time>
      </trkpt>
      <trkpt lat="48.6912" lon="1.92258">
        <ele>160.68</ele>
        <time>2012-05-13T13:34:55Z</time>
      </trkpt>
      <trkpt lat="48.69116" lon="1.92286">
        <ele>161.64</ele>
        <time>2012-05-13T13:35:08Z</time>
      </trkpt>
      <trkpt lat="48.69117" lon="1.92289">
        <ele>161.16</ele>
        <time>2012-05-13T13:35:10Z</time>
      </trkpt>
      <trkpt lat="48.69117" lon="1.92294">
        <ele>161.64</ele>
        <time>2012-05-13T13:35:13Z</time>
      </trkpt>
      <trkpt lat="48.69115" lon="1.92326">
        <ele>162.6</ele>
        <time>2012-05-13T13:35:27Z</time>
      </trkpt>
      <trkpt lat="48.69112" lon="1.92346">
        <ele>165.96</ele>
        <time>2012-05-13T13:35:39Z</time>
      </trkpt>
      <trkpt lat="48.69109" lon="1.92362">
        <ele>168.37</ele>
        <time>2012-05-13T13:35:52Z</time>
      </trkpt>
      <trkpt lat="48.69102" lon="1.92372">
        <ele>168.37</ele>
        <time>2012-05-13T13:36:03Z</time>
      </trkpt>
      <trkpt lat="48.691" lon="1.92376">
        <ele>168.37</ele>
        <time>2012-05-13T13:36:05Z</time>
      </trkpt>
      <trkpt lat="48.69095" lon="1.92394">
        <ele>167.89</ele>
        <time>2012-05-13T13:36:14Z</time>
      </trkpt>
      <trkpt lat="48.69091" lon="1.92406">
        <ele>167.89</ele>
        <time>2012-05-13T13:36:21Z</time>
      </trkpt>
      <trkpt lat="48.69081" lon="1.92431">
        <ele>169.81</ele>
        <time>2012-05-13T13:36:37Z</time>
      </trkpt>
      <trkpt lat="48.6908" lon="1.92432">
        <ele>169.33</ele>
        <time>2012-05-13T13:36:38Z</time>
      </trkpt>
      <trkpt lat="48.69075" lon="1.92457">
        <ele>170.77</ele>
        <time>2012-05-13T13:36:52Z</time>
      </trkpt>
      <trkpt lat="48.6907" lon="1.92483">
        <ele>170.29</ele>
        <time>2012-05-13T13:37:06Z</time>
      </trkpt>
      <trkpt lat="48.69067" lon="1.92489">
        <ele>170.29</ele>
        <time>2012-05-13T13:37:11Z</time>
      </trkpt>
      <trkpt lat="48.69059" lon="1.92517">
        <ele>170.29</ele>
        <time>2012-05-13T13:37:25Z</time>
      </trkpt>
      <trkpt lat="48.69058" lon="1.9252">
        <ele>170.29</ele>
        <time>2012-05-13T13:37:27Z</time>
      </trkpt>
      <trkpt lat="48.69052" lon="1.9253">
        <ele>170.77</ele>
        <time>2012-05-13T13:37:34Z</time>
      </trkpt>
      <trkpt lat="48.69049" lon="1.92533">
        <ele>170.29</ele>
        <time>2012-05-13T13:37:37Z</time>
      </trkpt>
      <trkpt lat="48.6904" lon="1.92552">
        <ele>171.73</ele>
        <time>2012-05-13T13:37:50Z</time>
      </trkpt>
      <trkpt lat="48.6904" lon="1.92561">
        <ele>171.73</ele>
        <time>2012-05-13T13:37:55Z</time>
      </trkpt>
      <trkpt lat="48.69039" lon="1.92578">
        <ele>172.21</ele>
        <time>2012-05-13T13:38:04Z</time>
      </trkpt>
      <trkpt lat="48.6904" lon="1.92592">
        <ele>172.21</ele>
        <time>2012-05-13T13:38:13Z</time>
      </trkpt>
      <trkpt lat="48.69042" lon="1.92595">
        <ele>172.69</ele>
        <time>2012-05-13T13:38:15Z</time>
      </trkpt>
      <trkpt lat="48.69055" lon="1.92614">
        <ele>171.25</ele>
        <time>2012-05-13T13:38:31Z</time>
      </trkpt>
      <trkpt lat="48.69071" lon="1.92629">
        <ele>170.77</ele>
        <time>2012-05-13T13:38:45Z</time>
      </trkpt>
      <trkpt lat="48.69079" lon="1.92635">
        <ele>170.29</ele>
        <time>2012-05-13T13:38:54Z</time>
      </trkpt>
      <trkpt lat="48.69084" lon="1.92638">
        <ele>169.81</ele>
        <time>2012-05-13T13:38:58Z</time>
      </trkpt>
      <trkpt lat="48.69091" lon="1.92645">
        <ele>169.33</ele>
        <time>2012-05-13T13:39:08Z</time>
      </trkpt>
      <trkpt lat="48.69105" lon="1.92652">
        <ele>168.85</ele>
        <time>2012-05-13T13:39:21Z</time>
      </trkpt>
      <trkpt lat="48.6912" lon="1.92666">
        <ele>169.33</ele>
        <time>2012-05-13T13:39:35Z</time>
      </trkpt>
      <trkpt lat="48.69126" lon="1.92669">
        <ele>168.85</ele>
        <time>2012-05-13T13:39:41Z</time>
      </trkpt>
      <trkpt lat="48.69135" lon="1.92675">
        <ele>169.33</ele>
        <time>2012-05-13T13:39:48Z</time>
      </trkpt>
      <trkpt lat="48.69153" lon="1.92694">
        <ele>168.37</ele>
        <time>2012-05-13T13:40:00Z</time>
      </trkpt>
      <trkpt lat="48.6916" lon="1.9271">
        <ele>166.93</ele>
        <time>2012-05-13T13:40:12Z</time>
      </trkpt>
      <trkpt lat="48.6916" lon="1.92711">
        <ele>166.45</ele>
        <time>2012-05-13T13:40:14Z</time>
      </trkpt>
      <trkpt lat="48.69167" lon="1.92727">
        <ele>164.52</ele>
        <time>2012-05-13T13:40:24Z</time>
      </trkpt>
      <trkpt lat="48.69177" lon="1.92745">
        <ele>163.08</ele>
        <time>2012-05-13T13:40:37Z</time>
      </trkpt>
      <trkpt lat="48.6918" lon="1.9276">
        <ele>162.12</ele>
        <time>2012-05-13T13:40:50Z</time>
      </trkpt>
      <trkpt lat="48.69167" lon="1.92781">
        <ele>162.12</ele>
        <time>2012-05-13T13:41:05Z</time>
      </trkpt>
      <trkpt lat="48.6916" lon="1.92798">
        <ele>162.6</ele>
        <time>2012-05-13T13:41:18Z</time>
      </trkpt>
      <trkpt lat="48.69152" lon="1.92807">
        <ele>163.08</ele>
        <time>2012-05-13T13:41:28Z</time>
      </trkpt>
      <trkpt lat="48.69138" lon="1.92833">
        <ele>166.93</ele>
        <time>2012-05-13T13:41:42Z</time>
      </trkpt>
      <trkpt lat="48.69137" lon="1.92835">
        <ele>167.89</ele>
        <time>2012-05-13T13:41:44Z</time>
      </trkpt>
      <trkpt lat="48.69135" lon="1.92837">
        <ele>167.89</ele>
        <time>2012-05-13T13:42:00Z</time>
      </trkpt>
      <trkpt lat="48.69125" lon="1.92853">
        <ele>170.77</ele>
        <time>2012-05-13T13:42:14Z</time>
      </trkpt>
      <trkpt lat="48.69119" lon="1.92867">
        <ele>171.25</ele>
        <time>2012-05-13T13:42:21Z</time>
      </trkpt>
      <trkpt lat="48.69107" lon="1.92888">
        <ele>171.73</ele>
        <time>2012-05-13T13:42:37Z</time>
      </trkpt>
      <trkpt lat="48.69107" lon="1.92889">
        <ele>171.73</ele>
        <time>2012-05-13T13:42:38Z</time>
      </trkpt>
      <trkpt lat="48.69104" lon="1.92895">
        <ele>171.73</ele>
        <time>2012-05-13T13:42:42Z</time>
      </trkpt>
      <trkpt lat="48.691" lon="1.92903">
        <ele>171.73</ele>
        <time>2012-05-13T13:42:49Z</time>
      </trkpt>
      <trkpt lat="48.69087" lon="1.92931">
        <ele>170.77</ele>
        <time>2012-05-13T13:43:05Z</time>
      </trkpt>
      <trkpt lat="48.69077" lon="1.92944">
        <ele>168.85</ele>
        <time>2012-05-13T13:43:17Z</time>
      </trkpt>
      <trkpt lat="48.6907" lon="1.92956">
        <ele>165.48</ele>
        <time>2012-05-13T13:43:27Z</time>
      </trkpt>
      <trkpt lat="48.69069" lon="1.92957">
        <ele>165.48</ele>
        <time>2012-05-13T13:43:28Z</time>
      </trkpt>
      <trkpt lat="48.69066" lon="1.92965">
        <ele>162.12</ele>
        <time>2012-05-13T13:43:38Z</time>
      </trkpt>
      <trkpt lat="48.6906" lon="1.92979">
        <ele>159.72</ele>
        <time>2012-05-13T13:43:46Z</time>
      </trkpt>
      <trkpt lat="48.69048" lon="1.92998">
        <ele>157.79</ele>
        <time>2012-05-13T13:44:00Z</time>
      </trkpt>
      <trkpt lat="48.69047" lon="1.93">
        <ele>157.79</ele>
        <time>2012-05-13T13:44:01Z</time>
      </trkpt>
      <trkpt lat="48.69034" lon="1.93022">
        <ele>161.16</ele>
        <time>2012-05-13T13:44:17Z</time>
      </trkpt>
      <trkpt lat="48.69033" lon="1.93029">
        <ele>164.52</ele>
        <time>2012-05-13T13:44:28Z</time>
      </trkpt>
      <trkpt lat="48.69033" lon="1.9303">
        <ele>167.41</ele>
        <time>2012-05-13T13:44:38Z</time>
      </trkpt>
      <trkpt lat="48.6903" lon="1.93034">
        <ele>168.85</ele>
        <time>2012-05-13T13:44:54Z</time>
      </trkpt>
      <trkpt lat="48.69018" lon="1.93056">
        <ele>170.29</ele>
        <time>2012-05-13T13:45:13Z</time>
      </trkpt>
      <trkpt lat="48.69017" lon="1.93059">
        <ele>170.29</ele>
        <time>2012-05-13T13:45:32Z</time>
      </trkpt>
      <trkpt lat="48.69002" lon="1.93084">
        <ele>172.21</ele>
        <time>2012-05-13T13:45:46Z</time>
      </trkpt>
      <trkpt lat="48.68994" lon="1.93107">
        <ele>172.69</ele>
        <time>2012-05-13T13:46:00Z</time>
      </trkpt>
      <trkpt lat="48.68985" lon="1.93119">
        <ele>173.66</ele>
        <time>2012-05-13T13:46:10Z</time>
      </trkpt>
      <trkpt lat="48.68981" lon="1.93126">
        <ele>173.66</ele>
        <time>2012-05-13T13:46:15Z</time>
      </trkpt>
      <trkpt lat="48.68977" lon="1.93132">
        <ele>174.14</ele>
        <time>2012-05-13T13:46:19Z</time>
      </trkpt>
      <trkpt lat="48.68966" lon="1.93153">
        <ele>174.14</ele>
        <time>2012-05-13T13:46:35Z</time>
      </trkpt>
      <trkpt lat="48.68955" lon="1.93175">
        <ele>174.14</ele>
        <time>2012-05-13T13:46:49Z</time>
      </trkpt>
      <trkpt lat="48.68953" lon="1.93181">
        <ele>173.66</ele>
        <time>2012-05-13T13:46:53Z</time>
      </trkpt>
      <trkpt lat="48.6894" lon="1.93206">
        <ele>174.14</ele>
        <time>2012-05-13T13:47:08Z</time>
      </trkpt>
      <trkpt lat="48.68929" lon="1.9323">
        <ele>174.62</ele>
        <time>2012-05-13T13:47:22Z</time>
      </trkpt>
      <trkpt lat="48.68916" lon="1.93247">
        <ele>174.14</ele>
        <time>2012-05-13T13:47:37Z</time>
      </trkpt>
      <trkpt lat="48.6891" lon="1.93254">
        <ele>174.14</ele>
        <time>2012-05-13T13:47:43Z</time>
      </trkpt>
      <trkpt lat="48.68901" lon="1.93274">
        <ele>174.14</ele>
        <time>2012-05-13T13:47:56Z</time>
      </trkpt>
      <trkpt lat="48.68892" lon="1.93293">
        <ele>173.17</ele>
        <time>2012-05-13T13:48:12Z</time>
      </trkpt>
      <trkpt lat="48.68884" lon="1.93316">
        <ele>172.69</ele>
        <time>2012-05-13T13:48:23Z</time>
      </trkpt>
      <trkpt lat="48.68871" lon="1.93333">
        <ele>172.69</ele>
        <time>2012-05-13T13:48:35Z</time>
      </trkpt>
      <trkpt lat="48.68864" lon="1.93346">
        <ele>172.21</ele>
        <time>2012-05-13T13:48:43Z</time>
      </trkpt>
      <trkpt lat="48.68861" lon="1.93353">
        <ele>172.69</ele>
        <time>2012-05-13T13:48:48Z</time>
      </trkpt>
      <trkpt lat="48.68853" lon="1.93364">
        <ele>171.73</ele>
        <time>2012-05-13T13:48:56Z</time>
      </trkpt>
      <trkpt lat="48.68839" lon="1.93389">
        <ele>169.81</ele>
        <time>2012-05-13T13:49:13Z</time>
      </trkpt>
      <trkpt lat="48.68833" lon="1.93399">
        <ele>169.33</ele>
        <time>2012-05-13T13:49:20Z</time>
      </trkpt>
      <trkpt lat="48.6882" lon="1.93424">
        <ele>170.77</ele>
        <time>2012-05-13T13:49:38Z</time>
      </trkpt>
      <trkpt lat="48.68808" lon="1.93446">
        <ele>170.77</ele>
        <time>2012-05-13T13:49:53Z</time>
      </trkpt>
      <trkpt lat="48.68798" lon="1.93464">
        <ele>171.25</ele>
        <time>2012-05-13T13:50:05Z</time>
      </trkpt>
      <trkpt lat="48.68793" lon="1.9349">
        <ele>171.73</ele>
        <time>2012-05-13T13:50:19Z</time>
      </trkpt>
      <trkpt lat="48.6879" lon="1.93515">
        <ele>172.21</ele>
        <time>2012-05-13T13:50:32Z</time>
      </trkpt>
      <trkpt lat="48.68787" lon="1.93533">
        <ele>172.69</ele>
        <time>2012-05-13T13:50:42Z</time>
      </trkpt>
      <trkpt lat="48.68785" lon="1.93547">
        <ele>172.21</ele>
        <time>2012-05-13T13:50:50Z</time>
      </trkpt>
      <trkpt lat="48.68785" lon="1.93555">
        <ele>172.21</ele>
        <time>2012-05-13T13:50:54Z</time>
      </trkpt>
      <trkpt lat="48.6878" lon="1.93584">
        <ele>172.21</ele>
        <time>2012-05-13T13:51:09Z</time>
      </trkpt>
      <trkpt lat="48.6878" lon="1.93586">
        <ele>172.21</ele>
        <time>2012-05-13T13:51:10Z</time>
      </trkpt>
      <trkpt lat="48.68776" lon="1.93619">
        <ele>171.73</ele>
        <time>2012-05-13T13:51:27Z</time>
      </trkpt>
      <trkpt lat="48.68773" lon="1.93649">
        <ele>170.77</ele>
        <time>2012-05-13T13:51:42Z</time>
      </trkpt>
      <trkpt lat="48.68782" lon="1.93671">
        <ele>170.77</ele>
        <time>2012-05-13T13:51:56Z</time>
      </trkpt>
      <trkpt lat="48.68784" lon="1.93673">
        <ele>170.77</ele>
        <time>2012-05-13T13:51:59Z</time>
      </trkpt>
      <trkpt lat="48.688" lon="1.93688">
        <ele>171.73</ele>
        <time>2012-05-13T13:52:12Z</time>
      </trkpt>
      <trkpt lat="48.68801" lon="1.93697">
        <ele>172.21</ele>
        <time>2012-05-13T13:52:16Z</time>
      </trkpt>
      <trkpt lat="48.688" lon="1.93715">
        <ele>172.21</ele>
        <time>2012-05-13T13:52:25Z</time>
      </trkpt>
      <trkpt lat="48.68797" lon="1.9373">
        <ele>172.21</ele>
        <time>2012-05-13T13:52:32Z</time>
      </trkpt>
      <trkpt lat="48.68793" lon="1.93747">
        <ele>171.73</ele>
        <time>2012-05-13T13:52:41Z</time>
      </trkpt>
      <trkpt lat="48.68792" lon="1.93756">
        <ele>171.25</ele>
        <time>2012-05-13T13:52:45Z</time>
      </trkpt>
      <trkpt lat="48.6878" lon="1.93779">
        <ele>171.25</ele>
        <time>2012-05-13T13:53:00Z</time>
      </trkpt>
      <trkpt lat="48.68771" lon="1.93795">
        <ele>172.21</ele>
        <time>2012-05-13T13:53:11Z</time>
      </trkpt>
      <trkpt lat="48.68757" lon="1.93814">
        <ele>172.21</ele>
        <time>2012-05-13T13:53:25Z</time>
      </trkpt>
      <trkpt lat="48.68748" lon="1.93839">
        <ele>172.21</ele>
        <time>2012-05-13T13:53:40Z</time>
      </trkpt>
      <trkpt lat="48.68743" lon="1.93868">
        <ele>172.21</ele>
        <time>2012-05-13T13:53:55Z</time>
      </trkpt>
      <trkpt lat="48.6874" lon="1.93882">
        <ele>171.73</ele>
        <time>2012-05-13T13:54:02Z</time>
      </trkpt>
      <trkpt lat="48.68736" lon="1.93905">
        <ele>172.21</ele>
        <time>2012-05-13T13:54:16Z</time>
      </trkpt>
      <trkpt lat="48.68732" lon="1.93909">
        <ele>171.25</ele>
        <time>2012-05-13T13:54:23Z</time>
      </trkpt>
      <trkpt lat="48.68729" lon="1.93922">
        <ele>170.77</ele>
        <time>2012-05-13T13:54:33Z</time>
      </trkpt>
      <trkpt lat="48.68725" lon="1.93937">
        <ele>170.77</ele>
        <time>2012-05-13T13:54:45Z</time>
      </trkpt>
      <trkpt lat="48.68715" lon="1.93957">
        <ele>167.41</ele>
        <time>2012-05-13T13:54:59Z</time>
      </trkpt>
      <trkpt lat="48.68706" lon="1.93977">
        <ele>165.96</ele>
        <time>2012-05-13T13:55:11Z</time>
      </trkpt>
      <trkpt lat="48.68699" lon="1.94007">
        <ele>164.04</ele>
        <time>2012-05-13T13:55:26Z</time>
      </trkpt>
      <trkpt lat="48.68689" lon="1.94024">
        <ele>162.6</ele>
        <time>2012-05-13T13:55:39Z</time>
      </trkpt>
      <trkpt lat="48.68679" lon="1.94038">
        <ele>165</ele>
        <time>2012-05-13T13:55:52Z</time>
      </trkpt>
      <trkpt lat="48.68669" lon="1.94055">
        <ele>167.89</ele>
        <time>2012-05-13T13:56:07Z</time>
      </trkpt>
      <trkpt lat="48.68667" lon="1.94064">
        <ele>169.33</ele>
        <time>2012-05-13T13:56:13Z</time>
      </trkpt>
      <trkpt lat="48.68661" lon="1.94077">
        <ele>169.33</ele>
        <time>2012-05-13T13:56:22Z</time>
      </trkpt>
      <trkpt lat="48.6865" lon="1.94099">
        <ele>169.81</ele>
        <time>2012-05-13T13:56:36Z</time>
      </trkpt>
      <trkpt lat="48.68646" lon="1.94112">
        <ele>169.81</ele>
        <time>2012-05-13T13:56:41Z</time>
      </trkpt>
      <trkpt lat="48.68641" lon="1.94127">
        <ele>169.81</ele>
        <time>2012-05-13T13:56:50Z</time>
      </trkpt>
      <trkpt lat="48.68635" lon="1.94143">
        <ele>169.81</ele>
        <time>2012-05-13T13:56:59Z</time>
      </trkpt>
      <trkpt lat="48.6862" lon="1.94168">
        <ele>168.37</ele>
        <time>2012-05-13T13:57:14Z</time>
      </trkpt>
      <trkpt lat="48.68611" lon="1.94189">
        <ele>165.48</ele>
        <time>2012-05-13T13:57:27Z</time>
      </trkpt>
      <trkpt lat="48.6861" lon="1.94191">
        <ele>165.48</ele>
        <time>2012-05-13T13:57:29Z</time>
      </trkpt>
      <trkpt lat="48.68605" lon="1.942">
        <ele>163.56</ele>
        <time>2012-05-13T13:57:38Z</time>
      </trkpt>
      <trkpt lat="48.68597" lon="1.94217">
        <ele>159.72</ele>
        <time>2012-05-13T13:57:53Z</time>
      </trkpt>
      <trkpt lat="48.68595" lon="1.94224">
        <ele>158.27</ele>
        <time>2012-05-13T13:57:58Z</time>
      </trkpt>
      <trkpt lat="48.68591" lon="1.9423">
        <ele>157.79</ele>
        <time>2012-05-13T13:58:01Z</time>
      </trkpt>
      <trkpt lat="48.68587" lon="1.94238">
        <ele>158.27</ele>
        <time>2012-05-13T13:58:05Z</time>
      </trkpt>
      <trkpt lat="48.68582" lon="1.94262">
        <ele>160.2</ele>
        <time>2012-05-13T13:58:20Z</time>
      </trkpt>
      <trkpt lat="48.68583" lon="1.94268">
        <ele>163.08</ele>
        <time>2012-05-13T13:58:28Z</time>
      </trkpt>
      <trkpt lat="48.68581" lon="1.94278">
        <ele>166.45</ele>
        <time>2012-05-13T13:58:40Z</time>
      </trkpt>
      <trkpt lat="48.68573" lon="1.9429">
        <ele>167.41</ele>
        <time>2012-05-13T13:58:54Z</time>
      </trkpt>
      <trkpt lat="48.68573" lon="1.9429">
        <ele>166.93</ele>
        <time>2012-05-13T13:59:09Z</time>
      </trkpt>
      <trkpt lat="48.68573" lon="1.9429">
        <ele>166.93</ele>
        <time>2012-05-13T13:59:21Z</time>
      </trkpt>
      <trkpt lat="48.68571" lon="1.94291">
        <ele>166.45</ele>
        <time>2012-05-13T13:59:46Z</time>
      </trkpt>
      <trkpt lat="48.68571" lon="1.94292">
        <ele>166.93</ele>
        <time>2012-05-13T14:00:02Z</time>
      </trkpt>
      <trkpt lat="48.68571" lon="1.94292">
        <ele>166.93</ele>
        <time>2012-05-13T14:00:24Z</time>
      </trkpt>
      <trkpt lat="48.68571" lon="1.94292">
        <ele>166.93</ele>
        <time>2012-05-13T14:00:41Z</time>
      </trkpt>
      <trkpt lat="48.68569" lon="1.94292">
        <ele>166.93</ele>
        <time>2012-05-13T14:00:59Z</time>
      </trkpt>
      <trkpt lat="48.68565" lon="1.94296">
        <ele>166.45</ele>
        <time>2012-05-13T14:01:09Z</time>
      </trkpt>
      <trkpt lat="48.68562" lon="1.94303">
        <ele>166.93</ele>
        <time>2012-05-13T14:01:13Z</time>
      </trkpt>
      <trkpt lat="48.6856" lon="1.94311">
        <ele>166.45</ele>
        <time>2012-05-13T14:01:17Z</time>
      </trkpt>
      <trkpt lat="48.68556" lon="1.94322">
        <ele>165.48</ele>
        <time>2012-05-13T14:01:23Z</time>
      </trkpt>
      <trkpt lat="48.68545" lon="1.94346">
        <ele>166.45</ele>
        <time>2012-05-13T14:01:39Z</time>
      </trkpt>
      <trkpt lat="48.68535" lon="1.94368">
        <ele>167.89</ele>
        <time>2012-05-13T14:01:52Z</time>
      </trkpt>
      <trkpt lat="48.68528" lon="1.94381">
        <ele>168.85</ele>
        <time>2012-05-13T14:02:06Z</time>
      </trkpt>
      <trkpt lat="48.68523" lon="1.94397">
        <ele>170.77</ele>
        <time>2012-05-13T14:02:19Z</time>
      </trkpt>
      <trkpt lat="48.68516" lon="1.94409">
        <ele>170.29</ele>
        <time>2012-05-13T14:02:28Z</time>
      </trkpt>
      <trkpt lat="48.68507" lon="1.94432">
        <ele>169.81</ele>
        <time>2012-05-13T14:02:41Z</time>
      </trkpt>
      <trkpt lat="48.68496" lon="1.94455">
        <ele>170.29</ele>
        <time>2012-05-13T14:02:54Z</time>
      </trkpt>
      <trkpt lat="48.68495" lon="1.94457">
        <ele>170.29</ele>
        <time>2012-05-13T14:02:55Z</time>
      </trkpt>
      <trkpt lat="48.68492" lon="1.94465">
        <ele>170.29</ele>
        <time>2012-05-13T14:03:01Z</time>
      </trkpt>
      <trkpt lat="48.68482" lon="1.9449">
        <ele>170.29</ele>
        <time>2012-05-13T14:03:17Z</time>
      </trkpt>
      <trkpt lat="48.68475" lon="1.94504">
        <ele>171.25</ele>
        <time>2012-05-13T14:03:29Z</time>
      </trkpt>
      <trkpt lat="48.68468" lon="1.9452">
        <ele>170.29</ele>
        <time>2012-05-13T14:03:42Z</time>
      </trkpt>
      <trkpt lat="48.68457" lon="1.94544">
        <ele>169.81</ele>
        <time>2012-05-13T14:03:58Z</time>
      </trkpt>
      <trkpt lat="48.68444" lon="1.94568">
        <ele>168.37</ele>
        <time>2012-05-13T14:04:12Z</time>
      </trkpt>
      <trkpt lat="48.68441" lon="1.94576">
        <ele>168.37</ele>
        <time>2012-05-13T14:04:17Z</time>
      </trkpt>
      <trkpt lat="48.68433" lon="1.94593">
        <ele>168.37</ele>
        <time>2012-05-13T14:04:28Z</time>
      </trkpt>
      <trkpt lat="48.68428" lon="1.94601">
        <ele>167.89</ele>
        <time>2012-05-13T14:04:34Z</time>
      </trkpt>
      <trkpt lat="48.68419" lon="1.94622">
        <ele>167.89</ele>
        <time>2012-05-13T14:04:49Z</time>
      </trkpt>
      <trkpt lat="48.68405" lon="1.94647">
        <ele>168.85</ele>
        <time>2012-05-13T14:05:05Z</time>
      </trkpt>
      <trkpt lat="48.68403" lon="1.94654">
        <ele>168.85</ele>
        <time>2012-05-13T14:05:09Z</time>
      </trkpt>
      <trkpt lat="48.68395" lon="1.94678">
        <ele>169.33</ele>
        <time>2012-05-13T14:05:25Z</time>
      </trkpt>
      <trkpt lat="48.6839" lon="1.94694">
        <ele>169.81</ele>
        <time>2012-05-13T14:05:34Z</time>
      </trkpt>
      <trkpt lat="48.68379" lon="1.94717">
        <ele>169.33</ele>
        <time>2012-05-13T14:05:51Z</time>
      </trkpt>
      <trkpt lat="48.68374" lon="1.94729">
        <ele>169.33</ele>
        <time>2012-05-13T14:06:00Z</time>
      </trkpt>
      <trkpt lat="48.68369" lon="1.94739">
        <ele>168.85</ele>
        <time>2012-05-13T14:06:06Z</time>
      </trkpt>
      <trkpt lat="48.68366" lon="1.94749">
        <ele>168.85</ele>
        <time>2012-05-13T14:06:13Z</time>
      </trkpt>
      <trkpt lat="48.6836" lon="1.94758">
        <ele>168.37</ele>
        <time>2012-05-13T14:06:20Z</time>
      </trkpt>
      <trkpt lat="48.68357" lon="1.94762">
        <ele>167.89</ele>
        <time>2012-05-13T14:06:23Z</time>
      </trkpt>
      <trkpt lat="48.68353" lon="1.94775">
        <ele>167.41</ele>
        <time>2012-05-13T14:06:31Z</time>
      </trkpt>
      <trkpt lat="48.68344" lon="1.94795">
        <ele>165.96</ele>
        <time>2012-05-13T14:06:46Z</time>
      </trkpt>
      <trkpt lat="48.68341" lon="1.94803">
        <ele>165.96</ele>
        <time>2012-05-13T14:06:50Z</time>
      </trkpt>
      <trkpt lat="48.68337" lon="1.9481">
        <ele>165.96</ele>
        <time>2012-05-13T14:06:53Z</time>
      </trkpt>
      <trkpt lat="48.68331" lon="1.94822">
        <ele>165.48</ele>
        <time>2012-05-13T14:06:59Z</time>
      </trkpt>
      <trkpt lat="48.68324" lon="1.94832">
        <ele>164.52</ele>
        <time>2012-05-13T14:07:11Z</time>
      </trkpt>
      <trkpt lat="48.68321" lon="1.94837">
        <ele>164.04</ele>
        <time>2012-05-13T14:07:15Z</time>
      </trkpt>
      <trkpt lat="48.68314" lon="1.94856">
        <ele>162.6</ele>
        <time>2012-05-13T14:07:28Z</time>
      </trkpt>
      <trkpt lat="48.68304" lon="1.94874">
        <ele>164.04</ele>
        <time>2012-05-13T14:07:43Z</time>
      </trkpt>
      <trkpt lat="48.68303" lon="1.94877">
        <ele>163.08</ele>
        <time>2012-05-13T14:07:45Z</time>
      </trkpt>
      <trkpt lat="48.68298" lon="1.94883">
        <ele>164.04</ele>
        <time>2012-05-13T14:07:50Z</time>
      </trkpt>
      <trkpt lat="48.68286" lon="1.94895">
        <ele>165</ele>
        <time>2012-05-13T14:08:04Z</time>
      </trkpt>
      <trkpt lat="48.68273" lon="1.94903">
        <ele>164.52</ele>
        <time>2012-05-13T14:08:17Z</time>
      </trkpt>
      <trkpt lat="48.68257" lon="1.94914">
        <ele>165</ele>
        <time>2012-05-13T14:08:32Z</time>
      </trkpt>
      <trkpt lat="48.6825" lon="1.94917">
        <ele>164.52</ele>
        <time>2012-05-13T14:08:42Z</time>
      </trkpt>
      <trkpt lat="48.68235" lon="1.94929">
        <ele>164.04</ele>
        <time>2012-05-13T14:08:55Z</time>
      </trkpt>
      <trkpt lat="48.6822" lon="1.94942">
        <ele>164.04</ele>
        <time>2012-05-13T14:09:06Z</time>
      </trkpt>
      <trkpt lat="48.68214" lon="1.9495">
        <ele>163.56</ele>
        <time>2012-05-13T14:09:11Z</time>
      </trkpt>
      <trkpt lat="48.68202" lon="1.94965">
        <ele>164.04</ele>
        <time>2012-05-13T14:09:25Z</time>
      </trkpt>
      <trkpt lat="48.68194" lon="1.94973">
        <ele>164.04</ele>
        <time>2012-05-13T14:09:41Z</time>
      </trkpt>
      <trkpt lat="48.68191" lon="1.94977">
        <ele>164.52</ele>
        <time>2012-05-13T14:09:54Z</time>
      </trkpt>
      <trkpt lat="48.68185" lon="1.94988">
        <ele>164.52</ele>
        <time>2012-05-13T14:10:16Z</time>
      </trkpt>
      <trkpt lat="48.68173" lon="1.95013">
        <ele>164.04</ele>
        <time>2012-05-13T14:10:32Z</time>
      </trkpt>
      <trkpt lat="48.6816" lon="1.95034">
        <ele>163.56</ele>
        <time>2012-05-13T14:10:48Z</time>
      </trkpt>
      <trkpt lat="48.6815" lon="1.9505">
        <ele>164.52</ele>
        <time>2012-05-13T14:11:01Z</time>
      </trkpt>
      <trkpt lat="48.68145" lon="1.95061">
        <ele>163.56</ele>
        <time>2012-05-13T14:11:09Z</time>
      </trkpt>
      <trkpt lat="48.6814" lon="1.95078">
        <ele>164.52</ele>
        <time>2012-05-13T14:11:23Z</time>
      </trkpt>
      <trkpt lat="48.68138" lon="1.95083">
        <ele>164.52</ele>
        <time>2012-05-13T14:11:27Z</time>
      </trkpt>
      <trkpt lat="48.68136" lon="1.951">
        <ele>164.52</ele>
        <time>2012-05-13T14:11:38Z</time>
      </trkpt>
      <trkpt lat="48.68136" lon="1.95107">
        <ele>164.04</ele>
        <time>2012-05-13T14:11:42Z</time>
      </trkpt>
      <trkpt lat="48.68136" lon="1.95114">
        <ele>164.52</ele>
        <time>2012-05-13T14:11:47Z</time>
      </trkpt>
      <trkpt lat="48.68136" lon="1.95134">
        <ele>164.52</ele>
        <time>2012-05-13T14:11:58Z</time>
      </trkpt>
      <trkpt lat="48.68136" lon="1.95148">
        <ele>165</ele>
        <time>2012-05-13T14:12:07Z</time>
      </trkpt>
      <trkpt lat="48.68136" lon="1.95167">
        <ele>165</ele>
        <time>2012-05-13T14:12:18Z</time>
      </trkpt>
      <trkpt lat="48.68136" lon="1.95173">
        <ele>165</ele>
        <time>2012-05-13T14:12:22Z</time>
      </trkpt>
      <trkpt lat="48.68134" lon="1.95186">
        <ele>164.52</ele>
        <time>2012-05-13T14:12:31Z</time>
      </trkpt>
      <trkpt lat="48.68125" lon="1.95204">
        <ele>164.52</ele>
        <time>2012-05-13T14:12:43Z</time>
      </trkpt>
      <trkpt lat="48.68119" lon="1.95219">
        <ele>164.04</ele>
        <time>2012-05-13T14:12:52Z</time>
      </trkpt>
      <trkpt lat="48.68117" lon="1.95223">
        <ele>164.52</ele>
        <time>2012-05-13T14:12:55Z</time>
      </trkpt>
      <trkpt lat="48.68115" lon="1.95227">
        <ele>163.56</ele>
        <time>2012-05-13T14:12:58Z</time>
      </trkpt>
      <trkpt lat="48.68107" lon="1.95243">
        <ele>164.52</ele>
        <time>2012-05-13T14:13:11Z</time>
      </trkpt>
      <trkpt lat="48.68099" lon="1.95259">
        <ele>164.52</ele>
        <time>2012-05-13T14:13:23Z</time>
      </trkpt>
      <trkpt lat="48.68095" lon="1.95273">
        <ele>165</ele>
        <time>2012-05-13T14:13:31Z</time>
      </trkpt>
      <trkpt lat="48.68087" lon="1.95301">
        <ele>164.52</ele>
        <time>2012-05-13T14:13:47Z</time>
      </trkpt>
      <trkpt lat="48.68082" lon="1.95318">
        <ele>164.04</ele>
        <time>2012-05-13T14:14:01Z</time>
      </trkpt>
      <trkpt lat="48.68071" lon="1.95338">
        <ele>163.56</ele>
        <time>2012-05-13T14:14:15Z</time>
      </trkpt>
      <trkpt lat="48.68064" lon="1.95348">
        <ele>164.04</ele>
        <time>2012-05-13T14:14:30Z</time>
      </trkpt>
      <trkpt lat="48.68058" lon="1.95362">
        <ele>165</ele>
        <time>2012-05-13T14:14:44Z</time>
      </trkpt>
      <trkpt lat="48.68056" lon="1.95369">
        <ele>165</ele>
        <time>2012-05-13T14:14:49Z</time>
      </trkpt>
      <trkpt lat="48.68054" lon="1.95374">
        <ele>165.48</ele>
        <time>2012-05-13T14:15:03Z</time>
      </trkpt>
      <trkpt lat="48.68053" lon="1.95378">
        <ele>165.48</ele>
        <time>2012-05-13T14:15:16Z</time>
      </trkpt>
      <trkpt lat="48.68052" lon="1.95385">
        <ele>165.96</ele>
        <time>2012-05-13T14:15:20Z</time>
      </trkpt>
      <trkpt lat="48.68052" lon="1.95389">
        <ele>165.48</ele>
        <time>2012-05-13T14:15:22Z</time>
      </trkpt>
      <trkpt lat="48.6805" lon="1.95402">
        <ele>166.45</ele>
        <time>2012-05-13T14:15:29Z</time>
      </trkpt>
      <trkpt lat="48.6805" lon="1.95405">
        <ele>165.96</ele>
        <time>2012-05-13T14:15:31Z</time>
      </trkpt>
      <trkpt lat="48.6805" lon="1.9541">
        <ele>166.93</ele>
        <time>2012-05-13T14:15:34Z</time>
      </trkpt>
      <trkpt lat="48.68049" lon="1.9542">
        <ele>166.45</ele>
        <time>2012-05-13T14:15:40Z</time>
      </trkpt>
      <trkpt lat="48.68049" lon="1.95429">
        <ele>166.93</ele>
        <time>2012-05-13T14:15:45Z</time>
      </trkpt>
      <trkpt lat="48.68044" lon="1.95442">
        <ele>166.45</ele>
        <time>2012-05-13T14:15:55Z</time>
      </trkpt>
      <trkpt lat="48.68043" lon="1.95458">
        <ele>166.45</ele>
        <time>2012-05-13T14:16:03Z</time>
      </trkpt>
      <trkpt lat="48.68034" lon="1.95482">
        <ele>164.04</ele>
        <time>2012-05-13T14:16:17Z</time>
      </trkpt>
      <trkpt lat="48.68032" lon="1.95493">
        <ele>164.52</ele>
        <time>2012-05-13T14:16:25Z</time>
      </trkpt>
      <trkpt lat="48.6803" lon="1.95503">
        <ele>164.04</ele>
        <time>2012-05-13T14:16:34Z</time>
      </trkpt>
      <trkpt lat="48.68024" lon="1.95515">
        <ele>164.52</ele>
        <time>2012-05-13T14:16:43Z</time>
      </trkpt>
      <trkpt lat="48.6802" lon="1.95524">
        <ele>164.04</ele>
        <time>2012-05-13T14:16:48Z</time>
      </trkpt>
      <trkpt lat="48.68018" lon="1.95532">
        <ele>165</ele>
        <time>2012-05-13T14:16:53Z</time>
      </trkpt>
      <trkpt lat="48.68017" lon="1.95536">
        <ele>164.52</ele>
        <time>2012-05-13T14:16:55Z</time>
      </trkpt>
      <trkpt lat="48.68011" lon="1.95555">
        <ele>165</ele>
        <time>2012-05-13T14:17:06Z</time>
      </trkpt>
      <trkpt lat="48.6801" lon="1.95561">
        <ele>165.48</ele>
        <time>2012-05-13T14:17:11Z</time>
      </trkpt>
      <trkpt lat="48.68009" lon="1.95567">
        <ele>165.48</ele>
        <time>2012-05-13T14:17:14Z</time>
      </trkpt>
      <trkpt lat="48.68" lon="1.95584">
        <ele>165.48</ele>
        <time>2012-05-13T14:17:27Z</time>
      </trkpt>
      <trkpt lat="48.68" lon="1.95594">
        <ele>166.45</ele>
        <time>2012-05-13T14:17:33Z</time>
      </trkpt>
      <trkpt lat="48.67997" lon="1.956">
        <ele>166.45</ele>
        <time>2012-05-13T14:17:37Z</time>
      </trkpt>
      <trkpt lat="48.67994" lon="1.95607">
        <ele>166.93</ele>
        <time>2012-05-13T14:17:41Z</time>
      </trkpt>
      <trkpt lat="48.67989" lon="1.95618">
        <ele>167.41</ele>
        <time>2012-05-13T14:17:47Z</time>
      </trkpt>
      <trkpt lat="48.67984" lon="1.95632">
        <ele>167.41</ele>
        <time>2012-05-13T14:17:57Z</time>
      </trkpt>
      <trkpt lat="48.67982" lon="1.95639">
        <ele>167.41</ele>
        <time>2012-05-13T14:18:02Z</time>
      </trkpt>
      <trkpt lat="48.67972" lon="1.95656">
        <ele>167.41</ele>
        <time>2012-05-13T14:18:13Z</time>
      </trkpt>
      <trkpt lat="48.67967" lon="1.95668">
        <ele>167.41</ele>
        <time>2012-05-13T14:18:22Z</time>
      </trkpt>
      <trkpt lat="48.67958" lon="1.95695">
        <ele>167.41</ele>
        <time>2012-05-13T14:18:37Z</time>
      </trkpt>
      <trkpt lat="48.67958" lon="1.95701">
        <ele>167.89</ele>
        <time>2012-05-13T14:18:41Z</time>
      </trkpt>
      <trkpt lat="48.67956" lon="1.95708">
        <ele>167.41</ele>
        <time>2012-05-13T14:18:45Z</time>
      </trkpt>
      <trkpt lat="48.67955" lon="1.95713">
        <ele>167.89</ele>
        <time>2012-05-13T14:18:48Z</time>
      </trkpt>
      <trkpt lat="48.67954" lon="1.95723">
        <ele>168.37</ele>
        <time>2012-05-13T14:18:55Z</time>
      </trkpt>
      <trkpt lat="48.67954" lon="1.9573">
        <ele>168.37</ele>
        <time>2012-05-13T14:18:58Z</time>
      </trkpt>
      <trkpt lat="48.67947" lon="1.95746">
        <ele>169.33</ele>
        <time>2012-05-13T14:19:09Z</time>
      </trkpt>
      <trkpt lat="48.67943" lon="1.95751">
        <ele>168.85</ele>
        <time>2012-05-13T14:19:12Z</time>
      </trkpt>
      <trkpt lat="48.67937" lon="1.95764">
        <ele>169.33</ele>
        <time>2012-05-13T14:19:19Z</time>
      </trkpt>
      <trkpt lat="48.67936" lon="1.95773">
        <ele>168.85</ele>
        <time>2012-05-13T14:19:25Z</time>
      </trkpt>
      <trkpt lat="48.67934" lon="1.95779">
        <ele>168.85</ele>
        <time>2012-05-13T14:19:28Z</time>
      </trkpt>
      <trkpt lat="48.67928" lon="1.95808">
        <ele>168.85</ele>
        <time>2012-05-13T14:19:43Z</time>
      </trkpt>
      <trkpt lat="48.67919" lon="1.95831">
        <ele>168.37</ele>
        <time>2012-05-13T14:19:56Z</time>
      </trkpt>
      <trkpt lat="48.67918" lon="1.95834">
        <ele>168.37</ele>
        <time>2012-05-13T14:19:58Z</time>
      </trkpt>
      <trkpt lat="48.67911" lon="1.95849">
        <ele>166.93</ele>
        <time>2012-05-13T14:20:11Z</time>
      </trkpt>
      <trkpt lat="48.67908" lon="1.95865">
        <ele>166.45</ele>
        <time>2012-05-13T14:20:25Z</time>
      </trkpt>
      <trkpt lat="48.67903" lon="1.95873">
        <ele>165.96</ele>
        <time>2012-05-13T14:20:30Z</time>
      </trkpt>
      <trkpt lat="48.679" lon="1.9588">
        <ele>165.96</ele>
        <time>2012-05-13T14:20:34Z</time>
      </trkpt>
      <trkpt lat="48.67898" lon="1.95883">
        <ele>165.96</ele>
        <time>2012-05-13T14:20:36Z</time>
      </trkpt>
      <trkpt lat="48.67895" lon="1.95887">
        <ele>165.96</ele>
        <time>2012-05-13T14:20:40Z</time>
      </trkpt>
      <trkpt lat="48.67887" lon="1.95908">
        <ele>165.48</ele>
        <time>2012-05-13T14:20:53Z</time>
      </trkpt>
      <trkpt lat="48.67885" lon="1.95912">
        <ele>165</ele>
        <time>2012-05-13T14:20:55Z</time>
      </trkpt>
      <trkpt lat="48.67878" lon="1.95926">
        <ele>164.52</ele>
        <time>2012-05-13T14:21:05Z</time>
      </trkpt>
      <trkpt lat="48.67873" lon="1.95939">
        <ele>164.52</ele>
        <time>2012-05-13T14:21:15Z</time>
      </trkpt>
      <trkpt lat="48.67866" lon="1.95955">
        <ele>164.04</ele>
        <time>2012-05-13T14:21:27Z</time>
      </trkpt>
      <trkpt lat="48.67861" lon="1.95966">
        <ele>164.04</ele>
        <time>2012-05-13T14:21:34Z</time>
      </trkpt>
      <trkpt lat="48.67856" lon="1.95975">
        <ele>163.56</ele>
        <time>2012-05-13T14:21:39Z</time>
      </trkpt>
      <trkpt lat="48.67841" lon="1.95999">
        <ele>163.56</ele>
        <time>2012-05-13T14:21:54Z</time>
      </trkpt>
      <trkpt lat="48.6784" lon="1.96002">
        <ele>163.56</ele>
        <time>2012-05-13T14:21:56Z</time>
      </trkpt>
      <trkpt lat="48.67831" lon="1.96013">
        <ele>164.04</ele>
        <time>2012-05-13T14:22:08Z</time>
      </trkpt>
      <trkpt lat="48.67821" lon="1.96028">
        <ele>163.56</ele>
        <time>2012-05-13T14:22:19Z</time>
      </trkpt>
      <trkpt lat="48.67815" lon="1.96042">
        <ele>162.6</ele>
        <time>2012-05-13T14:22:30Z</time>
      </trkpt>
      <trkpt lat="48.67807" lon="1.96054">
        <ele>162.12</ele>
        <time>2012-05-13T14:22:41Z</time>
      </trkpt>
      <trkpt lat="48.67801" lon="1.96059">
        <ele>160.2</ele>
        <time>2012-05-13T14:22:53Z</time>
      </trkpt>
      <trkpt lat="48.67799" lon="1.96061">
        <ele>160.2</ele>
        <time>2012-05-13T14:22:55Z</time>
      </trkpt>
      <trkpt lat="48.67795" lon="1.96065">
        <ele>159.24</ele>
        <time>2012-05-13T14:23:00Z</time>
      </trkpt>
      <trkpt lat="48.67785" lon="1.96078">
        <ele>157.79</ele>
        <time>2012-05-13T14:23:11Z</time>
      </trkpt>
      <trkpt lat="48.67782" lon="1.96086">
        <ele>156.35</ele>
        <time>2012-05-13T14:23:16Z</time>
      </trkpt>
      <trkpt lat="48.67772" lon="1.96109">
        <ele>154.43</ele>
        <time>2012-05-13T14:23:30Z</time>
      </trkpt>
      <trkpt lat="48.67772" lon="1.96116">
        <ele>153.47</ele>
        <time>2012-05-13T14:23:33Z</time>
      </trkpt>
      <trkpt lat="48.67763" lon="1.96131">
        <ele>150.58</ele>
        <time>2012-05-13T14:23:47Z</time>
      </trkpt>
      <trkpt lat="48.67756" lon="1.96137">
        <ele>148.66</ele>
        <time>2012-05-13T14:23:59Z</time>
      </trkpt>
      <trkpt lat="48.67749" lon="1.96138">
        <ele>147.22</ele>
        <time>2012-05-13T14:24:05Z</time>
      </trkpt>
      <trkpt lat="48.67738" lon="1.96137">
        <ele>145.3</ele>
        <time>2012-05-13T14:24:13Z</time>
      </trkpt>
      <trkpt lat="48.67736" lon="1.96118">
        <ele>143.85</ele>
        <time>2012-05-13T14:24:24Z</time>
      </trkpt>
      <trkpt lat="48.67738" lon="1.96099">
        <ele>142.41</ele>
        <time>2012-05-13T14:24:35Z</time>
      </trkpt>
      <trkpt lat="48.67738" lon="1.96083">
        <ele>140.49</ele>
        <time>2012-05-13T14:24:45Z</time>
      </trkpt>
      <trkpt lat="48.67736" lon="1.96064">
        <ele>137.61</ele>
        <time>2012-05-13T14:24:59Z</time>
      </trkpt>
      <trkpt lat="48.67737" lon="1.96052">
        <ele>135.68</ele>
        <time>2012-05-13T14:25:10Z</time>
      </trkpt>
      <trkpt lat="48.67736" lon="1.96034">
        <ele>133.28</ele>
        <time>2012-05-13T14:25:21Z</time>
      </trkpt>
      <trkpt lat="48.67733" lon="1.96012">
        <ele>130.88</ele>
        <time>2012-05-13T14:25:34Z</time>
      </trkpt>
      <trkpt lat="48.67726" lon="1.96006">
        <ele>129.43</ele>
        <time>2012-05-13T14:25:47Z</time>
      </trkpt>
      <trkpt lat="48.67722" lon="1.9601">
        <ele>128.47</ele>
        <time>2012-05-13T14:25:54Z</time>
      </trkpt>
      <trkpt lat="48.67714" lon="1.96026">
        <ele>126.55</ele>
        <time>2012-05-13T14:26:06Z</time>
      </trkpt>
      <trkpt lat="48.67712" lon="1.9603">
        <ele>126.07</ele>
        <time>2012-05-13T14:26:09Z</time>
      </trkpt>
      <trkpt lat="48.6771" lon="1.96035">
        <ele>125.59</ele>
        <time>2012-05-13T14:26:12Z</time>
      </trkpt>
      <trkpt lat="48.67701" lon="1.96054">
        <ele>123.67</ele>
        <time>2012-05-13T14:26:26Z</time>
      </trkpt>
      <trkpt lat="48.67701" lon="1.96074">
        <ele>122.22</ele>
        <time>2012-05-13T14:26:38Z</time>
      </trkpt>
      <trkpt lat="48.67701" lon="1.96095">
        <ele>120.78</ele>
        <time>2012-05-13T14:26:52Z</time>
      </trkpt>
      <trkpt lat="48.67693" lon="1.96117">
        <ele>118.86</ele>
        <time>2012-05-13T14:27:08Z</time>
      </trkpt>
      <trkpt lat="48.67691" lon="1.9612">
        <ele>118.38</ele>
        <time>2012-05-13T14:27:11Z</time>
      </trkpt>
      <trkpt lat="48.67689" lon="1.96125">
        <ele>117.9</ele>
        <time>2012-05-13T14:27:14Z</time>
      </trkpt>
      <trkpt lat="48.67681" lon="1.96137">
        <ele>118.38</ele>
        <time>2012-05-13T14:27:30Z</time>
      </trkpt>
      <trkpt lat="48.67682" lon="1.96138">
        <ele>117.9</ele>
        <time>2012-05-13T14:27:51Z</time>
      </trkpt>
      <trkpt lat="48.67682" lon="1.96138">
        <ele>117.9</ele>
        <time>2012-05-13T14:28:08Z</time>
      </trkpt>
      <trkpt lat="48.67682" lon="1.96138">
        <ele>117.9</ele>
        <time>2012-05-13T14:28:25Z</time>
      </trkpt>
      <trkpt lat="48.67683" lon="1.96138">
        <ele>117.9</ele>
        <time>2012-05-13T14:28:51Z</time>
      </trkpt>
      <trkpt lat="48.67683" lon="1.96148">
        <ele>117.9</ele>
        <time>2012-05-13T14:28:58Z</time>
      </trkpt>
      <trkpt lat="48.67685" lon="1.96159">
        <ele>118.38</ele>
        <time>2012-05-13T14:29:11Z</time>
      </trkpt>
      <trkpt lat="48.67687" lon="1.96172">
        <ele>117.42</ele>
        <time>2012-05-13T14:29:21Z</time>
      </trkpt>
      <trkpt lat="48.67685" lon="1.96179">
        <ele>117.42</ele>
        <time>2012-05-13T14:29:26Z</time>
      </trkpt>
      <trkpt lat="48.67683" lon="1.96186">
        <ele>116.94</ele>
        <time>2012-05-13T14:29:30Z</time>
      </trkpt>
      <trkpt lat="48.67669" lon="1.96201">
        <ele>115.5</ele>
        <time>2012-05-13T14:29:44Z</time>
      </trkpt>
      <trkpt lat="48.67661" lon="1.96216">
        <ele>115.01</ele>
        <time>2012-05-13T14:29:58Z</time>
      </trkpt>
      <trkpt lat="48.67655" lon="1.96235">
        <ele>114.05</ele>
        <time>2012-05-13T14:30:13Z</time>
      </trkpt>
      <trkpt lat="48.67655" lon="1.96248">
        <ele>114.05</ele>
        <time>2012-05-13T14:30:26Z</time>
      </trkpt>
      <trkpt lat="48.67664" lon="1.96262">
        <ele>115.5</ele>
        <time>2012-05-13T14:30:41Z</time>
      </trkpt>
      <trkpt lat="48.67672" lon="1.96271">
        <ele>115.5</ele>
        <time>2012-05-13T14:30:55Z</time>
      </trkpt>
      <trkpt lat="48.67677" lon="1.96288">
        <ele>114.05</ele>
        <time>2012-05-13T14:31:08Z</time>
      </trkpt>
      <trkpt lat="48.6769" lon="1.96299">
        <ele>115.01</ele>
        <time>2012-05-13T14:31:20Z</time>
      </trkpt>
      <trkpt lat="48.67696" lon="1.96309">
        <ele>115.5</ele>
        <time>2012-05-13T14:31:33Z</time>
      </trkpt>
      <trkpt lat="48.67704" lon="1.96321">
        <ele>115.01</ele>
        <time>2012-05-13T14:31:46Z</time>
      </trkpt>
      <trkpt lat="48.67704" lon="1.96322">
        <ele>114.53</ele>
        <time>2012-05-13T14:31:47Z</time>
      </trkpt>
      <trkpt lat="48.67707" lon="1.96347">
        <ele>113.09</ele>
        <time>2012-05-13T14:32:00Z</time>
      </trkpt>
      <trkpt lat="48.67708" lon="1.96349">
        <ele>113.09</ele>
        <time>2012-05-13T14:32:02Z</time>
      </trkpt>
      <trkpt lat="48.6771" lon="1.96354">
        <ele>112.61</ele>
        <time>2012-05-13T14:32:07Z</time>
      </trkpt>
      <trkpt lat="48.67712" lon="1.96358">
        <ele>113.09</ele>
        <time>2012-05-13T14:32:10Z</time>
      </trkpt>
      <trkpt lat="48.67716" lon="1.96361">
        <ele>113.57</ele>
        <time>2012-05-13T14:32:14Z</time>
      </trkpt>
      <trkpt lat="48.67727" lon="1.96374">
        <ele>113.09</ele>
        <time>2012-05-13T14:32:28Z</time>
      </trkpt>
      <trkpt lat="48.67736" lon="1.96392">
        <ele>113.57</ele>
        <time>2012-05-13T14:32:40Z</time>
      </trkpt>
      <trkpt lat="48.67742" lon="1.96402">
        <ele>114.05</ele>
        <time>2012-05-13T14:32:53Z</time>
      </trkpt>
      <trkpt lat="48.6775" lon="1.96405">
        <ele>112.61</ele>
        <time>2012-05-13T14:33:01Z</time>
      </trkpt>
      <trkpt lat="48.67758" lon="1.96407">
        <ele>110.69</ele>
        <time>2012-05-13T14:33:11Z</time>
      </trkpt>
      <trkpt lat="48.67762" lon="1.96413">
        <ele>110.69</ele>
        <time>2012-05-13T14:33:17Z</time>
      </trkpt>
      <trkpt lat="48.67764" lon="1.96417">
        <ele>110.21</ele>
        <time>2012-05-13T14:33:21Z</time>
      </trkpt>
      <trkpt lat="48.67768" lon="1.96424">
        <ele>110.69</ele>
        <time>2012-05-13T14:33:26Z</time>
      </trkpt>
      <trkpt lat="48.67774" lon="1.96437">
        <ele>111.65</ele>
        <time>2012-05-13T14:33:39Z</time>
      </trkpt>
      <trkpt lat="48.67776" lon="1.96443">
        <ele>111.17</ele>
        <time>2012-05-13T14:33:42Z</time>
      </trkpt>
      <trkpt lat="48.67778" lon="1.96459">
        <ele>109.25</ele>
        <time>2012-05-13T14:33:54Z</time>
      </trkpt>
      <trkpt lat="48.67784" lon="1.96463">
        <ele>109.25</ele>
        <time>2012-05-13T14:34:01Z</time>
      </trkpt>
      <trkpt lat="48.67793" lon="1.96461">
        <ele>109.73</ele>
        <time>2012-05-13T14:34:14Z</time>
      </trkpt>
      <trkpt lat="48.67794" lon="1.96462">
        <ele>109.73</ele>
        <time>2012-05-13T14:34:29Z</time>
      </trkpt>
      <trkpt lat="48.67804" lon="1.9647">
        <ele>109.25</ele>
        <time>2012-05-13T14:34:40Z</time>
      </trkpt>
      <trkpt lat="48.67811" lon="1.96472">
        <ele>108.77</ele>
        <time>2012-05-13T14:34:46Z</time>
      </trkpt>
      <trkpt lat="48.67821" lon="1.9647">
        <ele>108.29</ele>
        <time>2012-05-13T14:35:00Z</time>
      </trkpt>
      <trkpt lat="48.67825" lon="1.9647">
        <ele>107.32</ele>
        <time>2012-05-13T14:35:12Z</time>
      </trkpt>
      <trkpt lat="48.67833" lon="1.96471">
        <ele>106.84</ele>
        <time>2012-05-13T14:35:19Z</time>
      </trkpt>
      <trkpt lat="48.67841" lon="1.9647">
        <ele>107.81</ele>
        <time>2012-05-13T14:35:32Z</time>
      </trkpt>
      <trkpt lat="48.67846" lon="1.96479">
        <ele>105.4</ele>
        <time>2012-05-13T14:35:47Z</time>
      </trkpt>
      <trkpt lat="48.67855" lon="1.96484">
        <ele>106.36</ele>
        <time>2012-05-13T14:35:59Z</time>
      </trkpt>
      <trkpt lat="48.67863" lon="1.96494">
        <ele>105.88</ele>
        <time>2012-05-13T14:36:16Z</time>
      </trkpt>
      <trkpt lat="48.67873" lon="1.96506">
        <ele>105.4</ele>
        <time>2012-05-13T14:36:29Z</time>
      </trkpt>
      <trkpt lat="48.67874" lon="1.96508">
        <ele>105.4</ele>
        <time>2012-05-13T14:36:32Z</time>
      </trkpt>
      <trkpt lat="48.6788" lon="1.96511">
        <ele>105.4</ele>
        <time>2012-05-13T14:36:38Z</time>
      </trkpt>
      <trkpt lat="48.67895" lon="1.96505">
        <ele>105.88</ele>
        <time>2012-05-13T14:36:48Z</time>
      </trkpt>
      <trkpt lat="48.67902" lon="1.96503">
        <ele>104.92</ele>
        <time>2012-05-13T14:37:00Z</time>
      </trkpt>
      <trkpt lat="48.67907" lon="1.96503">
        <ele>105.88</ele>
        <time>2012-05-13T14:37:13Z</time>
      </trkpt>
      <trkpt lat="48.67912" lon="1.96498">
        <ele>105.4</ele>
        <time>2012-05-13T14:37:18Z</time>
      </trkpt>
      <trkpt lat="48.67921" lon="1.96516">
        <ele>105.4</ele>
        <time>2012-05-13T14:37:29Z</time>
      </trkpt>
      <trkpt lat="48.67926" lon="1.96519">
        <ele>106.84</ele>
        <time>2012-05-13T14:37:39Z</time>
      </trkpt>
      <trkpt lat="48.67929" lon="1.96526">
        <ele>105.88</ele>
        <time>2012-05-13T14:37:45Z</time>
      </trkpt>
      <trkpt lat="48.6793" lon="1.96534">
        <ele>108.29</ele>
        <time>2012-05-13T14:37:57Z</time>
      </trkpt>
      <trkpt lat="48.67927" lon="1.96549">
        <ele>110.69</ele>
        <time>2012-05-13T14:38:09Z</time>
      </trkpt>
      <trkpt lat="48.6793" lon="1.96556">
        <ele>110.69</ele>
        <time>2012-05-13T14:38:15Z</time>
      </trkpt>
      <trkpt lat="48.6794" lon="1.96567">
        <ele>111.17</ele>
        <time>2012-05-13T14:38:28Z</time>
      </trkpt>
      <trkpt lat="48.6795" lon="1.96581">
        <ele>111.17</ele>
        <time>2012-05-13T14:38:41Z</time>
      </trkpt>
      <trkpt lat="48.67954" lon="1.96594">
        <ele>109.25</ele>
        <time>2012-05-13T14:38:54Z</time>
      </trkpt>
      <trkpt lat="48.67955" lon="1.96597">
        <ele>110.21</ele>
        <time>2012-05-13T14:39:11Z</time>
      </trkpt>
      <trkpt lat="48.67952" lon="1.96613">
        <ele>111.65</ele>
        <time>2012-05-13T14:39:28Z</time>
      </trkpt>
      <trkpt lat="48.67949" lon="1.96613">
        <ele>111.17</ele>
        <time>2012-05-13T14:39:40Z</time>
      </trkpt>
    </trkseg>
  </trk>
</gpx>